GFSCGP_700_rhum_009.txt.gz
RH
25 21 21 26 24 21 18 18 17 20 29 21 28 23 28 33 30 33 32 33 33 34 53 74 48 29 32 34 39 86 89 42 49 53 53 53 54 62 64 66 69 75 74 76
19 24 28 23 28 27 25 22 21 26 25 21 29 26 30 34 38 36 36 39 45 47 56 48 31 32 36 36 39 41 45 52 54 56 56 55 62 65 67 72 72 79 82 86
23 31 19 31 32 31 30 27 34 33 32 30 31 28 30 36 38 39 43 43 46 53 59 40 36 35 37 42 51 56 58 59 57 57 58 62 64 68 73 79 80 85 90 71
31 19 33 35 38 33 31 39 39 36 32 25 29 22 32 32 38 44 49 51 51 55 58 41 42 48 54 55 58 59 59 62 62 62 64 66 74 77 79 86 83 85 92 50
37 40 42 40 43 29 43 27 41 40 32 29 26 21 36 32 36 43 52 58 59 44 45 47 55 59 60 58 60 66 66 63 62 64 65 75 71 75 88 98 87 52 54 53
40 32 45 48 40 29 38 46 44 44 35 32 32 28 31 34 42 48 58 67 71 66 50 53 58 60 59 59 63 65 64 64 66 79 90 92 93 77 61 52 48 49 51 55
40 46 50 32 45 50 41 38 37 42 39 38 39 28 42 47 48 52 63 69 77 51 56 61 61 74 66 69 74 75 74 74 89 94 79 62 53 50 54 55 56 60 64 69
34 44 50 37 42 50 44 45 48 42 38 31 36 25 40 51 59 60 65 70 74 75 70 76 76 72 89 74 73 75 79 76 66 54 52 56 61 66 64 63 75 79 69 62
41 44 46 30 47 46 47 47 45 54 55 56 28 32 47 56 59 60 64 69 74 78 81 86 90 94 85 70 74 73 66 58 62 62 60 57 55 61 70 74 74 59 47 31
38 47 41 47 35 49 53 48 51 46 60 38 21 22 33 55 51 61 56 60 66 71 74 84 87 94 94 94 75 70 65 72 79 90 85 69 84 81 73 56 43 33 22 13
35 44 46 44 50 46 51 52 55 42 48 44 39 30 45 44 53 56 62 63 69 72 79 84 92 90 95 100 100 100 99 84 84 100 97 78 70 60 45 32 16 10 12 26
16 50 43 36 32 26 58 52 50 50 42 50 59 50 52 52 54 60 62 66 76 84 86 93 96 98 94 100 99 90 78 82 70 69 72 57 43 26 12 9 8 14 35 56
21 58 40 35 58 64 54 56 55 62 66 56 61 51 54 58 73 58 61 72 82 98 88 93 98 99 98 97 83 93 96 72 59 44 33 26 14 8 6 5 7 23 46 63
13 56 47 38 35 39 41 43 43 50 61 59 54 48 46 52 60 64 70 78 86 95 98 99 94 84 80 80 98 97 84 51 35 24 20 14 10 7 5 8 40 73 76 75
24 56 54 46 44 44 46 48 47 44 45 51 57 54 54 62 72 79 86 91 96 100 98 77 76 77 77 79 87 92 98 44 50 20 18 15 11 9 20 47 64 81 83 69
28 68 32 33 52 50 54 50 47 47 53 53 53 55 61 74 77 86 90 97 100 82 78 69 82 87 83 100 99 100 100 100 84 47 66 52 36 19 48 70 89 92 59 14
34 37 45 47 42 49 58 52 49 51 54 65 64 63 68 77 93 88 94 99 87 75 73 81 84 86 99 100 100 94 100 96 100 100 100 100 60 53 76 95 100 100 56 64
39 44 50 51 59 87 66 60 59 58 62 59 59 67 85 90 97 98 94 99 75 59 54 58 73 80 78 79 93 87 98 94 99 100 93 98 88 72 92 100 100 99 100 100
43 50 54 78 76 66 64 69 66 69 63 69 85 96 77 81 81 98 97 74 52 40 42 57 83 74 70 87 92 95 91 90 98 96 95 94 90 100 100 100 100 99 100 100
47 55 64 93 97 78 72 73 85 67 76 99 83 78 75 81 98 100 70 50 36 47 78 92 92 93 89 88 88 86 88 93 86 98 76 67 99 100 100 100 100 100 100 100
51 60 72 100 94 84 75 81 68 84 90 90 84 74 79 96 98 68 42 38 86 90 86 88 85 85 85 56 62 86 85 94 96 97 95 78 100 100 97 100 100 100 100 89
66 82 85 93 98 92 80 86 92 95 98 92 80 88 95 100 71 46 38 68 87 84 80 79 81 84 46 70 85 87 80 94 94 98 78 88 98 98 100 100 100 100 100 63
70 79 85 89 80 78 88 99 99 100 90 96 97 98 99 74 65 66 88 86 83 80 74 78 83 73 86 93 92 93 82 70 72 86 96 100 98 97 100 100 100 100 66 56
44 75 85 98 87 94 98 96 99 94 95 92 98 83 61 83 78 89 85 86 75 72 77 80 88 92 94 94 96 100 68 62 70 78 96 98 97 60 41 100 98 76 53 60
48 84 87 94 94 96 100 97 100 90 82 84 72 73 67 60 80 92 84 76 77 80 85 87 94 94 94 98 100 89 63 74 89 97 99 97 40 32 32 41 54 47 54 63
36 77 94 95 100 87 98 98 96 95 90 81 77 75 67 75 88 84 78 77 82 68 76 92 90 92 99 75 60 59 75 87 91 98 89 30 21 26 34 34 44 50 56 59

GFSCGP_700_rhum_012.txt.gz
RH
24 23 26 25 22 21 18 15 14 20 23 21 19 22 23 28 28 31 31 30 30 31 34 53 66 70 76 77 76 68 64 71 83 73 60 52 55 65 63 62 71 71 70 72
18 24 25 22 10 21 20 19 18 22 23 19 25 21 26 32 35 34 34 35 36 44 55 62 65 64 63 33 37 52 53 50 51 59 59 61 63 61 65 68 71 81 84 89
28 29 8 15 28 26 25 23 33 32 30 27 27 26 29 34 39 40 41 45 51 51 51 58 62 55 43 40 40 47 54 58 60 61 69 64 62 61 66 79 97 93 92 96
32 30 30 30 32 28 29 38 30 32 29 24 24 22 29 35 40 45 48 49 54 58 63 69 43 40 45 50 56 57 57 59 62 64 62 62 64 71 85 92 94 64 53 54
35 36 37 36 41 23 40 34 27 35 32 27 25 26 31 33 38 47 55 59 62 66 73 63 51 51 50 54 57 58 60 62 64 64 64 67 78 85 81 65 56 55 45 58
38 28 38 45 39 25 32 43 38 38 36 37 26 28 44 37 46 49 59 67 72 74 74 65 60 62 53 54 56 58 65 71 77 78 78 79 75 57 50 51 49 51 61 66
38 42 44 27 45 45 38 38 38 53 49 50 36 29 45 46 45 51 62 70 77 76 80 84 88 89 89 74 62 54 53 73 79 78 75 63 58 63 68 64 62 62 61 60
34 45 44 40 39 44 41 41 49 54 61 42 31 24 45 52 52 54 59 66 72 78 79 80 78 86 89 96 77 73 52 55 67 72 69 69 72 69 74 58 53 57 56 44
37 44 35 27 33 42 47 47 34 44 55 48 26 41 50 54 57 57 60 64 66 71 75 82 94 93 91 95 83 71 79 80 78 71 76 75 69 66 60 57 58 45 25 13
41 45 35 23 49 51 40 35 42 46 63 46 26 27 53 54 60 70 54 58 61 66 68 86 86 86 90 78 75 86 86 93 98 100 97 86 73 59 55 46 27 13 9 8
31 44 44 47 44 43 46 44 50 40 44 50 50 34 39 42 50 54 56 60 66 72 65 67 89 97 93 93 78 88 87 98 100 86 90 72 51 44 36 20 12 11 9 6
12 39 36 34 29 20 44 46 47 51 44 50 55 46 48 50 53 62 66 67 76 75 68 77 78 76 83 88 90 82 75 76 76 91 80 51 41 33 18 15 14 12 10 9
16 54 46 40 57 53 41 45 47 55 56 52 61 48 45 53 60 77 78 70 80 78 81 78 79 76 67 68 65 62 74 78 84 83 73 53 51 35 34 24 20 14 15 25
12 51 45 44 38 38 37 37 38 40 49 58 58 52 52 53 76 78 76 82 86 79 84 90 78 66 56 46 49 61 79 94 96 98 91 64 56 46 45 44 30 29 52 69
16 44 42 33 38 46 44 43 44 43 42 43 44 44 50 64 70 74 80 72 75 75 86 93 73 52 38 35 61 84 93 96 88 86 97 85 94 87 56 56 55 44 77 87
22 49 28 27 49 48 38 49 51 47 43 43 50 53 55 69 73 75 61 70 77 70 87 80 47 30 38 64 96 98 95 99 84 75 95 93 84 97 97 89 42 70 92 92
29 28 32 37 35 32 62 54 49 50 50 53 54 62 70 84 81 76 68 74 74 98 82 41 32 81 100 93 78 86 94 96 80 72 98 71 82 98 89 53 32 74 89 94
31 33 36 39 40 75 57 53 58 58 55 56 56 73 92 91 74 72 76 85 95 74 36 33 86 89 95 70 87 85 71 60 76 94 95 61 88 76 95 51 47 64 95 90
49 38 41 52 77 49 60 68 58 58 52 69 77 81 76 72 73 80 93 96 68 38 45 84 81 87 76 90 88 79 62 71 91 87 92 56 96 94 93 84 78 76 97 74
37 42 50 73 90 76 58 68 72 68 74 95 82 79 84 80 81 98 85 79 56 38 51 77 81 81 83 81 81 68 77 82 76 81 72 71 96 94 92 99 93 95 77 99
42 49 58 88 97 76 59 75 60 77 90 84 85 79 82 76 87 88 79 61 56 82 82 80 73 73 75 77 71 84 76 74 92 67 68 69 77 98 83 88 89 88 84 85
44 61 66 90 96 89 78 85 88 79 88 96 90 92 74 67 94 75 68 70 88 86 78 70 69 71 67 62 83 93 87 71 53 61 60 60 65 69 72 89 82 93 78 49
61 59 67 73 55 78 84 90 84 84 85 95 99 89 73 60 54 64 67 92 92 82 70 63 76 54 66 98 100 97 77 60 56 60 70 75 74 79 91 76 51 38 39 49
58 49 62 75 58 72 87 98 96 89 89 90 97 90 69 66 72 80 95 91 79 61 42 57 39 74 87 85 95 74 49 59 60 68 76 79 82 90 32 18 32 32 37 56
44 51 53 75 71 87 97 89 80 92 97 98 97 86 70 72 87 86 58 46 42 42 50 37 81 86 58 63 50 38 51 57 64 71 75 81 54 19 20 29 25 29 46 54
30 38 59 66 87 92 94 98 98 90 99 98 93 75 66 67 44 32 21 18 19 22 26 31 44 41 31 36 39 38 54 61 73 75 77 30 19 20 25 22 28 36 44 54

GFSCGP_700_rhum_015.txt.gz
RH
22 28 28 25 22 20 18 18 21 24 23 21 19 21 26 28 29 30 28 31 27 28 36 50 57 60 68 77 78 77 66 73 72 76 60 55 62 70 71 74 74 82 77 75
26 26 27 22 18 13 19 20 25 25 29 17 24 25 27 29 28 33 32 32 33 30 32 50 56 61 65 61 62 70 59 53 60 59 61 62 68 79 78 84 77 72 85 93
23 27 11 28 27 23 26 22 30 29 30 18 26 30 30 35 34 36 37 38 41 40 41 48 54 51 57 62 50 41 46 56 57 59 61 64 68 68 66 68 83 94 92 71
27 24 30 30 32 27 33 31 29 26 23 27 26 35 34 36 38 42 46 47 46 43 41 42 46 41 40 42 46 52 55 55 58 63 64 65 67 70 73 77 78 68 60 63
34 38 38 36 36 27 39 30 21 17 29 31 27 28 37 40 46 46 47 50 47 46 43 45 43 46 46 49 53 56 57 50 43 39 42 55 59 59 62 64 61 69 74 74
35 32 30 29 29 34 38 39 37 38 39 44 37 35 40 46 48 53 56 51 57 60 63 59 54 52 52 54 50 45 48 49 63 66 59 52 54 58 61 69 73 69 73 66
42 40 32 41 46 45 35 40 46 57 67 65 42 41 54 54 51 51 55 64 66 68 66 65 69 78 75 70 72 61 54 55 49 55 59 75 79 82 92 87 79 69 53 52
42 46 46 24 42 40 42 43 43 64 82 56 23 46 57 49 55 63 68 64 67 73 75 82 87 94 99 99 97 82 69 67 61 67 70 65 77 78 85 93 91 68 54 44
46 45 40 11 18 42 47 28 38 47 50 54 43 56 56 54 56 64 60 66 75 69 82 88 82 81 81 86 93 90 76 74 81 88 92 90 100 100 100 96 82 54 37 18
49 40 34 47 50 45 40 32 46 43 63 54 39 53 55 58 60 61 64 63 68 63 68 75 76 81 80 79 74 71 71 76 98 93 72 78 93 100 95 83 59 36 28 25
46 38 41 47 35 37 49 47 45 40 42 63 78 46 46 57 60 60 57 61 64 67 71 70 65 62 68 85 73 61 61 71 56 52 55 72 62 50 55 62 50 43 44 40
26 40 40 42 36 31 26 45 47 46 50 55 56 48 43 47 53 65 68 67 68 71 69 67 70 70 67 66 66 53 37 30 33 34 21 27 70 83 97 71 69 62 64 47
17 26 44 44 52 44 37 44 40 45 48 48 53 39 46 61 62 66 84 81 72 69 68 69 74 67 77 85 62 36 23 18 18 57 71 64 96 66 94 97 96 92 90 61
16 24 34 44 42 41 37 38 38 41 52 48 49 46 42 55 67 80 83 78 78 75 72 80 81 76 83 62 33 22 19 28 60 81 67 80 81 55 76 91 91 99 97 47
11 44 36 29 25 36 40 41 43 45 44 46 44 48 60 63 72 75 74 78 80 84 66 61 71 79 51 28 22 26 41 53 42 48 59 78 78 88 89 92 80 98 92 53
14 26 25 26 38 34 27 34 45 48 50 48 48 51 61 65 72 72 75 78 76 68 63 69 83 52 27 24 43 77 61 49 63 69 66 68 74 89 97 98 97 97 86 85
21 23 24 26 29 30 59 53 51 49 50 54 54 56 58 63 70 76 79 79 71 64 62 71 57 30 36 70 85 75 78 82 74 66 56 54 76 92 97 76 99 87 89 88
26 24 25 28 28 60 55 52 46 52 59 57 60 70 69 67 73 82 78 74 61 64 70 54 34 63 77 81 72 68 75 69 60 40 28 40 54 65 63 70 97 96 94 100
27 28 30 34 36 28 54 53 51 56 57 51 50 55 70 82 90 82 71 65 65 80 49 47 62 69 61 43 39 54 53 56 34 30 44 58 56 52 53 73 95 72 100 97
30 32 35 44 50 72 62 72 59 63 58 55 60 71 77 78 80 74 65 64 70 46 37 39 42 34 36 38 50 49 46 36 37 60 70 69 55 60 63 66 70 100 99 93
37 41 42 47 58 31 32 53 50 69 58 63 64 67 77 89 91 79 64 49 46 36 36 39 42 41 39 32 32 31 38 54 53 66 64 56 65 67 72 76 98 100 90 22
38 35 37 66 94 61 43 60 66 66 68 81 83 84 85 98 98 76 54 45 34 31 47 42 30 24 19 24 21 29 42 51 52 56 52 56 66 75 79 89 96 55 20 29
57 37 43 46 33 37 52 76 80 71 72 87 77 84 100 98 96 83 54 36 35 52 26 20 15 14 16 16 23 31 37 40 47 49 53 62 62 70 76 44 18 21 23 28
51 57 58 63 55 60 79 77 84 90 87 89 90 91 95 96 83 62 40 39 31 15 14 13 13 14 16 19 28 36 34 40 53 54 57 62 69 55 17 18 22 22 25 32
29 36 42 45 56 58 69 72 77 86 85 93 99 94 99 93 63 33 25 19 14 12 12 12 13 15 20 26 29 28 33 47 54 60 64 71 51 17 16 23 22 19 23 32
30 34 44 46 56 53 62 65 84 90 96 99 99 100 96 72 30 22 18 14 12 12 12 12 14 18 23 26 27 33 38 52 64 65 74 71 21 16 21 26 21 22 30 38

GFSCGP_700_rhum_018.txt.gz
RH
17 25 24 24 21 20 21 21 22 23 23 22 20 24 24 26 26 28 28 28 27 25 34 61 69 71 71 74 71 75 79 76 74 71 72 82 77 87 99 94 93 98 99 96
30 29 28 24 18 15 26 23 24 24 24 21 27 32 32 29 29 31 28 29 31 30 38 56 56 58 68 69 64 68 70 59 63 78 86 83 90 99 100 100 99 87 76 89
27 25 23 29 28 24 28 26 28 31 30 26 31 39 34 38 35 35 37 34 35 41 45 56 50 51 56 62 72 61 58 61 67 75 80 84 88 86 80 73 76 86 89 78
27 22 29 31 28 30 31 33 33 30 24 15 29 40 54 52 41 40 37 38 45 52 50 54 56 46 45 48 52 57 59 61 61 60 64 66 61 58 58 59 57 53 55 58
30 33 36 38 35 30 26 26 22 24 19 28 31 35 54 47 44 43 42 41 41 41 39 41 44 40 46 48 49 51 52 44 38 36 33 34 39 39 37 39 43 44 40 48
33 34 30 33 34 42 39 39 40 41 41 45 41 39 54 49 41 46 49 46 44 46 47 39 33 31 33 40 41 35 39 33 42 47 47 47 47 45 49 52 92 98 99 92
40 30 34 37 45 39 38 40 45 56 66 61 43 44 57 50 48 49 48 52 59 62 53 47 53 48 40 41 44 46 52 71 79 70 62 58 64 72 90 100 98 99 99 100
43 47 41 25 45 44 40 36 44 63 71 51 44 57 63 56 57 59 67 76 69 66 73 83 84 78 64 63 70 85 95 97 88 74 63 65 81 91 100 100 100 100 90 70
46 38 27 33 44 42 44 43 44 49 55 54 58 61 61 64 67 72 81 93 72 78 82 84 87 90 93 94 93 94 93 86 69 56 52 48 50 54 60 52 39 31 37 63
44 36 40 49 38 33 27 35 39 41 58 56 50 57 56 59 64 71 69 73 68 70 79 86 82 80 84 82 75 76 87 69 61 49 31 26 26 20 14 21 45 41 84 77
29 20 44 36 32 38 44 47 38 41 45 64 78 51 55 59 62 66 73 71 67 69 77 75 78 88 83 78 78 73 70 68 47 25 16 13 13 13 13 42 76 69 55 96
38 34 44 38 38 28 33 43 40 38 50 49 58 52 52 49 56 64 63 71 69 67 67 72 72 76 70 70 73 74 69 44 19 10 14 19 16 17 46 68 66 56 93 80
31 36 42 45 46 39 43 50 43 42 42 44 48 43 58 56 57 59 64 69 68 76 76 72 74 78 63 60 61 63 52 24 11 10 12 17 30 57 72 69 69 74 96 96
22 28 34 31 33 34 38 36 38 42 47 48 47 44 45 48 49 55 62 69 76 79 79 80 83 72 62 56 56 52 22 11 11 14 18 44 78 82 80 70 66 94 96 97
18 14 20 33 35 38 29 32 36 43 44 49 45 48 47 57 62 64 67 76 80 82 86 84 83 58 55 58 45 15 12 16 37 37 70 90 88 57 37 75 79 83 78 89
10 17 21 23 24 30 25 29 31 39 48 52 53 55 60 62 64 66 73 77 80 84 92 78 61 57 60 44 14 12 21 48 54 56 67 55 35 21 35 38 41 48 68 95
12 17 22 23 31 34 35 36 37 45 50 52 53 52 55 62 71 75 79 80 82 81 70 59 54 57 39 12 12 22 36 41 39 36 27 22 19 29 37 43 51 55 83 94
23 24 24 24 28 50 36 28 32 41 43 47 55 58 60 68 78 77 75 82 82 72 63 58 50 26 12 14 27 31 40 35 15 14 15 18 29 34 47 52 55 57 94 67
24 29 27 26 30 25 32 36 37 48 47 52 54 52 59 64 68 80 87 83 86 78 59 44 26 14 16 23 34 23 16 13 13 13 23 32 31 39 48 58 59 65 70 88
29 32 31 29 33 45 23 29 31 35 36 34 44 54 61 81 92 92 85 91 93 65 54 33 19 15 16 28 14 13 12 14 19 30 30 35 33 46 54 60 73 74 83 83
31 39 35 36 39 27 20 34 41 51 32 38 47 68 77 82 83 86 88 97 85 73 47 17 14 14 15 13 12 11 14 21 25 24 41 40 40 52 62 62 74 85 50 23
35 33 32 43 48 40 26 39 43 37 32 41 64 82 94 92 78 77 93 98 93 57 17 12 12 12 11 11 11 14 20 23 24 28 45 46 54 64 66 70 54 18 21 27
48 29 30 31 26 31 33 40 49 44 55 59 77 94 86 99 97 99 99 94 50 17 12 12 11 11 12 12 14 15 18 22 24 32 56 61 62 69 67 26 16 21 24 21
26 39 45 43 33 38 52 58 61 72 83 86 94 96 88 99 99 93 91 47 18 14 12 11 11 11 12 14 14 16 18 22 34 47 62 64 65 75 34 18 20 25 22 24
30 37 40 43 49 64 65 62 72 75 75 83 93 95 98 96 91 96 38 23 15 13 12 12 12 12 13 13 13 15 19 30 40 55 69 73 72 70 22 18 23 28 23 23
36 36 37 38 43 48 49 53 52 66 92 94 92 93 94 88 94 39 26 17 14 13 13 12 12 13 14 14 16 16 24 31 46 60 74 80 81 58 19 19 24 32 25 25

GFSCGP_700_rhum_021.txt.gz
RH
21 18 18 21 17 20 20 21 23 22 21 23 24 21 23 22 21 22 22 23 23 26 29 36 55 62 73 77 91 88 91 78 71 68 60 55 61 74 89 94 100 99 100 99
22 26 28 26 24 22 21 22 25 24 23 23 26 24 23 21 22 23 25 28 28 28 27 28 41 62 73 78 77 71 77 67 60 62 72 79 97 99 99 99 97 96 92 92
26 27 28 26 24 20 26 25 24 24 24 27 31 42 38 33 29 32 33 35 38 44 51 47 47 52 62 59 50 52 60 65 71 75 78 83 86 80 84 76 62 61 70 67
27 24 25 27 31 31 28 27 29 29 26 32 34 59 64 50 43 48 44 47 54 56 54 67 64 54 43 44 54 62 65 62 61 61 67 63 57 51 48 46 44 43 41 41
32 31 28 30 33 32 34 34 30 27 27 32 36 46 61 64 62 58 58 65 66 62 52 47 45 38 34 40 46 52 42 40 42 41 43 51 52 52 50 44 37 46 83 80
30 33 35 37 33 30 36 39 42 43 42 45 52 43 59 55 48 49 50 52 54 54 53 47 40 34 38 38 42 43 42 42 46 55 68 68 59 52 48 44 44 71 72 79
34 29 29 39 38 38 36 39 45 56 64 66 47 49 52 53 54 50 46 51 57 61 62 56 46 47 52 53 63 70 70 67 66 71 75 73 59 54 47 42 47 48 50 38
40 38 32 43 44 40 37 38 44 57 72 53 51 60 59 55 56 59 67 68 70 69 68 64 59 58 59 70 80 85 83 87 66 71 73 69 58 43 27 20 17 14 11 17
44 40 19 34 44 44 36 28 42 44 54 54 62 65 60 61 62 67 68 71 74 74 68 73 64 64 82 90 94 90 76 64 65 66 59 56 39 19 10 9 9 8 10 16
44 34 46 46 36 34 30 36 37 40 57 56 58 64 63 66 65 68 68 67 72 68 73 69 70 87 91 93 91 80 71 64 60 63 54 34 15 9 8 9 16 41 53 64
42 28 41 48 37 41 39 28 32 40 47 65 76 59 57 60 62 64 66 62 68 74 70 74 86 90 87 89 95 79 63 57 56 49 27 11 9 10 21 40 53 74 84 85
34 32 45 31 24 22 25 28 33 30 45 48 52 42 45 56 60 61 65 72 70 66 70 73 81 93 95 94 85 82 65 56 45 20 10 9 11 14 20 41 78 91 76 42
37 39 44 42 38 37 37 42 43 37 36 44 56 41 42 53 62 63 64 60 64 66 68 75 81 81 82 88 89 75 52 45 17 9 10 10 9 22 68 76 48 21 19 26
38 30 27 26 29 35 35 41 38 41 44 44 39 37 42 52 57 57 58 55 63 69 75 80 83 88 90 94 79 52 41 15 9 10 10 11 40 51 31 19 16 20 33 39
22 23 29 29 30 25 29 34 33 33 36 44 34 41 46 51 54 55 60 65 68 74 84 88 91 92 95 59 53 37 16 9 10 10 12 21 21 14 13 14 17 28 41 51
19 20 23 24 24 22 23 25 25 27 31 34 39 38 38 46 48 52 64 69 73 83 90 94 96 88 71 55 33 16 10 10 11 11 13 12 12 13 13 17 22 32 48 43
9 14 26 25 22 28 33 16 23 26 27 36 44 39 51 53 55 62 70 75 83 89 95 95 86 82 59 39 20 11 11 11 12 12 11 12 13 14 16 20 25 41 52 48
14 16 22 23 30 42 16 16 27 30 24 33 34 40 44 50 66 72 80 88 93 95 89 81 84 72 51 28 12 11 11 12 12 11 12 13 17 18 18 24 31 50 56 70
19 22 24 24 30 23 18 19 21 20 20 25 24 37 44 51 65 74 88 95 95 94 86 82 88 68 35 13 12 12 11 10 10 11 12 17 20 19 27 34 42 58 65 83
21 30 32 31 31 40 15 14 17 27 35 23 29 29 38 60 71 72 91 85 84 76 76 96 92 29 14 13 12 11 10 10 11 12 17 20 21 22 38 46 57 65 74 88
23 28 35 37 37 27 20 20 24 54 22 28 30 33 42 57 76 86 92 98 89 90 99 96 34 15 12 12 11 10 10 11 12 15 18 21 32 33 50 56 67 58 30 21
29 30 30 43 51 40 20 24 30 23 30 37 36 41 62 85 96 92 87 97 96 100 90 40 18 12 13 12 10 10 11 12 14 16 22 34 41 47 60 67 66 23 19 23
40 28 31 30 23 23 28 32 39 47 47 47 52 69 85 90 90 96 99 97 95 85 42 21 13 13 12 12 11 11 13 14 16 22 29 37 48 60 69 77 47 20 21 27
25 31 37 33 26 29 40 45 46 57 62 63 79 86 91 96 99 99 95 97 85 46 24 14 13 13 13 12 12 13 15 18 21 26 34 46 54 70 79 82 36 21 26 30
33 34 31 32 31 32 38 41 46 58 66 83 78 89 96 92 92 94 95 78 40 22 16 14 13 14 14 13 14 15 18 23 24 26 41 53 60 78 87 81 27 22 24 32
37 39 43 42 46 51 50 52 57 64 69 63 74 91 98 99 98 97 76 34 20 17 15 14 14 15 15 14 16 19 22 25 28 28 46 63 70 88 94 64 23 23 23 32

GFSCGP_700_rhum_024.txt.gz
RH
21 19 20 18 16 18 20 20 20 21 20 21 23 26 21 22 22 21 21 24 25 30 37 41 48 61 64 65 85 100 99 91 73 76 74 80 84 91 94 98 90 98 84 80
22 23 23 24 21 22 20 22 24 25 22 23 24 26 23 24 23 21 23 24 25 30 32 34 37 64 70 84 89 84 85 70 65 67 71 76 88 84 92 84 66 59 55 55
24 28 28 26 23 21 18 25 27 26 24 24 26 30 28 24 22 22 23 25 30 32 35 42 50 61 66 63 55 54 56 60 61 59 57 60 63 59 51 48 48 47 42 36
25 27 29 27 25 25 26 28 32 31 28 32 33 45 45 35 31 31 37 43 51 57 57 63 60 58 44 34 38 47 54 46 48 52 49 45 44 50 56 54 52 48 40 34
30 24 27 26 24 23 31 31 31 31 31 27 36 36 57 61 50 44 48 60 71 70 61 53 49 41 37 44 46 41 43 50 55 48 52 57 62 63 62 63 56 46 37 34
24 27 29 30 30 32 30 34 32 35 35 46 42 40 49 48 42 51 63 66 61 58 56 63 64 44 51 64 73 58 60 65 59 58 62 62 67 63 59 55 44 32 26 27
34 34 31 37 34 34 36 40 47 57 66 69 51 54 42 44 49 56 56 56 58 59 61 65 62 74 80 71 64 65 69 77 76 75 76 73 60 60 53 36 20 13 11 10
28 37 35 41 42 40 40 42 44 58 78 62 54 57 51 46 54 59 58 60 62 66 67 67 71 75 72 67 71 72 83 92 88 81 64 55 57 49 36 21 10 8 8 8
43 35 27 43 46 44 35 28 43 42 54 55 53 58 51 50 56 60 62 62 67 68 65 68 72 72 67 68 78 84 96 96 84 74 71 52 49 34 15 9 9 8 8 10
42 34 34 42 44 43 39 39 36 40 54 51 59 63 51 52 57 59 60 60 64 63 65 70 66 66 68 77 87 93 94 90 81 82 60 48 26 11 9 9 8 10 12 15
44 34 40 46 41 37 40 33 29 34 46 65 77 54 46 52 54 54 58 62 63 68 67 69 66 69 75 88 91 95 95 94 92 64 45 18 10 10 9 9 10 12 12 12
45 28 43 45 35 30 31 30 30 26 39 49 52 36 40 53 61 64 67 67 68 66 66 65 68 75 90 96 93 94 91 96 63 40 17 11 11 10 12 12 9 9 9 11
43 36 43 36 33 31 34 31 30 33 34 38 60 29 30 36 46 62 66 66 68 68 65 71 78 84 86 94 91 93 97 66 35 21 13 12 12 10 8 7 8 9 10 12
43 32 31 24 23 28 34 28 29 36 37 34 31 26 29 37 42 49 58 60 63 70 72 78 84 90 91 93 98 97 81 64 27 15 13 11 9 8 7 7 8 10 12 17
34 37 33 28 25 24 27 25 25 28 28 35 20 25 29 38 47 53 56 63 67 70 76 83 88 94 97 98 96 85 51 34 20 13 12 10 8 7 7 8 9 12 16 22
21 23 22 30 29 29 25 24 23 21 21 24 23 16 24 35 45 49 52 55 63 75 82 88 97 98 98 94 77 63 50 29 18 12 10 9 8 8 9 10 12 15 23 28
11 20 21 24 20 23 24 13 12 13 14 18 19 16 24 26 36 42 48 59 72 83 89 96 99 98 97 95 79 69 43 19 12 11 9 8 8 9 10 12 16 21 33 39
10 11 15 24 24 46 13 12 13 13 15 21 18 19 25 29 36 37 47 63 78 87 93 98 98 80 78 85 85 41 19 12 12 10 9 8 9 10 12 23 23 34 43 55
23 22 22 22 31 21 16 14 13 14 16 17 21 26 24 29 26 24 44 67 85 92 99 94 85 82 86 90 42 18 13 13 12 10 9 9 11 12 22 31 32 44 56 65
31 27 30 27 31 44 16 15 14 17 28 16 20 28 26 27 25 29 71 85 98 95 91 99 95 89 92 49 20 13 13 13 12 10 10 12 14 18 25 36 42 54 68 48
27 24 28 37 38 28 20 21 22 33 18 23 22 27 32 33 35 44 66 79 94 94 100 97 96 92 57 25 13 13 13 13 12 11 14 16 17 19 30 41 54 65 74 33
34 30 28 35 50 41 21 26 28 24 28 31 36 42 44 46 48 62 83 91 94 99 96 95 93 63 27 14 13 14 14 13 12 14 18 21 21 24 38 47 63 78 77 27
38 31 33 30 25 24 28 31 34 37 39 47 50 47 54 58 76 88 97 96 98 95 98 94 68 28 15 14 14 14 14 14 15 17 22 25 25 30 47 57 71 87 72 24
28 27 30 29 24 25 29 32 38 49 57 61 62 74 74 90 95 95 97 99 98 97 96 66 26 17 15 14 15 15 15 16 18 20 24 26 29 37 58 66 82 92 53 22
35 33 31 33 32 39 41 43 46 48 49 53 63 70 92 93 94 99 100 98 98 91 41 20 18 20 16 16 16 17 17 18 22 26 29 30 33 41 61 65 85 88 38 23
33 36 43 42 42 50 50 54 53 56 61 64 68 70 74 94 99 95 99 96 92 54 25 46 47 21 17 17 17 17 17 20 26 33 35 34 38 50 71 72 91 84 32 23

GFSCGP_700_rhum_027.txt.gz
RH
26 23 18 17 16 16 15 16 20 21 21 23 24 25 26 22 22 21 21 22 25 33 39 50 47 50 57 64 67 82 97 98 88 73 65 63 64 67 95 96 74 51 54 53
22 20 20 18 17 20 21 22 23 26 23 22 21 24 26 22 23 22 22 24 28 35 43 52 55 60 59 62 72 78 81 65 55 47 48 54 55 59 58 58 56 57 55 53
23 23 23 25 22 22 23 22 24 24 27 26 26 27 24 23 23 24 24 25 28 31 31 37 47 58 63 62 49 42 44 45 44 53 64 66 58 54 53 52 49 50 49 48
27 28 29 29 27 26 24 27 26 26 25 28 28 29 28 26 25 24 23 24 27 39 49 55 55 53 42 36 57 59 49 49 60 60 55 53 56 60 57 52 52 54 50 44
27 28 29 29 24 23 30 33 32 32 30 28 33 35 30 30 30 27 29 40 49 55 56 60 52 42 54 53 67 68 64 61 68 68 60 63 67 64 59 51 53 48 39 25
25 31 29 28 29 31 27 34 35 35 32 37 33 36 35 30 29 36 45 56 66 68 62 53 63 59 60 75 73 74 63 67 69 73 73 80 70 72 56 51 44 30 15 10
31 32 32 34 35 33 32 34 44 48 55 50 48 52 34 36 38 48 51 61 67 63 59 62 61 65 76 75 67 65 72 73 78 87 90 83 79 66 53 41 22 11 10 9
33 34 31 33 34 32 32 40 38 52 62 55 53 57 47 45 41 58 69 64 62 60 60 63 63 70 69 68 68 70 79 86 96 96 96 84 90 58 44 26 13 11 10 8
30 30 34 35 42 44 37 36 42 43 53 50 46 50 42 42 43 54 66 62 60 60 62 64 66 73 68 68 70 81 92 97 100 99 87 93 80 48 29 14 12 11 8 6
37 35 31 36 47 48 44 34 40 38 52 45 45 51 37 35 39 50 57 56 58 60 62 68 73 67 62 68 78 92 98 100 99 93 93 93 57 39 21 15 13 8 7 6
43 38 43 41 43 39 41 37 29 32 39 45 51 32 20 22 39 43 47 50 56 61 68 68 70 64 68 78 86 94 100 100 95 98 97 54 58 24 18 12 9 7 6 6
46 38 39 42 39 37 38 33 28 27 36 45 46 28 20 20 27 54 58 58 61 63 67 68 67 67 72 78 93 100 99 95 100 96 69 44 26 22 12 9 8 7 6 7
46 41 39 43 37 33 26 24 24 28 27 31 56 20 19 22 29 38 58 66 68 70 68 66 72 72 76 92 98 98 97 99 95 53 43 33 20 12 10 9 7 7 7 7
46 41 34 31 25 26 28 25 27 32 28 25 20 14 14 24 31 38 48 59 64 68 69 74 74 76 89 98 98 99 99 96 59 50 33 18 12 11 10 8 7 7 8 10
36 43 39 33 26 23 24 26 28 25 22 25 14 15 12 17 24 34 50 56 58 63 69 73 79 86 98 96 98 100 95 88 62 36 19 13 12 12 10 8 8 9 11 16
28 28 34 35 34 29 25 21 21 21 21 21 20 13 15 18 22 28 40 49 52 61 72 80 87 96 96 98 99 86 76 75 56 22 14 13 13 11 10 9 10 11 15 21
24 25 25 26 24 30 31 14 12 11 12 13 15 12 20 19 21 23 35 38 46 64 76 88 96 98 99 100 86 83 88 74 28 14 14 14 13 11 10 10 12 14 22 27
14 12 19 22 24 44 13 11 11 12 12 12 11 12 23 22 23 20 26 21 32 53 78 95 99 97 99 98 96 97 87 37 15 14 14 14 14 11 11 13 15 20 28 34
29 24 18 21 29 17 12 13 13 14 14 13 14 18 28 30 30 24 25 23 33 68 91 100 99 100 100 100 97 93 46 16 13 14 15 15 13 12 13 17 19 27 34 42
44 42 32 26 28 45 17 15 15 16 20 16 18 25 35 34 31 32 30 30 46 82 97 99 100 100 99 97 96 56 18 14 14 14 15 14 13 14 19 21 22 32 43 54
36 32 34 34 37 28 22 21 22 28 24 26 24 23 29 29 32 33 40 45 59 68 84 94 98 98 97 96 61 19 14 15 15 16 16 14 15 19 22 23 27 40 51 65
42 35 32 33 41 37 24 24 30 32 30 35 36 37 44 43 43 51 62 82 88 94 97 99 98 96 96 49 19 17 28 21 16 17 15 16 20 24 25 26 32 50 55 75
43 39 36 34 28 27 29 31 32 33 35 42 50 52 62 68 78 86 90 100 100 100 100 98 96 78 44 23 42 61 28 18 17 14 14 18 25 29 30 31 37 56 57 81
36 33 31 29 27 29 34 43 45 46 46 48 56 60 66 78 84 90 88 98 96 91 98 99 85 68 41 74 49 35 20 16 11 12 17 22 30 34 34 37 42 62 66 86
40 37 34 36 37 46 48 49 52 56 61 61 64 65 67 72 79 90 97 97 100 98 99 93 60 76 74 43 33 19 10 9 12 19 26 31 36 39 40 42 46 70 77 86
37 42 48 51 50 58 54 57 63 65 66 67 68 70 71 76 83 91 98 100 98 100 96 94 89 69 51 36 13 9 10 15 23 28 32 36 37 43 47 45 53 82 86 84

GFSCGP_700_rhum_030.txt.gz
RH
27 28 24 20 22 18 18 18 20 22 15 26 25 21 23 24 21 21 24 30 34 39 47 57 62 64 66 76 79 87 90 95 82 58 67 61 57 46 52 64 57 53 52 51
30 27 24 18 17 17 20 20 26 21 19 28 26 22 25 24 23 22 23 24 29 36 43 46 52 58 65 68 74 81 83 55 50 51 41 40 40 46 50 53 55 50 46 45
31 26 22 20 20 22 24 28 25 30 22 24 34 33 25 23 22 22 22 23 24 28 33 36 36 44 55 65 73 56 48 47 42 47 48 48 54 60 64 65 63 54 52 52
30 24 27 26 24 25 28 23 27 23 30 24 26 21 32 24 24 22 23 24 25 27 28 35 48 57 56 46 40 52 59 55 56 67 64 65 72 77 71 70 67 56 50 43
31 30 30 34 26 26 35 28 36 32 30 31 33 27 40 28 26 23 23 24 26 29 40 53 57 49 44 53 60 61 71 66 66 71 77 81 83 87 75 78 67 51 40 22
28 29 29 28 26 23 25 33 33 35 36 29 28 32 19 47 48 29 28 27 31 42 53 61 50 61 58 56 65 75 66 68 71 78 87 92 93 94 83 86 64 40 19 12
38 35 32 31 33 34 33 39 28 36 35 31 43 37 22 35 28 31 35 37 44 53 64 55 62 56 63 71 73 74 68 74 80 86 92 100 100 98 87 89 49 31 18 18
33 38 37 34 40 36 40 36 28 27 32 28 50 36 34 32 33 34 44 54 53 62 62 59 61 65 72 70 65 67 72 80 88 94 92 96 96 90 96 68 55 25 24 16
32 36 32 30 41 37 38 36 42 44 46 51 31 40 39 38 39 43 51 58 64 63 60 61 64 71 71 68 67 73 80 87 96 97 99 100 94 96 71 51 28 28 16 10
29 40 33 33 40 44 44 36 42 44 46 32 22 29 24 33 36 41 54 55 65 63 62 63 66 71 71 65 70 79 85 93 93 99 99 98 97 84 45 32 28 16 12 10
34 33 45 31 42 43 48 44 33 38 38 28 25 16 16 20 25 38 46 51 60 62 62 65 68 74 71 69 72 82 93 97 99 100 98 93 96 54 39 27 15 12 11 10
38 41 49 46 35 36 40 45 38 29 35 51 50 22 14 11 14 22 42 53 59 62 66 68 72 72 71 74 83 90 99 99 100 99 92 98 65 45 29 16 13 13 12 9
41 45 48 48 45 40 45 37 33 24 22 42 58 19 12 10 12 16 26 50 58 61 65 68 70 71 72 76 86 92 95 100 98 94 97 76 52 31 16 14 15 14 11 9
42 46 44 38 34 34 42 29 23 32 40 30 31 17 23 13 12 14 18 29 41 57 68 72 73 73 73 80 92 91 96 98 99 98 76 64 35 19 14 15 15 13 10 10
37 48 44 40 35 29 23 29 26 33 31 35 19 24 18 23 17 16 17 22 35 51 60 66 69 71 76 86 89 94 100 98 93 83 81 49 23 14 15 16 15 12 11 12
39 42 40 41 39 36 29 25 26 37 37 25 27 18 19 15 16 15 15 19 31 46 53 58 66 75 83 90 95 99 98 99 91 93 62 26 14 15 16 16 14 12 12 13
43 33 29 38 28 36 40 27 22 19 15 14 32 18 26 17 21 21 20 19 29 33 29 42 65 81 90 97 100 99 100 96 96 79 30 14 14 15 16 15 13 13 14 16
26 26 28 27 24 67 22 14 13 13 12 13 12 14 15 20 27 30 28 25 23 22 22 37 71 90 98 100 100 100 95 96 91 39 14 15 17 16 16 15 13 14 16 21
27 17 16 21 40 23 13 11 12 14 16 15 15 16 18 23 36 36 30 28 28 28 30 50 85 99 100 90 97 95 100 96 55 15 18 32 18 17 16 14 14 18 21 25
46 37 28 28 38 82 22 17 17 18 32 24 23 21 20 23 36 41 34 30 32 38 42 54 81 97 99 96 91 98 96 82 27 30 42 20 17 16 13 13 17 23 25 30
39 42 43 42 38 32 27 25 25 38 38 28 26 27 28 29 41 41 41 47 55 61 72 81 85 92 89 95 98 96 61 27 58 59 22 18 15 11 12 16 25 28 30 35
46 39 36 36 40 47 24 27 33 39 30 29 34 42 42 45 48 58 66 76 81 85 88 96 89 88 98 98 96 61 42 68 66 34 18 11 9 12 16 21 30 33 35 41
49 42 38 36 40 31 33 34 38 39 40 40 42 47 56 59 61 65 70 79 86 91 84 91 99 99 100 96 64 62 88 63 32 17 8 9 14 20 25 28 35 40 41 45
42 39 38 36 35 34 40 44 46 48 50 51 52 53 54 56 57 59 64 74 88 99 100 99 98 99 96 92 91 80 60 33 10 8 10 15 22 25 29 31 43 47 45 54
50 48 44 43 39 48 46 47 52 57 62 64 64 66 70 72 76 81 83 86 94 100 100 99 99 96 95 95 90 66 36 11 9 10 15 22 25 27 27 40 47 48 49 62
56 57 59 52 48 52 56 62 63 65 64 66 69 73 78 81 83 85 95 100 100 100 99 97 95 95 95 88 56 32 18 12 13 15 24 29 30 32 35 43 48 52 56 62

GFSCGP_700_rhum_036.txt.gz
RH
41 40 34 30 32 38 30 28 21 18 19 20 32 30 28 30 40 54 63 72 76 76 72 43 42 54 75 66 53 67 73 78 82 90 93 46 42 37 42 51 40 47 39 44
41 32 51 36 33 34 28 24 28 20 19 19 20 18 22 29 33 41 58 66 76 70 49 36 50 53 60 62 64 69 74 82 87 94 60 44 39 38 38 38 39 44 53 58
57 42 38 34 28 28 22 21 26 24 21 18 23 16 24 30 32 35 44 54 68 76 70 36 56 64 67 70 63 70 79 78 89 78 48 46 47 45 47 52 57 63 67 70
53 41 43 32 27 24 23 34 26 24 24 23 25 28 21 30 37 38 40 49 57 70 83 67 47 59 55 52 56 59 63 72 60 56 55 56 59 58 66 68 65 70 73 75
56 47 39 28 30 35 28 29 27 22 22 27 26 35 34 34 35 45 50 54 57 65 75 91 58 44 33 37 49 63 62 51 60 61 60 64 68 75 81 87 89 95 94 85
37 44 49 44 32 36 33 29 29 27 24 50 36 41 38 39 34 41 51 62 66 71 81 96 96 41 37 51 65 57 77 75 58 65 64 70 74 79 84 88 87 92 91 97
28 31 38 34 36 32 28 26 32 65 70 44 22 24 28 37 46 45 53 61 65 83 93 90 98 86 87 65 48 57 65 63 55 62 66 70 75 78 81 84 87 93 99 86
27 37 33 30 30 37 36 22 31 62 94 44 29 23 24 31 33 29 55 72 74 92 92 93 90 92 61 47 56 57 61 55 55 57 64 64 67 76 79 85 92 98 90 69
37 50 44 37 30 30 27 28 29 34 41 37 24 15 35 38 21 32 61 71 92 87 93 90 72 64 56 53 57 64 61 61 56 58 61 68 74 80 90 98 100 99 77 61
38 54 47 38 29 29 20 31 34 27 40 41 20 18 42 38 37 44 61 78 88 89 97 87 76 69 57 58 59 65 68 70 69 63 67 77 78 88 99 99 100 91 66 49
37 45 50 41 36 24 38 35 29 25 32 49 49 26 23 25 31 39 49 66 75 80 80 76 78 76 68 62 62 63 69 80 77 76 82 84 88 98 100 100 99 95 67 32
30 32 30 36 34 32 35 38 32 35 31 32 40 40 26 14 16 37 44 55 70 73 76 84 84 92 84 78 68 64 70 77 79 87 87 83 100 100 99 100 98 86 42 18
42 37 31 30 36 39 35 29 28 33 37 39 56 32 30 24 20 27 37 47 58 69 79 84 87 94 98 79 73 67 72 76 81 87 85 100 100 100 98 100 94 55 19 19
39 40 29 35 30 37 38 36 28 30 37 36 26 22 24 23 29 28 31 35 47 58 71 77 80 88 99 94 76 76 81 79 89 89 99 100 100 99 99 97 67 17 19 72
28 34 31 30 32 39 40 33 30 28 30 33 31 25 22 18 23 24 26 32 40 42 58 70 77 85 97 99 84 84 89 87 90 94 100 99 100 98 100 88 34 18 79 71
38 50 43 48 46 43 42 36 36 33 27 27 25 23 22 24 28 28 32 35 37 45 48 63 61 72 88 98 94 83 95 92 81 99 100 100 98 99 96 78 26 80 91 82
61 50 59 53 46 45 36 33 26 34 30 28 27 28 29 29 27 33 38 42 46 35 49 60 73 60 62 94 100 99 99 89 89 100 100 99 99 98 86 64 70 92 35 12
69 58 61 53 40 59 26 29 24 26 29 28 26 28 28 30 32 33 28 41 41 57 50 42 54 62 58 81 100 100 91 93 100 100 99 97 96 97 79 45 94 65 40 10
62 69 57 45 45 33 30 26 24 23 24 32 34 35 36 37 30 35 48 57 49 44 39 40 37 46 53 75 84 73 82 92 100 100 97 97 95 78 92 96 91 41 11 14
46 61 53 28 55 74 47 34 23 19 34 47 39 39 28 24 39 52 60 60 52 49 46 45 60 72 77 77 76 79 88 100 98 95 98 96 95 94 93 76 42 28 15 16
54 42 44 56 43 43 46 43 35 39 59 59 46 32 27 28 53 58 53 53 59 52 57 62 74 90 90 88 90 92 94 98 99 97 96 96 95 92 73 38 20 15 17 22
39 47 49 70 83 64 50 39 41 65 61 42 31 32 37 40 36 48 79 75 54 67 75 69 72 78 82 85 92 97 97 99 96 96 95 94 92 73 51 44 33 16 22 27
57 60 63 51 59 56 49 40 54 54 34 36 39 44 54 49 64 73 96 95 87 85 74 73 74 82 94 98 98 98 96 99 96 94 92 94 83 66 59 33 16 18 30 37
61 61 54 58 45 51 55 60 69 49 42 46 45 54 58 56 69 79 90 96 75 70 79 89 99 100 100 98 100 98 96 94 94 94 89 85 58 36 22 18 19 23 31 37
66 64 51 60 59 56 62 73 67 59 53 50 61 61 64 73 73 76 74 81 94 100 100 100 100 100 98 96 93 92 87 69 49 53 48 34 24 22 20 20 23 28 35 51
64 64 62 69 72 60 70 56 54 53 56 58 67 72 78 76 77 78 82 92 100 100 100 98 95 90 77 46 31 28 30 35 35 27 20 21 23 24 25 27 24 28 40 42

GFSCGP_700_rhum_042.txt.gz
RH
50 44 48 45 40 37 36 29 30 30 30 33 27 28 31 33 60 67 69 59 44 40 39 41 32 36 48 45 44 49 56 61 65 69 69 73 82 81 58 42 39 39 41 38
45 44 43 46 44 42 38 40 33 30 27 31 31 27 31 33 31 59 59 58 54 50 51 48 43 40 35 37 43 48 54 62 68 72 76 81 85 77 53 44 43 47 51 45
39 36 41 42 43 42 37 35 33 29 31 30 25 28 31 33 36 60 58 51 53 53 52 46 40 35 34 33 42 53 61 63 71 80 79 75 77 66 49 50 47 53 52 50
39 44 41 44 41 39 39 36 33 30 31 31 29 29 28 30 24 44 56 55 53 52 53 54 55 59 54 47 49 54 59 63 67 70 75 73 73 54 52 51 57 60 58 63
35 39 43 43 35 37 35 32 34 32 32 33 30 27 27 28 26 32 42 44 47 51 49 48 51 54 62 68 72 78 70 60 62 61 66 72 57 54 54 55 59 62 67 62
39 39 42 41 37 36 39 39 37 32 34 40 36 39 29 30 27 29 30 34 35 48 50 52 60 67 65 69 82 81 76 69 66 57 67 62 56 51 52 59 57 60 63 70
42 36 40 41 36 35 36 37 40 49 60 52 35 37 31 31 32 30 30 32 38 50 57 56 58 64 65 67 78 85 85 82 79 67 63 60 56 53 55 61 61 65 74 83
39 40 34 37 42 40 39 39 36 46 72 56 38 41 33 27 29 31 33 34 38 47 57 60 62 68 73 76 78 72 53 58 63 68 62 61 60 59 63 67 69 84 99 100
37 38 35 41 45 43 34 40 36 36 55 56 40 31 37 37 28 32 35 38 41 46 56 59 62 66 67 68 72 60 60 62 68 64 73 69 78 93 93 90 93 97 99 99
24 37 38 35 38 39 43 36 35 37 53 61 39 35 40 39 27 28 22 37 40 39 46 60 65 63 67 67 62 68 71 73 63 66 69 76 82 86 95 99 99 99 99 99
27 27 34 34 29 34 31 32 30 32 34 60 66 31 40 30 11 20 18 20 16 34 36 28 20 22 32 43 56 64 69 84 68 65 73 74 78 88 100 100 100 97 91 97
28 31 33 26 32 32 34 36 37 34 34 36 38 32 28 25 21 22 22 24 32 49 40 23 19 19 25 32 36 46 50 54 70 76 78 86 85 91 100 99 97 99 96 96
33 36 39 38 38 43 45 38 39 40 32 34 47 34 28 31 30 26 27 26 25 26 29 32 53 52 56 62 68 63 60 73 84 88 100 100 99 98 97 97 99 89 94 96
34 33 35 34 35 35 42 40 44 38 33 35 37 35 34 32 28 29 30 30 32 40 49 57 63 67 70 78 85 78 87 88 85 86 92 94 98 98 99 100 100 96 93 96
36 38 39 36 31 30 33 40 40 42 39 34 28 29 30 28 29 31 28 33 36 38 40 47 61 64 72 81 84 91 97 91 86 81 70 78 92 100 99 98 95 98 100 100
38 37 36 39 37 33 34 40 39 40 38 38 35 33 32 34 30 29 29 34 39 40 43 45 45 42 71 82 84 84 86 88 72 68 85 90 95 80 89 95 95 100 100 100
37 35 36 33 31 32 40 30 39 38 36 28 39 38 34 32 34 33 34 35 35 33 27 22 25 28 52 66 70 65 53 56 66 79 88 100 98 97 99 96 99 100 99 96
39 31 36 41 42 62 33 29 29 28 29 31 33 35 34 34 35 35 32 28 26 26 26 28 32 40 42 41 40 45 51 58 64 72 88 99 100 96 86 100 98 95 94 92
48 48 55 60 55 44 32 35 30 31 35 36 33 34 33 34 31 27 30 33 38 40 46 52 56 56 52 49 49 56 65 72 80 87 91 91 94 98 98 96 95 91 75 58
47 64 60 61 53 62 32 32 33 27 29 33 41 38 36 34 32 33 33 29 30 34 41 48 52 52 53 67 77 82 84 86 87 92 97 100 100 98 94 71 54 29 32 36
72 70 70 66 56 41 33 41 36 33 33 31 30 34 40 44 36 32 30 32 34 37 44 52 61 63 83 94 96 99 100 99 99 99 99 96 89 76 58 32 29 26 31 32
50 61 71 68 52 48 38 34 39 36 38 39 38 43 43 36 34 34 37 44 53 61 69 76 89 99 98 100 94 98 99 99 98 96 89 67 58 41 33 25 18 24 25 22
59 49 42 50 50 45 41 46 45 44 43 41 47 52 42 38 39 42 50 63 72 79 86 100 99 99 99 98 95 99 94 96 86 73 62 43 28 16 13 12 16 18 20 21
56 50 47 44 56 53 52 52 51 52 49 45 47 50 45 45 45 50 61 68 69 75 100 100 100 99 100 100 96 88 79 72 66 48 24 13 11 11 13 15 16 18 22 26
49 52 58 62 61 64 62 55 54 53 52 54 57 58 58 51 53 59 61 64 73 97 100 100 100 100 98 89 79 68 55 38 16 11 11 11 12 15 17 19 21 25 27 30
52 55 59 62 61 55 54 56 58 60 63 64 65 68 60 61 64 68 72 79 83 91 91 89 90 88 77 66 35 14 8 8 9 11 13 14 15 17 20 23 22 27 35 35

GFSCGP_700_rhum_045.txt.gz
RH
44 38 42 45 42 38 40 35 33 29 31 31 38 36 34 35 47 56 54 33 30 29 38 42 39 47 45 44 48 56 64 66 69 70 76 74 75 74 76 71 62 56 50 43
42 38 35 40 43 41 38 34 30 29 33 29 32 35 34 34 33 28 38 50 38 37 30 30 33 36 42 44 46 48 51 59 68 75 79 80 78 79 78 74 57 49 46 49
41 39 38 35 38 41 38 36 33 33 36 32 36 40 36 36 36 44 41 52 58 46 48 44 37 34 34 37 43 51 55 65 68 72 77 77 78 80 79 69 54 49 52 52
42 38 46 46 43 41 40 37 36 36 37 34 31 36 24 32 33 35 35 39 41 52 57 60 52 47 44 47 60 57 62 61 68 77 71 65 72 73 70 63 52 52 56 60
35 36 42 44 38 41 38 38 37 36 34 34 35 33 26 26 29 29 24 25 42 41 49 48 46 48 56 59 54 63 63 72 75 73 65 69 66 72 64 54 54 55 62 63
37 39 40 43 38 36 37 38 39 35 35 43 36 35 30 29 28 28 26 28 37 44 45 48 56 56 56 62 60 63 74 76 70 74 66 62 71 69 65 59 52 59 63 64
37 40 43 44 40 38 38 37 42 48 58 52 40 43 30 26 30 32 30 29 32 37 40 45 49 52 57 56 62 73 75 82 87 84 82 64 72 64 70 59 56 63 67 69
34 36 38 40 41 37 40 40 41 44 66 48 38 40 30 28 23 28 32 34 34 34 45 51 54 56 59 68 65 70 68 70 74 58 63 76 73 64 64 62 68 78 88 85
36 35 35 39 38 35 38 38 38 40 58 57 40 30 29 28 29 29 31 34 37 38 41 46 56 58 70 77 73 65 77 74 71 66 64 69 73 73 74 80 94 100 99 100
32 33 31 38 41 41 40 40 38 39 45 53 43 36 32 37 30 22 18 30 36 40 41 46 59 64 75 86 86 82 68 72 71 64 68 66 66 70 90 99 99 99 94 99
29 29 28 29 36 30 35 40 39 35 37 58 67 37 28 25 15 22 20 16 11 26 36 41 35 35 34 32 31 34 38 44 46 48 60 55 60 66 88 97 93 88 98 82
26 27 29 29 30 32 33 38 36 36 37 40 42 34 29 29 26 24 26 26 19 16 13 16 20 20 20 20 24 36 47 47 56 63 67 74 82 88 91 73 80 73 93 99
27 31 31 33 33 38 41 37 41 39 44 35 48 34 29 28 28 30 29 28 25 24 24 27 31 43 57 57 58 63 67 70 78 86 82 82 84 72 70 74 73 99 98 91
30 27 30 35 30 28 33 36 39 39 45 38 35 32 34 34 33 33 30 29 30 30 33 38 51 59 68 67 63 66 79 92 86 85 89 94 70 66 80 89 91 89 99 100
33 35 34 32 33 35 35 39 43 45 44 40 36 32 27 28 31 28 28 31 32 32 37 43 42 45 49 53 54 71 72 80 90 92 91 84 66 83 96 100 98 99 83 93
34 37 38 39 37 33 32 30 32 39 42 42 39 37 33 33 33 32 30 30 29 34 37 38 39 44 49 48 55 73 79 83 80 91 79 75 85 99 99 100 100 98 98 99
41 40 39 39 38 38 43 38 34 32 33 40 40 36 34 37 33 31 30 30 34 39 38 36 24 26 36 37 49 64 63 57 67 69 69 79 100 100 99 100 100 100 98 95
36 39 37 38 37 63 34 33 30 25 22 27 32 28 28 35 34 35 34 36 36 32 27 26 33 41 46 50 53 48 50 53 59 69 77 87 92 93 100 100 100 98 96 93
41 41 41 42 43 36 36 36 31 32 31 29 30 30 37 39 38 36 33 29 30 30 35 46 55 61 64 63 60 55 57 66 72 80 85 85 95 100 100 100 96 96 79 55
49 50 44 54 56 68 43 42 42 34 34 34 37 35 35 35 34 32 35 33 32 35 36 38 42 44 45 50 54 58 69 82 91 95 99 100 100 98 96 96 90 54 42 22
59 56 59 61 62 56 50 44 36 36 32 30 32 38 38 38 40 39 35 32 32 33 37 45 50 53 54 57 66 73 94 100 100 100 99 98 97 96 90 67 48 27 11 10
49 50 61 72 71 64 52 42 40 32 35 32 32 34 43 52 48 38 35 32 35 40 43 48 55 62 71 89 97 99 98 98 98 98 87 86 84 72 60 38 12 10 11 10
51 37 37 51 64 61 51 45 38 36 36 41 41 43 51 48 43 38 37 38 40 47 57 66 80 89 99 99 100 100 97 99 93 86 77 68 64 47 19 9 10 10 12 13
42 38 49 51 50 47 44 40 41 43 45 45 46 47 47 48 44 44 46 46 53 64 73 78 96 99 99 100 100 100 96 87 75 68 62 45 17 10 10 10 10 11 12 14
36 40 46 45 43 41 43 46 49 47 46 44 48 51 55 56 59 62 56 60 66 71 78 92 100 100 100 94 92 86 74 63 48 29 13 11 11 10 10 11 12 11 10 12
24 21 37 34 27 38 44 46 46 48 50 53 56 59 63 66 70 64 60 64 68 73 88 100 98 81 80 89 77 61 30 14 12 11 10 10 10 10 12 12 12 10 10 10

GFSCGP_700_rhum_048.txt.gz
RH
41 41 41 42 38 39 39 35 32 33 38 32 30 34 40 40 51 47 46 30 38 40 54 54 43 46 48 52 59 65 65 65 66 67 72 78 79 78 80 80 74 69 67 62
44 38 40 42 41 40 40 39 34 32 36 32 35 33 43 41 38 34 32 35 28 37 32 35 39 41 42 45 48 51 58 63 69 72 76 78 84 81 80 77 76 85 76 63
42 38 41 40 38 40 39 38 35 32 33 32 34 31 31 40 40 40 39 39 48 35 31 31 30 31 34 37 41 45 50 55 63 68 69 68 68 74 78 85 94 100 85 62
39 36 38 47 39 41 42 39 38 34 36 37 35 36 28 26 32 34 35 35 27 41 47 52 50 44 43 46 46 47 52 57 61 68 72 70 72 73 80 84 87 74 59 54
36 37 38 44 44 44 41 39 40 36 39 38 35 37 31 28 27 28 29 27 24 27 43 46 46 48 54 60 60 64 68 62 69 76 76 74 70 77 76 84 78 64 59 57
32 32 40 41 43 44 40 39 38 38 42 46 34 38 33 29 27 28 28 28 26 26 34 40 46 55 63 63 61 64 62 69 70 74 74 80 84 86 84 84 76 66 61 60
33 31 35 42 44 46 42 37 42 50 59 54 38 43 31 28 31 31 30 30 29 27 32 38 41 44 50 56 60 63 65 61 66 73 76 80 98 83 81 77 74 66 66 67
33 37 35 42 42 42 40 38 42 44 64 45 40 40 26 31 28 28 28 32 32 31 31 34 37 48 57 58 62 75 69 68 79 77 81 74 65 84 82 80 71 68 72 75
35 35 35 38 44 41 38 39 41 39 56 62 37 32 24 27 35 35 33 34 35 36 35 36 43 52 60 64 75 76 81 83 80 80 82 75 77 74 81 84 83 78 63 58
32 33 35 37 45 43 40 41 42 43 51 52 42 36 28 32 20 16 12 11 25 39 39 41 43 52 65 72 79 91 96 79 80 85 80 69 60 67 74 70 69 83 88 71
31 32 33 33 35 37 40 42 42 41 39 55 66 38 29 24 18 20 24 20 13 20 34 35 33 32 24 32 48 59 51 45 50 52 54 52 51 60 67 89 93 86 86 78
31 30 31 30 28 29 34 36 37 40 41 42 45 36 29 26 28 28 27 26 22 17 12 12 18 22 25 26 29 36 50 54 58 57 60 73 82 93 95 95 69 73 84 77
29 32 30 31 29 30 33 31 38 41 39 43 53 40 30 29 33 29 27 30 29 24 23 24 26 31 45 56 66 69 57 60 72 74 75 78 82 89 97 70 65 80 90 99
29 28 28 32 28 27 32 33 40 41 43 42 41 38 38 34 35 34 31 32 30 30 28 27 28 32 52 70 65 69 60 54 66 73 82 84 84 98 96 69 82 96 92 99
32 34 32 27 27 29 32 32 34 34 40 42 40 42 40 35 32 31 31 26 27 31 32 30 36 47 51 51 49 47 52 53 64 75 80 83 88 98 72 80 85 100 92 92
32 36 34 32 34 36 34 35 37 40 41 42 42 44 41 37 33 32 32 32 30 30 32 35 39 41 45 49 49 50 47 66 82 86 69 66 67 72 86 90 99 100 100 99
33 34 38 38 38 38 40 37 36 36 35 32 35 30 31 40 36 35 35 32 31 32 38 41 41 38 30 24 28 32 38 45 47 44 46 58 72 88 93 100 96 98 98 99
36 36 41 40 44 58 39 36 34 33 33 36 35 32 30 28 31 31 34 33 36 39 39 35 29 26 26 29 35 42 52 57 56 60 72 89 98 100 99 99 99 99 98 96
42 36 44 42 42 38 38 34 32 21 24 26 25 24 27 33 32 38 38 38 37 32 30 30 29 30 37 46 58 64 57 54 70 84 92 100 100 100 100 100 99 96 96 89
46 45 42 42 45 64 39 38 32 31 40 38 31 32 34 34 41 40 37 33 34 35 32 30 31 32 34 40 48 56 59 66 75 99 100 100 100 99 98 96 97 95 73 56
47 45 43 42 46 45 44 45 40 42 33 31 29 32 37 40 39 35 38 40 37 33 30 30 33 40 49 55 56 57 61 75 93 100 100 89 100 98 99 93 81 66 56 25
44 48 53 54 60 65 48 50 48 38 40 35 34 32 35 39 40 44 48 41 36 32 32 34 41 48 50 53 57 68 95 100 99 98 95 100 100 92 76 66 57 27 9 8
56 48 50 50 48 45 45 32 49 42 47 39 35 35 37 42 49 54 44 38 35 37 38 42 47 53 62 68 85 99 98 100 100 96 95 88 73 62 46 20 8 8 8 8
49 49 52 50 46 38 34 41 52 43 39 42 45 45 46 49 50 44 42 43 44 44 47 52 58 68 84 98 100 100 99 84 88 77 67 50 26 11 10 9 9 10 12 13
49 48 47 43 41 39 36 37 37 36 41 46 47 47 44 45 50 53 53 55 58 56 59 67 75 89 100 100 100 84 87 78 66 37 15 12 10 9 9 10 12 14 15 13
51 47 44 42 35 25 31 32 35 39 42 44 41 41 47 54 58 62 65 71 73 67 75 80 89 100 100 94 80 78 68 40 20 14 11 10 10 12 12 14 16 17 14 9

GFSCGP_700_rhum_051.txt.gz
RH
39 42 39 37 38 39 38 34 33 30 38 38 34 34 34 44 40 43 44 31 35 47 32 28 40 50 51 47 43 43 43 48 56 61 63 69 66 69 74 78 83 80 75 74
44 40 39 46 44 41 41 37 35 35 37 35 31 30 27 33 38 40 43 31 33 37 26 29 36 41 48 54 59 61 64 63 65 70 77 80 83 81 83 89 81 83 92 86
42 41 42 42 42 43 42 36 36 36 36 33 31 29 27 30 34 36 36 42 35 30 30 29 31 37 43 45 49 56 59 63 69 74 79 78 74 72 82 77 86 97 98 74
41 38 39 42 40 41 40 40 39 39 38 36 34 35 29 30 28 27 32 36 36 40 33 31 30 30 33 37 42 46 50 52 58 67 68 68 80 86 86 85 95 100 82 67
37 37 38 41 42 46 44 41 40 38 36 38 35 37 29 30 28 26 25 27 32 32 43 47 44 42 44 45 48 50 56 59 61 68 72 73 76 84 88 91 91 90 92 80
37 36 34 40 41 46 46 43 39 39 39 46 36 36 31 29 28 28 28 28 28 31 30 42 51 53 55 56 61 66 67 69 73 75 78 83 76 94 100 99 95 93 88 79
35 33 32 36 41 44 44 43 44 45 50 47 38 46 32 26 31 30 29 30 30 28 31 30 42 46 51 60 58 62 66 70 75 77 83 81 68 73 95 98 96 93 80 73
34 34 30 34 41 44 44 42 40 46 49 40 43 40 26 27 27 29 28 26 30 28 28 28 33 38 46 54 61 65 69 76 77 78 81 75 75 72 75 80 98 97 84 96
35 34 33 37 41 43 44 43 40 40 55 56 37 33 28 33 39 31 33 32 32 33 32 32 32 34 41 52 64 70 76 81 83 77 74 75 78 76 74 83 92 90 96 100
34 34 34 35 41 48 43 41 43 45 53 53 41 36 25 30 20 21 19 12 12 28 35 34 36 40 47 57 65 72 78 85 94 89 80 72 75 72 66 76 92 87 97 99
34 34 35 40 39 45 49 45 43 42 40 44 49 34 30 27 25 20 26 25 18 10 19 29 37 39 36 49 52 66 70 60 58 83 74 64 66 65 67 82 84 90 99 96
33 34 33 32 33 31 30 39 42 42 44 42 44 38 30 28 29 29 29 27 27 21 11 10 12 16 21 22 20 20 25 42 53 64 70 72 73 83 90 98 98 100 97 94
32 34 34 34 33 32 34 29 29 31 39 41 53 38 30 30 31 33 32 29 30 29 22 20 23 25 27 32 38 58 66 62 62 54 55 68 77 92 95 98 99 99 92 76
32 31 31 34 30 27 29 26 26 32 43 42 41 38 35 37 39 35 35 31 26 33 30 27 27 29 35 54 70 70 55 54 49 51 54 64 72 84 89 94 98 98 79 90
31 33 32 29 28 28 26 27 28 34 36 42 36 35 39 38 34 32 33 31 30 29 31 31 30 30 33 43 51 48 47 47 49 55 60 74 87 85 80 84 88 81 100 91
31 32 31 32 34 33 29 30 34 34 39 46 44 42 37 36 39 39 32 31 32 32 29 33 34 37 43 49 60 56 49 45 46 58 64 84 84 47 56 71 93 100 82 95
34 33 35 38 36 37 42 36 35 36 34 34 34 30 32 32 33 30 35 36 35 32 32 32 37 41 44 42 38 27 25 26 32 42 49 48 52 58 79 95 98 98 96 99
50 43 42 40 45 62 36 34 36 38 38 36 34 32 34 37 37 35 33 32 31 32 34 39 41 40 34 29 28 26 26 34 46 55 58 62 69 86 98 88 96 92 90 98
50 48 48 45 46 38 38 38 39 36 34 34 28 24 30 29 28 35 38 37 40 41 40 38 34 32 32 27 25 29 35 41 47 52 61 74 93 100 93 87 100 99 93 96
48 50 54 47 46 62 38 40 39 36 36 31 29 31 33 31 35 37 44 43 41 35 33 34 35 29 26 29 34 40 48 54 57 60 64 72 92 94 88 99 100 98 93 79
49 54 55 50 45 41 40 39 40 42 31 33 36 34 30 31 37 42 43 37 35 37 40 35 30 30 32 37 44 49 51 53 59 71 85 88 90 85 98 98 90 69 50 18
48 52 53 50 49 51 40 42 45 34 35 39 42 35 32 33 41 42 38 38 43 44 38 33 32 35 40 46 52 55 60 77 90 92 90 88 89 87 74 58 34 12 7 7
62 46 43 41 42 40 39 40 40 44 28 42 46 38 35 37 40 40 40 50 47 40 36 37 39 44 49 56 64 72 78 92 92 79 68 73 64 46 20 11 8 8 8 9
76 54 48 45 43 43 42 43 47 42 34 52 42 38 38 38 41 44 54 48 43 43 45 48 50 55 64 71 79 83 100 89 70 70 63 46 20 14 10 9 10 12 14 16
63 55 50 50 48 45 46 42 42 40 37 46 42 44 45 45 48 52 50 51 53 56 61 67 66 74 80 87 97 100 94 76 71 58 30 20 12 11 12 14 14 17 20 18
63 57 52 46 43 44 41 42 41 35 34 40 43 47 49 52 51 52 55 60 65 70 78 80 81 83 92 100 100 92 78 70 44 25 17 15 16 16 15 16 21 22 13 8

GFSCGP_700_rhum_054.txt.gz
RH
33 41 36 31 38 36 35 32 28 34 38 40 38 37 38 31 39 45 54 33 42 54 60 49 44 44 44 40 37 32 27 22 19 17 18 25 32 37 42 50 61 89 87 81
43 39 43 42 44 44 43 34 30 36 33 36 34 31 30 27 34 38 50 39 36 60 34 30 42 48 50 49 48 46 40 43 48 53 55 52 46 49 53 62 84 89 87 91
38 41 37 43 47 49 44 36 33 31 37 37 34 28 32 26 29 32 34 46 32 28 25 28 35 40 48 48 48 53 57 59 62 67 72 75 76 75 76 80 90 95 99 99
41 44 41 47 46 43 36 41 42 38 35 29 34 28 28 32 27 25 32 33 30 26 29 30 33 36 38 43 53 56 59 61 63 67 70 75 79 81 85 86 91 98 100 99
41 37 36 47 46 47 39 42 45 42 36 37 33 30 25 27 31 26 25 26 34 33 32 30 30 31 34 44 44 49 52 54 57 60 68 73 78 85 89 93 96 92 89 97
38 37 37 43 42 45 47 46 46 45 38 35 31 31 25 25 28 29 28 27 28 33 34 38 37 37 36 39 42 45 49 54 59 62 68 74 82 86 86 89 94 98 96 95
42 41 44 33 43 43 49 44 39 41 39 38 41 36 27 28 31 29 26 26 30 29 34 36 44 44 48 50 54 59 62 66 70 74 79 82 87 91 83 87 76 93 95 94
37 34 40 32 38 41 44 41 38 44 42 32 45 33 26 26 26 25 26 28 26 30 29 31 37 46 49 55 60 63 65 66 69 74 82 86 92 85 83 83 83 84 95 80
33 29 32 29 33 45 49 44 42 46 40 46 32 30 26 28 33 32 30 33 29 30 29 27 30 36 43 49 55 62 67 70 73 79 87 88 88 88 84 82 77 84 92 90
36 32 35 37 41 44 47 45 43 42 45 42 29 29 21 29 27 22 22 16 25 32 32 30 29 30 32 36 46 61 72 73 80 82 85 92 87 83 72 69 72 73 90 97
35 34 44 39 47 41 51 46 44 41 41 36 34 28 30 30 29 20 28 26 24 16 17 35 34 34 33 35 44 59 66 71 75 81 82 88 96 79 74 70 71 87 98 100
38 37 37 38 40 39 45 43 44 43 44 46 48 36 30 31 29 31 30 28 27 23 15 16 30 37 40 40 48 56 61 62 61 45 33 48 63 70 72 78 89 99 99 97
40 39 36 38 40 36 41 39 38 40 35 36 49 36 30 30 30 31 34 30 29 30 27 15 14 19 21 23 23 23 23 24 30 42 52 49 49 57 72 84 98 98 100 99
30 33 35 33 28 30 42 40 38 37 40 34 37 31 33 37 38 37 36 34 32 32 32 28 24 26 27 29 32 35 41 54 53 50 47 45 49 55 61 72 81 92 97 100
36 38 38 32 29 27 28 28 35 35 36 33 35 32 35 34 37 38 29 33 34 32 30 33 30 28 31 31 36 45 50 44 42 41 40 43 55 63 72 90 94 88 99 94
37 39 41 39 35 34 32 32 32 35 32 39 38 35 41 43 42 37 34 31 32 30 31 31 31 30 31 33 41 46 52 53 54 62 62 69 78 82 94 94 55 55 65 87
46 41 46 38 40 42 47 32 37 36 37 34 36 38 38 37 33 33 32 31 35 34 33 32 31 34 35 38 44 52 54 45 28 27 29 35 43 48 50 55 62 81 99 90
65 48 50 40 44 75 35 36 32 37 38 40 38 37 39 38 38 32 38 37 34 32 31 33 35 39 44 45 41 33 29 27 24 27 37 48 55 59 66 65 73 79 76 99
56 67 54 52 52 39 40 36 32 32 37 38 40 39 41 34 22 26 32 35 36 37 36 41 42 40 36 32 32 29 24 24 30 39 46 51 55 60 62 66 70 64 74 89
46 59 70 54 52 74 38 42 36 36 38 37 33 25 35 32 31 41 28 34 41 42 45 41 35 33 34 32 27 24 28 35 41 43 42 47 53 58 59 64 61 72 84 86
63 62 72 68 63 49 43 40 38 42 28 36 36 36 33 36 34 32 36 40 46 46 40 34 36 37 33 27 28 33 39 42 44 47 55 65 66 57 58 60 64 57 37 15
61 60 60 72 72 66 43 42 41 32 37 37 40 28 32 35 32 36 39 44 47 37 36 40 40 34 31 33 39 44 48 53 55 60 72 69 55 55 55 48 27 15 10 8
61 63 62 52 52 42 37 34 36 38 41 39 43 32 37 39 34 35 41 45 37 39 44 44 37 36 39 45 52 59 63 62 60 75 64 56 54 48 32 20 13 11 12 13
35 42 57 67 54 46 40 38 39 41 40 44 47 35 40 38 36 40 43 39 42 49 46 40 43 49 53 58 63 68 66 68 78 72 59 53 44 29 19 14 16 16 15 16
21 24 25 53 60 52 46 42 40 41 44 46 44 41 40 37 37 44 43 43 53 50 50 52 58 68 70 72 74 75 85 90 84 67 57 42 28 18 18 19 18 17 19 24
37 35 53 45 31 51 56 46 48 50 47 45 39 38 40 41 42 46 47 54 56 54 59 65 71 81 84 82 89 99 98 91 75 62 39 26 20 21 22 19 18 22 27 24

GFSCGP_700_rhum_057.txt.gz
RH
42 37 31 24 25 26 26 25 23 42 45 37 32 29 32 55 63 67 84 58 39 53 60 52 39 40 42 32 22 19 18 18 27 44 44 40 36 38 40 46 51 58 67 81
39 38 30 32 36 33 27 26 23 24 30 32 30 31 40 37 56 62 73 42 33 91 41 31 40 40 40 34 28 22 19 17 15 15 20 27 32 38 42 48 52 68 69 83
36 31 35 40 37 36 32 29 25 26 34 33 29 27 34 30 48 56 64 72 65 32 25 22 36 46 46 46 44 39 36 36 37 44 38 35 35 36 42 48 57 62 85 84
35 32 39 37 38 36 31 29 29 33 29 25 36 27 37 30 36 52 57 60 73 41 25 24 31 40 45 44 48 52 52 54 58 63 75 70 66 66 69 74 77 83 88 99
32 32 40 39 36 36 31 40 35 31 29 27 30 24 29 26 24 30 44 55 62 69 27 27 28 32 36 42 41 44 48 50 55 58 63 67 72 75 78 80 83 89 93 96
32 34 35 34 38 41 35 40 36 37 32 30 26 30 29 37 23 28 28 43 55 64 67 33 29 30 33 39 43 47 49 51 56 56 57 63 67 74 77 80 82 87 93 99
34 36 38 40 39 42 41 35 37 45 34 33 30 28 24 36 26 26 30 31 41 55 68 69 72 33 31 33 36 40 44 47 51 56 61 66 72 78 85 96 88 93 98 90
33 28 36 38 34 34 40 34 37 51 46 33 38 27 24 27 29 28 30 37 40 43 57 68 72 57 35 41 41 44 51 55 59 64 78 80 85 86 88 80 76 87 91 95
27 28 28 31 34 30 31 38 33 38 44 40 29 25 26 27 29 30 32 39 43 29 45 58 71 74 49 43 50 54 57 64 70 74 81 86 83 96 91 92 93 89 91 87
27 28 29 32 35 36 37 43 38 37 51 48 25 23 22 26 25 26 28 33 46 36 43 53 62 75 84 78 52 53 60 66 82 86 91 90 89 90 91 89 90 90 84 77
30 30 32 40 41 35 41 42 39 36 34 47 38 23 26 25 26 26 28 33 36 31 22 32 36 59 79 91 94 44 48 61 70 79 76 81 79 82 95 92 67 70 73 73
32 32 36 41 32 32 42 38 37 38 39 40 35 39 33 28 28 32 32 33 38 22 20 12 17 34 37 42 52 40 38 51 68 68 72 75 78 65 59 66 73 80 83 90
35 32 34 32 37 40 36 41 39 39 39 53 67 38 33 30 32 31 32 34 35 27 26 24 15 24 39 42 43 45 51 59 66 68 65 44 36 54 55 57 61 66 81 89
38 33 35 33 29 32 34 35 34 36 40 39 34 29 31 29 32 32 34 36 38 41 40 37 23 13 18 21 22 23 25 26 28 28 38 51 55 51 48 51 53 67 79 94
44 36 33 31 29 27 25 30 31 33 32 33 32 31 29 30 30 30 34 40 33 36 41 51 54 25 25 26 28 28 29 32 37 44 44 46 46 46 44 49 73 88 86 99
45 43 36 31 31 28 26 23 23 24 25 27 28 27 28 27 30 36 41 38 32 29 33 34 48 34 31 30 30 31 36 42 47 51 55 56 60 57 57 75 76 91 95 65
48 47 38 39 34 30 31 29 27 25 26 27 28 28 29 31 31 37 39 47 35 32 30 33 33 32 32 34 42 48 52 50 54 57 64 48 29 31 36 46 52 57 57 60
69 56 43 46 44 62 38 34 32 31 30 28 29 30 31 29 29 36 39 47 34 34 32 32 34 33 32 34 37 46 52 53 44 32 28 25 26 34 39 43 47 48 50 53
75 74 61 57 51 40 33 37 36 32 30 29 31 32 31 31 36 35 35 29 23 38 39 34 34 34 38 47 50 44 34 31 29 24 23 27 32 38 37 38 43 50 55 46
73 79 78 71 56 57 37 38 36 34 36 33 31 32 34 35 28 32 38 36 32 30 35 38 40 43 44 38 34 33 32 27 24 25 30 34 34 36 43 49 48 40 36 37
94 88 95 78 60 44 37 37 33 43 29 33 32 34 37 43 35 34 39 34 33 32 39 46 47 39 34 34 35 33 29 26 28 32 35 37 38 43 50 46 40 37 36 29
82 83 87 79 67 67 43 43 41 31 37 42 41 39 41 39 40 26 33 31 33 36 46 50 40 35 36 38 36 31 30 33 37 40 43 45 48 54 50 44 41 34 24 16
61 66 72 60 58 54 53 41 41 41 42 44 44 45 40 43 41 33 34 32 35 41 49 47 38 38 41 38 33 34 36 41 46 50 54 56 61 56 50 44 32 24 18 21
60 63 62 60 59 57 60 50 43 45 46 41 41 44 44 47 42 35 37 34 36 42 48 41 38 44 41 37 40 43 48 55 62 65 66 70 65 57 47 34 24 21 24 23
49 47 43 50 47 52 57 44 45 49 46 46 45 48 46 42 38 36 38 36 39 43 42 39 47 46 44 45 52 62 66 70 71 75 80 76 64 52 37 27 25 28 25 19
43 44 51 50 36 29 17 40 56 58 56 49 49 48 46 43 36 37 37 37 41 42 40 47 51 50 52 60 70 78 82 82 85 87 87 74 59 40 29 28 31 25 21 24

GFSCGP_700_rhum_060.txt.gz
RH
40 40 36 32 27 27 26 25 24 40 34 27 34 29 40 42 65 60 66 45 33 67 41 65 35 25 20 22 28 34 55 57 63 68 69 68 69 55 53 58 57 54 64 75
41 41 35 31 27 31 30 21 20 24 36 39 29 26 30 37 56 55 64 59 45 77 50 58 41 32 24 21 19 17 19 34 63 61 57 43 45 46 46 46 45 49 63 72
40 35 36 30 31 32 28 26 23 25 37 32 29 26 26 33 46 48 60 67 47 88 37 28 35 40 38 31 29 30 26 16 18 22 35 38 43 43 41 40 42 47 69 75
36 34 34 34 35 30 31 28 27 24 32 24 32 30 35 35 37 45 53 61 57 38 30 19 27 40 38 41 45 45 47 48 48 47 34 29 36 40 46 45 48 59 60 61
35 33 32 35 31 32 31 34 35 31 27 26 26 37 40 34 36 38 48 54 65 50 24 24 26 34 41 41 41 48 50 48 52 54 58 79 89 67 63 69 73 72 81 85
34 32 30 29 35 32 33 33 35 34 30 34 27 32 26 34 35 29 35 48 53 63 50 25 27 30 34 40 40 41 42 45 47 46 55 68 93 81 71 75 77 79 92 86
34 32 29 32 32 36 37 34 36 56 47 42 26 24 26 33 35 32 31 35 42 53 60 52 26 27 28 30 33 36 41 40 43 47 56 60 67 68 69 70 75 96 74 84
35 33 30 34 35 34 37 35 37 49 79 53 43 31 24 30 31 30 28 28 35 41 56 64 67 44 30 29 30 34 36 41 44 49 57 61 66 61 83 86 96 95 87 81
34 33 31 33 35 33 31 39 33 34 48 66 49 37 28 28 27 28 29 32 37 40 44 53 67 72 70 47 32 35 39 44 49 52 58 66 75 83 78 85 94 96 95 86
33 33 30 26 31 33 30 27 38 34 58 55 30 23 37 29 26 25 26 34 44 44 45 44 52 67 73 75 59 43 46 49 53 56 68 75 78 98 95 93 97 85 82 68
33 33 28 26 29 29 30 31 40 40 36 47 53 42 42 31 24 25 28 31 35 47 42 45 49 58 69 76 85 73 56 55 57 62 69 74 87 90 93 82 75 78 72 74
33 32 32 34 31 34 31 34 36 40 40 44 43 42 31 32 31 29 32 29 36 44 40 19 16 45 68 74 84 94 92 67 60 80 69 74 78 80 76 77 57 62 63 61
36 34 35 31 35 35 33 37 43 35 34 40 68 50 33 32 30 31 30 31 34 32 47 23 21 16 33 75 90 100 100 73 74 63 71 70 69 67 58 44 55 54 54 53
34 35 37 40 49 36 34 32 39 46 44 45 55 45 40 31 34 31 31 33 33 37 47 52 32 24 20 25 56 73 70 58 45 45 50 60 52 43 53 56 52 50 48 56
40 44 39 34 31 31 33 32 31 29 46 50 46 33 31 28 31 32 36 35 42 37 46 51 59 34 27 16 14 17 22 24 29 39 39 46 54 51 49 49 52 53 60 82
43 44 41 41 33 32 38 36 28 28 27 29 30 30 27 26 30 27 37 39 42 39 33 51 62 72 47 31 29 29 35 34 35 36 48 56 51 50 55 63 70 50 38 39
52 48 45 47 39 34 32 29 27 25 27 26 27 26 25 26 28 31 30 38 41 44 44 32 58 88 89 44 36 32 31 38 42 44 62 54 53 61 66 40 27 27 35 45
47 50 47 50 43 57 38 35 29 26 26 24 24 24 26 26 27 29 32 34 39 44 39 31 33 45 56 45 38 34 45 46 49 52 55 58 54 35 27 24 28 34 35 36
61 74 64 63 54 47 42 38 34 31 30 29 28 26 25 27 32 32 31 32 34 36 34 30 25 34 34 34 35 37 43 48 54 57 45 32 28 24 26 31 31 31 34 42
78 87 88 70 61 66 55 39 34 34 35 31 29 28 28 30 34 34 35 28 23 31 33 29 26 39 38 36 39 46 56 51 37 32 31 26 25 28 30 30 33 37 45 46
79 96 98 91 86 60 46 38 36 37 36 32 33 32 32 32 35 36 34 30 21 36 37 30 28 32 38 43 47 47 39 34 34 32 28 27 29 32 35 36 38 44 46 42
48 61 95 86 92 88 48 39 37 37 33 36 35 39 36 36 40 37 41 42 25 30 31 29 30 36 47 48 42 36 35 36 36 30 28 30 35 39 43 45 47 48 46 40
57 56 48 76 77 62 53 47 44 39 41 40 48 57 44 44 42 39 43 46 33 32 32 34 37 43 50 44 36 36 39 39 33 30 33 40 46 51 54 56 55 51 44 35
48 48 52 60 57 58 86 65 55 51 49 45 52 54 50 50 46 45 47 39 31 35 37 36 42 48 49 41 38 40 43 37 35 39 45 52 58 65 68 66 59 50 36 25
38 54 66 74 69 62 57 61 64 52 58 50 47 47 47 54 49 48 46 38 32 38 38 39 46 52 49 41 40 45 42 42 47 54 61 69 76 80 81 72 59 40 28 29
44 44 56 58 44 47 42 28 34 35 42 36 48 46 52 52 48 46 44 41 35 38 39 42 51 54 50 41 46 48 49 55 62 71 77 87 91 90 87 72 50 33 30 35

GFSCGP_700_rhum_063.txt.gz
RH
28 31 24 14 13 16 29 30 29 23 30 37 35 37 43 44 38 38 49 64 56 40 53 43 27 21 16 13 32 34 34 50 50 49 57 52 52 59 64 65 60 60 57 54
46 36 17 17 28 32 34 32 28 21 37 39 37 30 36 44 38 36 50 66 61 26 26 28 31 25 21 18 18 16 35 34 42 54 57 53 46 48 52 57 59 59 54 56
44 14 27 28 31 32 32 32 27 26 29 30 34 33 44 42 47 56 59 64 60 26 21 14 31 36 34 35 32 28 20 25 40 54 48 48 55 54 48 48 50 47 48 53
48 36 35 39 38 33 33 31 32 33 30 31 30 36 32 35 35 48 56 60 58 46 27 17 22 36 34 40 41 44 39 25 28 27 30 32 38 38 37 38 40 42 45 52
39 41 40 36 35 35 32 31 34 34 35 30 26 30 33 34 36 44 48 57 59 56 51 23 23 31 36 34 38 42 43 45 44 44 41 45 42 39 41 44 44 53 62 53
41 35 34 35 33 33 32 32 34 34 36 42 30 32 33 32 34 36 47 49 48 38 56 40 25 28 30 34 35 35 36 41 43 44 42 45 48 58 62 67 71 74 77 90
41 39 36 34 31 30 34 33 43 55 58 60 41 46 35 29 31 32 34 40 45 42 50 47 34 25 25 26 30 32 34 36 40 44 44 48 54 58 63 72 73 71 74 77
46 43 37 33 30 31 32 36 42 57 80 65 46 48 34 31 28 29 32 35 34 46 47 44 40 43 27 27 28 32 32 34 38 40 43 48 57 61 66 73 75 82 70 87
42 42 37 33 32 31 36 36 34 37 53 61 46 35 37 32 30 30 28 28 35 42 42 44 46 49 51 51 29 28 31 33 38 42 44 48 63 64 67 70 80 85 88 97
39 38 36 35 30 35 35 35 38 41 70 77 48 45 39 41 31 28 30 32 37 44 45 47 50 50 49 47 54 45 32 33 38 41 46 51 58 67 72 83 78 98 98 81
38 37 35 33 33 31 35 34 31 33 42 66 64 46 38 41 34 29 26 31 37 40 41 48 48 48 52 52 59 53 68 42 41 44 46 52 56 69 86 96 99 81 75 63
36 36 36 35 34 31 34 33 30 33 47 46 47 45 36 36 33 26 26 27 28 33 27 30 51 53 60 58 65 61 63 70 64 62 63 74 70 94 89 100 91 95 74 72
36 35 39 38 35 34 31 31 31 32 32 45 56 50 41 38 35 34 30 31 30 31 34 24 19 38 58 59 75 76 74 87 58 94 91 85 75 72 90 82 64 62 59 51
36 33 34 44 42 38 34 32 34 35 42 46 44 38 38 40 39 34 31 30 30 33 34 32 23 22 24 53 69 88 96 68 56 66 70 65 67 66 63 54 51 56 47 46
44 36 34 37 37 39 40 41 35 34 35 46 44 56 41 35 35 37 33 34 32 34 37 38 37 31 27 25 30 54 45 47 54 59 47 40 43 43 44 49 45 45 51 57
43 43 39 39 39 37 42 40 37 34 35 32 39 44 39 29 32 31 32 32 34 36 38 41 42 41 26 26 34 25 24 32 36 36 39 41 41 42 46 50 51 53 62 65
71 47 43 47 43 41 43 38 36 39 37 33 42 39 34 33 30 29 29 31 35 38 39 39 50 55 55 34 29 40 35 33 34 34 37 40 42 55 58 53 56 65 42 25
93 60 47 48 42 60 43 39 36 35 34 31 30 29 26 27 26 26 27 30 38 40 39 38 39 36 33 36 32 42 41 37 39 38 38 46 52 58 58 60 46 29 23 24
97 72 58 54 53 47 44 41 36 35 34 32 28 26 27 26 26 26 29 32 32 36 39 40 40 39 37 34 31 31 32 35 40 48 54 56 60 65 56 35 28 23 26 29
95 83 54 76 73 68 53 42 39 40 37 32 30 30 31 29 28 29 30 34 32 32 30 22 22 36 39 31 24 37 42 37 36 42 54 63 54 37 32 28 25 29 32 34
94 86 83 90 99 66 54 39 39 46 44 35 31 32 32 32 33 33 32 34 33 27 27 20 22 38 36 26 27 40 42 39 42 55 49 36 34 33 28 28 32 35 38 42
46 45 55 72 99 94 53 47 45 54 46 39 39 37 37 38 36 37 36 36 33 32 33 34 23 30 31 29 29 37 45 48 48 38 35 36 36 30 30 34 38 41 45 50
45 35 35 42 56 56 55 60 55 52 56 56 47 44 39 47 46 40 36 39 41 44 41 29 25 32 32 33 34 45 49 44 37 36 39 38 33 32 35 40 47 52 59 62
33 40 44 44 39 38 38 61 64 61 69 66 60 45 48 51 52 51 50 47 45 43 41 28 31 36 36 38 45 53 46 39 37 40 40 38 37 42 50 54 62 72 76 71
29 33 50 58 59 64 70 62 72 67 72 61 60 56 52 53 52 52 51 52 50 48 43 28 29 37 40 44 53 54 46 40 39 42 43 44 48 53 62 72 83 90 87 76
37 27 46 44 56 89 72 76 61 60 60 45 34 31 43 43 50 52 46 51 49 52 50 42 37 40 43 47 54 55 51 44 43 46 48 52 61 71 80 92 98 98 92 67

GFSCGP_700_rhum_066.txt.gz
RH
22 20 23 16 15 14 19 22 31 34 30 26 35 35 34 38 40 48 46 32 21 33 56 29 22 19 16 21 29 47 93 99 97 82 91 98 100 100 100 100 89 79 68 64
44 27 18 14 15 15 20 33 33 34 29 38 34 31 36 33 38 43 45 35 34 22 38 34 25 24 22 20 21 27 41 57 55 50 62 95 91 82 75 80 72 64 59 61
39 30 25 19 15 20 30 35 34 33 28 31 30 29 31 33 40 50 46 51 46 36 30 21 30 30 33 31 26 22 24 27 35 39 40 46 51 54 53 62 59 59 62 62
50 29 34 36 26 29 38 33 34 32 35 35 33 36 31 33 36 49 51 49 37 40 35 24 29 31 36 36 31 33 31 24 25 27 31 33 34 35 38 47 57 57 57 60
44 29 31 35 33 36 38 37 34 32 35 34 35 33 28 31 38 40 44 51 49 47 50 32 19 32 33 38 35 34 37 38 37 36 32 32 35 37 39 46 47 47 48 45
35 29 39 34 31 36 36 37 32 33 36 45 35 37 34 31 30 33 38 48 48 45 48 46 26 27 34 31 35 34 33 37 38 41 41 40 41 42 44 43 43 45 48 48
36 42 37 39 37 35 36 35 40 51 51 58 35 46 41 33 26 31 31 40 44 39 42 43 36 25 30 28 26 29 32 35 35 37 41 46 48 50 54 56 60 66 72 72
42 44 38 37 41 36 35 31 40 56 71 55 43 50 36 34 31 31 33 36 40 40 43 40 41 44 29 26 26 29 30 33 36 38 42 45 50 53 57 63 69 74 77 76
45 48 33 34 38 36 34 34 32 35 60 66 45 39 35 34 33 34 35 34 37 39 45 44 42 44 52 56 38 28 29 31 34 36 41 42 45 51 59 68 73 76 78 83
43 46 38 35 36 35 34 31 39 43 63 70 53 46 42 37 32 31 33 31 30 30 38 43 42 45 47 51 52 57 49 31 32 35 38 42 47 53 60 69 79 88 94 98
43 42 39 37 36 38 33 34 36 36 45 73 73 46 34 34 33 29 28 30 32 34 34 42 46 48 50 55 52 55 53 54 52 39 37 48 55 56 64 80 94 100 100 98
44 42 44 36 38 36 36 32 33 38 49 48 47 48 40 35 36 33 30 27 27 29 32 28 38 46 48 53 62 59 62 59 56 60 76 66 72 72 73 83 96 99 64 73
51 45 46 41 37 36 38 35 34 34 33 36 55 52 44 36 37 33 30 30 29 29 30 30 31 27 43 45 51 63 66 60 67 79 62 68 77 99 95 82 85 77 73 60
72 67 46 46 39 36 35 35 36 34 36 34 34 32 37 42 37 32 32 36 32 31 31 31 33 26 22 26 36 49 50 47 60 78 55 50 65 81 86 71 68 64 61 58
84 86 59 42 38 36 36 36 37 36 33 34 37 39 41 40 40 38 39 37 37 31 32 33 34 35 31 24 23 24 30 45 47 56 54 45 55 57 63 69 53 54 57 57
92 92 62 51 40 37 36 44 40 37 34 35 36 34 34 38 38 40 39 36 34 36 35 35 36 37 36 32 27 32 33 35 48 62 61 44 44 51 63 51 50 59 60 60
81 99 90 79 58 44 44 39 42 42 44 41 41 38 37 34 33 34 37 37 34 32 32 34 36 32 34 34 33 33 33 36 37 43 43 45 45 48 47 50 54 65 66 67
76 94 98 98 76 69 52 46 46 42 41 40 41 39 33 32 32 34 32 32 31 30 31 34 37 38 36 35 35 33 34 34 41 47 42 44 46 51 45 50 60 70 68 63
60 78 94 99 68 60 58 51 44 42 39 36 37 41 34 33 29 27 28 29 28 30 31 33 37 38 39 38 41 39 39 41 37 37 38 46 53 52 51 61 68 75 43 29
100 90 86 86 98 70 55 49 42 44 42 36 36 42 38 32 30 28 26 27 28 32 37 40 42 40 42 43 43 44 51 44 30 35 47 48 44 57 64 72 72 33 31 28
76 82 97 94 96 72 58 50 46 46 47 42 40 43 43 40 35 31 30 32 32 32 34 35 32 27 27 21 30 40 41 36 36 50 59 45 46 62 72 45 32 32 28 28
62 77 79 87 96 89 57 53 56 54 51 45 40 45 44 44 42 36 33 36 36 36 35 34 32 28 30 25 23 33 35 34 36 47 47 55 58 51 35 34 35 31 31 38
66 53 48 51 45 39 31 52 64 71 67 52 46 46 48 57 48 42 40 38 38 39 40 41 40 37 32 17 22 30 32 33 34 45 55 54 41 35 37 38 35 34 40 48
52 46 47 48 39 34 37 40 50 71 87 75 63 54 56 58 67 54 46 46 48 52 50 45 46 45 30 19 26 34 36 40 50 56 50 40 36 38 40 39 41 49 57 64
44 46 43 33 35 44 42 43 54 62 76 74 96 78 66 68 67 59 55 51 50 49 52 53 52 47 39 26 28 36 40 48 55 54 48 41 39 42 47 51 60 69 79 86
61 61 55 47 46 42 50 47 55 66 58 69 48 73 79 69 55 59 54 50 48 48 48 56 54 53 49 40 32 34 41 53 62 59 54 48 48 54 62 72 84 96 100 99

GFSCGP_700_rhum_069.txt.gz
RH
25 26 22 19 17 17 19 23 23 22 34 33 31 34 31 34 32 37 39 42 28 36 27 28 21 23 18 21 31 78 97 100 99 98 100 100 100 100 100 99 99 99 99 98
36 28 23 21 22 22 26 29 17 22 32 35 35 36 32 32 32 34 40 36 32 37 23 24 19 26 24 21 25 38 66 84 85 100 100 100 100 100 100 99 99 90 90 88
27 25 25 25 22 19 22 24 16 32 34 35 36 35 32 29 31 34 41 40 36 27 26 17 22 29 32 28 24 24 30 38 55 72 76 97 98 99 99 98 97 97 95 93
38 25 31 35 33 27 22 15 28 37 40 36 37 40 34 28 29 34 37 38 40 23 24 19 20 27 35 33 30 27 25 31 34 38 44 56 76 98 100 100 99 95 80 79
35 24 28 39 23 34 21 24 37 38 40 39 37 38 35 32 27 30 37 36 38 42 36 27 23 29 33 36 33 34 33 27 29 29 31 36 43 58 66 64 59 61 67 67
33 28 35 30 30 31 31 38 38 40 40 47 36 37 36 32 30 29 31 34 36 41 46 41 45 24 32 31 35 29 31 36 36 36 35 34 35 38 43 44 45 53 59 60
44 31 38 38 38 39 42 43 48 54 51 50 35 41 37 30 29 27 25 29 32 34 41 46 29 22 25 26 28 28 25 29 32 35 36 41 42 41 42 42 47 52 50 48
44 40 28 34 37 36 39 41 46 57 67 51 36 52 36 35 37 40 36 29 32 34 39 40 38 25 23 24 26 24 24 26 30 32 34 39 45 46 47 48 50 48 47 48
40 39 25 25 32 39 37 43 38 38 54 66 43 40 36 25 29 30 31 30 34 35 36 35 42 43 43 45 36 27 26 28 28 30 34 36 42 46 51 56 62 67 70 75
39 48 40 37 39 36 40 36 40 45 65 72 54 50 42 25 38 36 31 28 34 34 35 38 41 43 43 45 54 52 38 32 33 34 37 40 45 49 54 66 73 80 84 85
33 42 42 36 40 42 39 40 40 36 38 67 75 50 35 35 35 35 31 32 30 30 29 29 35 40 44 48 50 58 53 52 40 40 44 46 49 52 57 62 66 70 77 87
49 48 47 43 37 38 38 38 38 38 50 48 48 49 35 37 34 39 30 28 28 29 31 28 32 35 42 48 49 54 58 54 62 59 61 64 67 68 62 61 64 71 80 89
80 62 55 50 46 44 43 42 40 36 36 39 55 46 39 36 37 35 36 34 30 28 29 29 31 31 32 29 39 47 50 59 56 61 68 78 75 62 61 66 94 96 90 87
78 85 88 69 50 43 40 37 40 38 38 41 40 38 37 35 30 36 36 33 32 33 31 31 32 32 33 29 21 23 24 33 48 55 60 71 66 65 70 82 100 90 71 94
86 81 84 79 73 58 49 38 37 38 38 38 39 37 32 33 31 30 39 34 38 35 33 35 34 32 35 36 35 28 24 24 40 47 53 60 64 62 70 65 68 72 68 72
66 74 87 90 70 59 54 43 38 37 37 40 40 38 33 32 32 34 37 39 37 38 36 34 33 34 33 36 34 34 31 32 28 34 42 51 64 63 52 51 54 58 55 54
78 71 78 98 77 78 62 48 43 39 39 42 44 40 36 35 34 35 36 36 40 38 36 37 35 34 34 36 35 32 29 30 31 32 42 52 54 56 52 50 50 50 51 54
94 76 77 73 73 96 68 59 49 43 39 37 45 44 43 39 36 35 34 31 34 38 36 36 32 31 33 35 35 36 38 39 37 39 44 54 55 54 50 47 48 49 50 57
75 85 82 77 72 51 46 64 56 52 45 41 41 42 47 39 38 34 32 31 30 34 34 35 32 30 33 35 37 40 40 42 46 49 59 61 63 58 51 54 55 55 59 69
74 82 98 100 94 86 26 33 49 64 52 42 40 41 51 41 40 39 35 31 29 29 28 30 31 32 36 39 42 41 40 45 48 58 51 52 48 57 69 76 76 80 78 78
100 100 89 100 95 77 50 33 44 90 67 50 47 45 49 51 44 45 40 36 32 28 26 28 33 40 42 43 34 27 26 23 33 54 60 46 40 54 72 66 82 93 87 81
69 71 97 99 99 82 65 70 60 90 66 52 49 50 50 47 45 45 44 38 34 32 32 35 40 43 35 31 30 29 28 24 32 48 47 41 44 53 56 73 98 95 56 41
74 75 65 67 56 46 42 45 49 79 98 64 51 55 56 56 52 48 44 42 37 38 36 37 38 39 39 38 37 28 19 28 41 46 46 45 48 56 76 84 59 45 46 48
59 49 44 45 44 48 38 37 44 48 56 53 70 61 69 69 56 50 45 46 42 40 43 46 49 49 47 47 45 32 23 29 40 44 47 48 57 77 69 52 48 48 52 55
65 56 61 54 40 31 32 30 30 45 50 69 57 66 83 77 69 61 52 53 54 60 60 59 57 55 55 53 51 46 34 31 38 42 48 57 67 70 59 58 57 60 64 68
60 62 78 86 73 62 53 40 48 54 56 62 56 70 60 64 75 73 67 62 63 60 63 63 59 61 55 57 58 55 53 46 41 45 54 66 70 69 68 69 68 72 80 88

GFSCGP_700_rhum_072.txt.gz
RH
22 30 24 24 24 22 22 20 18 17 27 25 33 31 30 33 34 33 32 36 43 40 40 39 34 24 24 23 38 72 93 98 100 98 95 100 98 99 99 100 99 99 98 98
28 32 23 24 29 26 24 21 18 13 17 24 34 33 29 30 31 32 32 33 39 31 42 43 26 25 28 24 30 59 74 84 97 100 100 99 100 100 100 99 99 100 99 97
14 24 23 27 30 28 26 24 20 15 15 30 36 35 34 32 30 30 31 33 36 25 34 36 18 28 31 29 26 31 53 63 82 97 99 100 100 99 100 99 99 98 98 96
23 17 26 32 30 30 28 25 20 14 23 37 39 48 38 35 32 31 30 32 35 41 30 24 18 28 33 32 30 28 28 30 31 44 74 96 98 98 98 99 99 100 99 96
37 26 22 41 29 40 31 29 23 18 32 42 43 45 39 35 34 29 26 28 33 39 33 28 30 23 30 34 30 32 31 30 28 29 37 56 74 84 92 98 100 99 94 90
39 32 35 31 28 39 32 38 39 46 47 60 44 42 36 33 30 24 19 23 28 29 43 45 34 26 27 29 31 30 32 32 33 33 33 34 35 43 54 60 71 72 82 89
48 40 37 42 40 46 42 48 53 58 64 64 37 40 36 30 22 34 32 23 23 25 29 46 51 35 21 25 29 29 28 29 32 35 38 39 36 36 36 41 46 48 51 54
41 43 37 35 34 42 44 48 52 60 69 51 43 48 33 29 28 36 32 28 23 28 31 37 46 38 22 22 25 27 25 27 29 34 37 41 42 43 40 41 43 47 49 51
38 43 31 30 26 28 43 51 42 44 57 66 43 38 36 32 24 25 29 29 31 29 32 36 41 42 36 31 30 26 27 27 29 33 36 39 43 44 45 46 46 46 49 52
36 43 39 33 37 32 33 37 43 49 61 69 56 52 36 30 35 34 35 32 30 29 34 32 35 40 43 42 46 50 47 32 34 36 37 40 43 46 48 46 45 47 49 51
37 43 35 36 44 43 44 47 45 45 44 60 62 46 35 31 38 38 35 33 30 29 29 30 33 38 41 45 47 50 56 53 45 37 38 39 42 46 49 50 54 59 72 80
55 42 42 33 38 41 48 43 40 47 49 52 49 44 36 34 36 34 37 31 32 31 30 31 31 31 36 41 44 49 53 57 61 58 54 45 46 50 51 48 53 60 68 77
81 74 66 53 49 49 45 39 44 45 43 44 56 47 39 37 33 28 36 37 32 29 29 27 29 30 32 30 27 32 44 49 53 61 62 61 60 64 68 60 65 55 64 82
82 89 93 88 83 82 74 56 44 39 46 47 43 43 39 38 37 32 30 31 37 36 32 30 30 31 32 33 35 25 21 27 40 46 50 57 63 66 64 68 71 65 73 94
33 73 85 96 96 83 76 66 48 49 42 41 43 41 39 36 35 33 30 32 30 35 33 31 30 32 32 33 35 36 33 23 23 23 42 45 54 65 66 67 69 79 77 85
79 56 50 56 64 69 87 73 62 55 48 47 42 40 38 38 35 34 33 32 33 38 35 38 36 34 33 34 34 35 31 28 32 33 29 35 45 54 61 62 56 61 71 69
96 92 72 68 55 59 66 70 64 62 56 49 46 43 42 39 36 36 36 34 33 34 39 40 38 37 35 34 35 34 35 30 32 30 31 35 41 50 56 64 60 59 60 63
62 97 97 75 67 91 50 42 62 62 62 54 53 47 40 39 40 43 40 37 34 35 35 36 40 37 37 31 33 36 37 35 38 39 40 41 40 39 56 58 61 60 60 61
95 99 98 88 75 44 31 27 25 45 57 52 54 50 47 44 39 43 42 39 34 32 31 32 36 36 35 32 31 33 37 37 41 41 44 52 55 44 47 58 58 56 64 64
91 98 88 93 98 90 35 36 35 42 30 26 40 50 50 49 42 43 42 40 38 34 30 30 33 34 34 34 32 32 38 40 44 41 50 61 55 51 51 53 63 73 67 65
90 92 98 99 95 80 51 41 40 65 35 40 60 58 51 47 46 42 44 42 42 38 32 31 30 28 30 31 34 36 41 46 43 34 39 59 70 85 74 52 51 73 80 75
83 84 97 98 95 91 52 50 69 60 73 81 56 66 65 60 55 48 48 47 44 42 40 34 31 28 28 33 39 41 45 37 30 30 36 59 57 61 54 46 43 57 57 92
66 63 55 58 51 48 54 49 57 51 49 58 51 63 91 87 68 60 52 49 47 44 41 40 40 42 42 42 42 36 34 34 30 22 26 38 47 44 39 58 71 75 99 100
70 71 79 76 64 53 39 46 39 36 34 44 48 37 61 69 77 67 61 54 52 46 43 44 46 50 63 58 46 45 46 44 40 35 33 37 42 46 52 56 66 96 100 100
73 74 61 57 54 51 43 42 44 42 29 40 70 57 63 73 68 75 74 74 60 57 51 54 58 60 59 67 60 56 60 60 56 49 42 41 46 48 54 65 93 100 100 88
78 69 64 61 63 68 63 69 71 58 56 70 69 70 58 67 72 45 81 82 80 81 68 64 64 67 73 81 81 71 70 72 75 64 64 61 57 69 84 99 100 100 97 98

GFSCGP_700_rhum_075.txt.gz
RH
16 32 32 25 27 28 26 26 21 16 17 16 21 27 32 27 33 32 33 35 40 46 40 34 29 25 27 25 30 70 99 90 97 98 99 100 100 100 100 100 97 93 97 98
29 32 20 28 30 29 26 30 26 20 18 18 20 23 32 28 31 29 30 31 35 40 31 34 23 24 29 26 29 69 91 90 87 97 90 100 99 100 100 100 99 99 98 99
20 27 22 28 29 28 25 30 30 23 22 20 18 25 33 31 26 30 30 30 33 37 29 31 24 25 31 28 27 44 72 79 81 80 95 96 100 99 100 100 99 98 98 99
36 24 29 27 27 29 29 28 30 25 34 29 31 34 35 30 24 26 25 29 33 35 40 27 21 26 32 28 26 28 36 55 68 78 99 99 98 98 99 98 99 99 99 97
40 30 24 36 34 38 31 33 31 30 30 34 35 42 38 37 26 20 25 28 28 33 40 33 25 19 28 30 25 28 28 29 32 42 63 87 100 100 100 100 100 100 99 100
45 38 35 28 25 28 38 38 43 41 47 54 45 45 39 34 26 20 21 28 24 29 36 41 38 26 21 26 21 25 28 30 30 31 37 56 79 95 85 86 98 99 100 100
34 31 34 39 39 40 45 48 47 58 60 48 37 45 38 34 28 29 35 33 27 24 28 30 42 48 29 24 25 22 26 28 31 33 32 34 40 64 73 85 91 97 100 100
38 46 36 42 39 36 38 47 49 45 57 44 47 47 36 30 30 26 24 25 32 22 24 28 38 49 47 23 26 25 23 27 29 30 32 33 34 35 37 47 59 69 70 66
28 37 26 38 37 35 50 64 44 44 56 60 46 41 37 34 30 35 32 31 29 29 31 30 34 43 39 21 23 25 27 25 28 32 33 34 37 40 41 40 40 42 47 56
35 37 40 36 46 49 43 39 54 55 52 50 47 52 38 29 30 39 32 35 32 31 31 32 36 36 38 36 37 41 37 30 30 31 32 35 36 40 43 46 47 47 46 46
40 43 43 45 44 42 54 48 44 45 44 44 45 45 35 30 35 37 36 35 32 32 35 34 32 30 37 44 46 48 50 52 48 36 32 34 36 38 42 45 47 50 52 54
56 44 41 42 44 48 46 46 44 50 51 56 51 44 36 34 35 34 33 32 32 33 31 30 31 33 37 41 45 47 50 52 56 53 50 48 41 41 43 46 48 50 52 50
80 70 56 48 39 38 42 47 44 47 48 51 59 46 40 38 37 36 32 33 33 34 32 31 30 31 29 32 33 37 43 47 53 58 57 54 54 52 48 52 52 52 56 56
81 97 96 75 82 87 80 70 63 60 54 49 50 51 47 42 40 37 37 32 29 30 34 34 28 29 31 32 32 32 27 29 34 47 52 59 60 61 63 62 64 62 70 78
32 47 64 92 78 78 71 70 68 72 70 67 53 48 45 42 39 38 37 34 31 31 30 35 33 32 31 33 33 36 33 28 22 24 26 29 53 57 59 69 65 71 74 80
68 65 65 55 44 52 52 58 63 56 59 62 60 58 48 43 40 38 37 36 33 29 31 33 36 34 34 33 33 33 36 34 28 28 31 32 33 53 44 61 60 67 68 69
82 95 82 78 60 64 59 44 63 63 62 60 62 60 57 47 42 43 42 39 35 34 33 34 37 36 40 36 35 34 35 37 29 26 25 24 30 31 34 41 48 59 61 60
60 91 96 82 78 82 46 38 44 52 43 26 36 54 37 39 48 39 38 41 39 38 36 34 33 37 39 39 38 37 36 37 37 34 37 37 34 35 38 38 40 52 64 64
62 64 87 98 94 54 45 41 32 29 28 30 28 27 27 28 42 44 40 42 43 41 38 34 35 34 34 35 39 37 32 36 37 38 36 42 44 46 51 52 44 57 63 67
62 59 94 98 93 81 39 45 48 39 36 34 44 50 57 49 52 52 45 42 44 47 43 37 35 30 32 37 38 37 33 32 33 39 41 44 47 54 68 64 48 49 56 62
85 90 100 97 96 77 52 47 48 71 52 57 70 78 78 78 80 59 49 50 46 46 44 44 39 32 31 35 35 34 36 35 35 37 44 50 48 48 63 58 57 60 58 50
81 88 87 94 94 84 54 81 75 65 54 50 53 60 54 68 83 80 61 68 54 47 47 47 43 41 36 31 30 31 34 38 40 42 49 52 51 46 48 54 55 70 74 58
80 79 80 81 75 64 64 72 66 57 50 42 39 38 57 65 74 83 73 77 76 58 52 46 44 41 38 37 35 31 30 37 46 60 56 41 35 38 42 44 47 49 48 41
59 53 53 52 48 48 44 65 60 49 42 40 38 35 45 58 78 66 69 71 76 84 63 55 47 44 43 41 39 37 42 46 47 46 41 47 52 38 33 38 44 43 58 83
71 71 69 73 69 56 52 44 40 43 58 54 37 33 42 61 70 76 76 43 49 78 87 69 70 57 48 53 53 54 56 63 63 63 54 55 52 51 43 42 47 57 75 95
67 64 66 65 65 62 50 49 47 44 51 57 70 59 62 68 74 69 72 73 70 66 84 82 83 81 75 70 66 64 68 72 72 74 70 70 66 67 65 63 60 60 88 99

GFSCGP_700_rhum_078.txt.gz
RH
16 28 42 37 40 35 30 30 28 24 27 23 26 25 23 23 30 26 33 32 33 35 39 39 23 19 23 28 25 34 68 96 89 98 93 96 99 100 100 99 100 99 98 95
50 46 33 44 47 46 38 33 29 28 33 26 25 22 22 24 29 32 34 33 30 31 34 33 22 17 22 28 24 42 64 82 85 93 94 98 100 100 100 100 96 94 85 93
47 41 28 50 57 48 39 36 32 31 32 34 29 26 19 21 32 27 27 30 30 30 34 33 24 14 25 27 24 34 65 81 81 78 82 97 100 100 99 98 97 94 96 95
45 41 44 53 48 44 35 35 38 39 36 30 33 23 19 27 29 29 31 30 28 30 36 38 23 16 25 26 22 27 41 69 83 82 83 92 100 100 98 99 99 99 96 96
49 36 37 45 47 41 38 35 41 37 36 35 31 29 21 29 32 30 29 32 29 29 36 39 32 20 20 24 18 24 28 33 49 67 80 97 99 100 100 99 100 100 99 99
71 54 48 43 44 42 45 45 44 44 39 39 35 28 24 23 28 29 29 30 31 28 31 38 40 37 24 22 17 20 25 28 31 37 60 81 98 100 100 100 98 99 100 100
50 56 54 44 44 50 42 42 39 45 45 38 33 32 27 31 32 32 33 34 40 28 27 32 37 36 44 22 19 18 20 24 30 32 35 43 86 89 99 100 100 98 99 99
42 46 50 47 47 49 47 44 36 39 38 33 42 33 31 32 29 27 31 30 29 30 24 25 29 36 46 33 22 17 19 20 23 30 33 33 33 50 82 97 91 90 94 93
26 30 41 48 41 47 54 53 45 38 44 42 33 37 35 33 32 32 38 32 33 33 26 24 28 34 43 35 21 23 19 20 23 25 28 33 35 35 35 44 57 59 62 71
50 32 34 36 48 46 45 46 51 50 53 49 31 32 30 34 31 33 40 42 37 34 32 32 32 35 40 27 22 24 26 24 24 25 27 29 33 37 39 39 38 39 41 47
42 48 57 48 52 44 50 49 46 40 43 40 38 30 37 35 34 35 35 36 33 34 32 32 31 34 42 31 28 30 33 30 27 26 26 28 30 32 37 42 44 46 44 44
61 54 45 49 53 48 49 48 46 42 40 44 39 35 36 34 39 38 35 31 34 34 37 37 36 36 34 34 35 40 45 48 50 49 43 32 31 32 34 36 40 45 47 47
83 57 41 38 41 48 47 50 49 48 46 43 52 40 41 41 38 36 39 38 36 32 33 34 36 37 37 40 43 44 44 46 49 53 53 51 47 47 37 37 40 42 42 46
77 98 83 43 58 66 76 78 76 72 57 48 45 42 43 44 43 42 41 41 39 36 30 33 33 32 32 31 31 34 37 42 46 48 51 54 55 53 51 46 44 44 46 48
48 72 92 90 86 73 74 70 67 65 69 70 54 51 46 43 44 42 39 37 37 37 34 30 32 34 32 31 32 32 33 32 28 31 37 41 51 55 64 59 59 56 58 62
47 54 62 60 65 55 54 55 57 58 53 56 62 57 54 55 50 44 38 38 37 36 35 33 31 35 37 34 31 33 34 35 33 26 21 28 38 32 48 61 66 68 66 69
82 88 76 58 65 56 57 55 51 47 58 59 52 41 55 54 49 46 40 42 41 39 36 34 31 34 36 37 36 34 33 33 35 34 26 24 27 30 31 40 52 51 60 69
77 84 88 70 68 66 46 42 47 58 51 54 51 50 60 50 37 31 36 44 41 41 43 42 36 35 34 36 38 37 37 36 36 36 33 29 21 24 24 25 29 34 43 51
60 90 93 78 56 46 45 45 51 56 47 48 46 71 80 80 54 63 34 44 40 39 40 45 42 38 35 34 36 40 39 38 39 40 37 32 34 35 36 35 32 34 34 37
84 91 87 96 60 58 56 66 44 41 45 75 66 83 84 92 80 83 62 55 53 48 41 42 46 38 35 35 34 35 36 34 38 37 40 39 37 40 41 43 44 48 53 47
100 100 100 82 82 70 73 62 50 57 63 65 74 74 68 78 84 87 77 71 66 54 47 45 46 44 47 38 33 34 32 36 39 37 35 38 41 43 50 52 52 61 66 60
90 92 95 84 81 77 68 75 70 76 71 58 51 45 40 50 50 68 82 80 78 70 62 48 46 46 46 44 43 42 37 34 38 39 36 36 45 49 56 59 58 63 62 58
83 75 78 73 66 78 95 86 70 62 63 61 52 44 37 35 35 55 67 78 85 77 73 65 57 47 47 44 41 40 40 35 33 31 36 38 45 47 54 65 67 64 49 50
78 84 89 94 76 73 76 61 56 48 52 52 42 42 37 34 34 50 73 74 67 71 49 66 69 65 50 47 45 42 42 40 38 36 38 42 44 58 58 66 51 46 37 37
71 81 77 73 73 70 64 66 51 53 47 48 53 48 55 42 38 33 65 82 74 74 68 63 68 78 74 64 56 50 45 44 48 52 56 61 62 54 47 50 52 46 41 39
77 72 78 71 71 62 51 51 51 52 49 44 46 40 56 80 81 78 74 66 79 90 87 71 68 71 81 78 79 82 72 61 57 57 59 63 60 59 66 82 95 71 64 63

GFSCGP_700_rhum_081.txt.gz
RH
29 34 29 30 34 32 32 26 24 23 22 25 25 22 21 23 21 23 30 30 44 55 70 33 37 23 20 18 24 21 41 65 98 97 89 97 97 98 98 98 100 100 99 99
34 50 35 30 32 37 36 31 28 27 25 28 26 24 22 20 19 20 25 27 37 46 62 35 35 26 20 14 24 20 52 73 88 84 93 88 96 98 100 100 100 100 100 96
45 42 47 37 36 37 38 37 33 30 27 29 29 27 26 24 22 21 24 28 29 40 55 47 35 30 16 17 22 20 50 67 79 86 78 85 98 99 100 99 98 99 99 99
56 52 56 56 46 39 44 39 35 32 31 30 27 24 22 19 17 19 27 29 32 35 49 54 35 26 18 18 20 17 28 60 72 80 76 81 98 99 99 100 100 98 99 99
77 54 50 43 44 42 45 38 33 31 33 35 29 28 25 23 20 21 24 25 27 37 44 36 35 37 26 20 19 15 22 27 47 68 85 86 93 100 100 100 100 99 99 96
69 78 65 54 41 44 45 36 37 35 34 33 30 29 25 22 22 24 25 24 27 34 46 39 35 39 35 30 18 14 17 22 26 32 55 83 93 99 99 97 98 100 100 99
74 58 69 61 48 43 45 37 36 38 38 38 29 30 29 24 25 26 28 28 27 33 49 53 34 34 37 41 20 14 16 19 23 26 31 42 71 99 100 98 99 98 98 99
89 71 50 63 58 48 43 39 33 43 44 35 30 28 26 27 28 27 28 29 30 39 47 48 30 33 31 43 27 15 15 16 19 25 29 33 39 63 98 99 98 98 94 98
78 57 54 63 60 68 58 45 37 52 47 40 38 32 33 32 30 29 31 33 32 33 38 50 30 27 29 40 36 17 14 18 18 21 26 30 33 34 44 67 88 94 100 100
54 58 43 44 56 70 62 58 52 51 54 51 34 30 31 31 31 30 34 38 38 38 42 50 25 25 28 36 38 18 17 16 20 22 23 25 31 35 36 37 37 49 72 73
52 52 80 32 41 51 58 55 74 64 48 48 50 38 35 33 32 32 35 39 41 46 51 49 31 32 34 34 31 18 20 19 18 20 22 24 26 30 36 39 40 38 42 48
54 56 48 46 36 40 47 44 50 59 54 48 44 48 36 38 43 41 43 40 40 41 47 37 34 33 32 34 36 18 21 23 23 24 24 24 25 27 28 31 37 43 45 44
74 50 44 81 55 45 40 41 45 44 48 60 78 43 38 45 38 41 40 42 38 37 41 49 37 37 34 34 39 25 24 34 40 42 46 46 42 34 30 29 32 35 40 44
67 80 56 48 49 56 43 46 42 44 48 45 45 45 45 44 40 42 42 40 42 40 40 39 52 34 38 40 39 34 35 38 43 46 47 48 51 51 49 43 39 36 37 40
82 77 78 76 77 64 66 61 58 53 54 55 52 51 45 45 41 39 41 42 40 36 36 38 39 49 41 35 38 39 39 37 42 45 47 48 54 55 54 53 51 48 41 40
69 58 64 63 60 59 50 49 52 52 52 50 47 44 44 45 47 47 46 44 34 32 34 42 44 43 46 39 34 33 31 32 32 32 31 29 35 49 54 58 60 60 54 49
78 62 48 58 59 64 59 51 47 43 43 43 43 46 47 47 48 53 53 50 47 48 50 53 40 45 48 47 40 40 35 32 33 34 33 31 25 22 29 47 51 41 55 62
84 70 63 62 60 60 45 43 44 44 41 49 55 50 50 54 58 57 60 57 58 51 53 42 40 39 39 37 37 38 39 38 36 34 35 34 32 25 22 24 26 29 37 56
87 79 64 65 47 40 34 38 38 39 37 58 56 57 63 70 61 64 84 69 48 67 54 44 41 42 41 40 41 36 36 36 38 35 35 36 36 35 33 28 19 23 23 24
84 87 72 69 62 49 36 45 47 51 43 67 68 68 67 64 58 58 85 77 63 88 85 72 42 40 43 44 39 38 36 38 39 40 39 40 42 39 30 26 30 31 34 34
87 91 82 71 64 49 70 64 68 56 59 86 83 80 85 84 81 77 48 62 89 95 83 78 54 47 44 46 46 41 43 42 44 38 35 39 42 53 34 50 36 37 39 40
86 96 92 84 91 72 58 58 64 84 97 97 90 89 51 45 40 52 71 75 88 89 95 78 71 61 48 46 46 49 48 44 39 39 41 36 38 47 45 44 34 37 39 44
92 71 70 65 59 81 95 68 95 85 65 56 52 54 53 49 44 38 37 76 87 92 68 61 73 70 71 61 46 48 48 47 45 42 42 41 37 46 51 58 49 44 44 52
68 87 94 85 85 97 84 96 97 67 60 52 49 41 42 45 42 38 30 35 37 70 67 66 64 63 60 69 81 68 51 47 49 46 44 42 40 46 53 62 66 65 67 69
67 83 62 69 82 80 90 99 74 67 59 52 48 49 46 41 41 51 70 67 66 61 66 63 71 73 70 68 81 91 84 63 60 55 49 46 49 47 56 63 62 82 100 95
79 80 79 81 95 76 94 89 70 62 48 44 45 45 47 47 41 51 69 82 81 81 75 71 76 77 76 69 62 81 99 100 97 85 69 85 92 90 91 74 80 100 96 100

GFSCGP_700_rhum_084.txt.gz
RH
41 28 40 36 50 44 36 34 31 26 25 23 23 23 22 23 24 26 26 28 29 36 50 64 65 32 35 23 16 16 18 27 55 64 73 85 90 86 79 78 100 100 100 100
58 52 42 34 31 38 41 42 37 32 27 30 24 24 24 23 21 21 21 21 25 29 42 57 61 37 34 26 14 21 15 34 58 70 73 74 87 98 95 100 98 100 100 99
81 73 64 43 42 35 33 42 35 34 30 28 27 28 27 26 24 22 20 20 22 26 36 50 54 38 35 20 15 21 13 25 56 63 69 61 81 90 87 92 99 98 99 100
98 91 87 88 76 58 46 38 36 37 36 34 31 29 26 25 24 23 23 21 22 27 33 44 52 39 35 22 18 20 13 19 39 48 66 69 69 74 91 90 100 100 95 83
83 96 95 94 82 67 65 46 59 59 48 36 31 30 29 24 23 21 18 20 26 29 31 38 49 38 36 30 25 20 13 16 22 25 40 54 72 73 86 98 100 98 93 87
68 76 97 99 88 75 83 79 76 58 49 42 32 33 31 27 25 21 20 22 25 26 30 38 48 38 37 36 33 20 14 16 20 21 24 30 52 69 76 96 98 100 99 94
80 82 90 81 99 75 63 74 83 77 54 48 33 32 30 27 26 23 23 24 24 26 31 40 47 31 34 35 38 24 13 13 19 21 23 24 36 52 69 97 99 99 92 83
88 74 70 66 72 80 61 52 75 71 62 45 33 30 28 27 25 25 26 27 27 27 31 41 54 41 32 33 38 37 15 14 16 22 25 25 27 38 59 74 98 90 99 88
77 80 64 61 77 94 75 62 55 59 70 83 58 31 30 27 27 27 28 30 30 30 35 44 52 57 31 32 30 42 22 13 16 19 23 27 29 31 35 55 64 81 96 100
55 74 61 64 66 82 84 71 79 88 77 91 44 34 30 32 29 29 30 35 34 33 32 34 44 51 35 28 30 41 30 15 15 19 20 24 28 33 34 36 39 52 58 73
56 62 58 85 83 87 76 97 95 96 71 98 86 52 63 36 34 30 36 39 40 44 45 43 47 57 35 27 26 30 37 18 14 16 20 22 24 27 32 36 37 38 51 53
79 71 55 59 67 50 74 67 76 98 91 73 91 77 61 52 46 41 40 39 39 40 43 47 56 65 46 30 32 31 36 19 18 18 19 20 22 25 26 28 33 39 40 41
73 63 55 56 60 53 55 78 83 87 90 99 100 66 66 49 47 42 47 42 42 40 45 46 46 58 72 40 34 33 36 22 20 22 24 26 27 30 30 27 28 31 36 41
76 73 73 90 85 95 63 52 60 78 76 93 93 92 83 68 55 47 42 40 39 41 43 43 44 47 50 51 39 34 37 34 22 23 34 39 41 44 46 43 35 32 32 34
76 85 74 65 89 94 94 74 74 63 76 70 66 65 65 74 60 45 40 41 42 42 42 42 41 42 52 51 45 38 40 41 33 31 38 41 44 48 52 55 55 51 40 38
78 74 65 59 62 57 60 67 57 83 88 62 58 56 46 44 43 44 44 47 48 47 46 47 48 42 43 50 54 43 39 37 41 43 44 47 46 47 47 52 57 62 66 54
79 74 61 57 55 62 60 57 48 42 43 43 43 42 47 46 47 50 52 60 59 56 52 50 52 50 45 45 53 68 53 43 41 34 32 32 33 33 28 26 32 40 54 52
80 77 70 60 54 78 56 45 49 55 46 42 42 70 71 57 59 61 65 58 63 60 54 52 54 54 47 47 43 53 68 68 43 40 37 33 34 34 34 34 27 22 27 41
87 80 75 65 53 48 42 38 37 35 37 43 58 77 75 72 65 70 80 67 76 82 78 77 72 44 47 46 44 45 42 49 77 43 37 38 39 36 36 36 34 28 25 25
87 83 84 72 65 56 37 33 44 38 36 67 80 95 76 66 56 84 78 70 63 79 93 94 92 63 51 46 43 43 43 42 43 75 94 51 46 45 39 38 39 40 31 28
85 91 86 82 78 55 43 62 58 48 72 94 96 99 94 63 55 46 57 78 82 91 92 97 99 56 68 67 55 43 43 44 43 45 50 49 43 43 46 46 48 48 51 38
80 94 93 82 79 74 67 64 65 84 96 98 99 94 74 52 49 48 44 48 78 90 82 72 59 52 51 55 67 67 54 47 47 50 51 54 52 49 49 45 47 50 52 48
83 75 76 70 66 66 80 74 94 94 99 97 80 62 49 43 43 46 46 42 38 33 32 37 46 60 55 46 44 59 68 64 54 48 50 51 65 66 58 65 62 52 61 61
95 87 80 76 92 89 96 95 98 100 100 92 64 54 48 49 44 40 38 38 37 40 41 38 47 55 64 61 50 44 48 62 74 66 57 55 55 66 77 75 78 81 72 75
94 95 92 88 96 91 97 98 97 93 76 64 57 48 43 41 40 40 36 36 36 51 78 78 78 76 71 66 67 68 60 52 53 82 99 93 87 71 72 82 95 96 99 97
92 96 90 98 99 98 98 95 87 66 56 50 41 37 40 39 39 42 41 46 42 53 70 81 76 77 74 68 71 68 59 55 56 57 89 100 100 100 97 96 92 94 100 100

GFSCGP_700_rhum_087.txt.gz
RH
51 38 21 31 52 54 53 50 48 38 34 32 31 31 26 23 23 24 25 28 28 33 34 39 45 40 34 38 36 26 15 18 20 50 63 64 76 88 86 74 80 64 67 73
52 48 44 34 33 51 56 62 73 55 37 40 36 34 30 24 23 23 24 25 26 27 31 36 39 40 33 36 37 21 17 17 23 43 59 63 66 76 74 70 70 76 94 98
65 58 64 54 47 52 60 61 65 49 47 51 50 37 38 26 24 23 22 21 23 24 26 29 36 39 37 33 34 19 18 15 20 32 52 60 52 62 75 73 75 93 98 100
76 67 60 69 66 60 61 53 52 54 59 86 56 51 40 32 28 26 23 22 22 20 21 28 34 40 40 34 35 25 18 14 17 22 37 49 63 73 77 93 96 100 100 100
59 66 96 90 90 78 74 62 82 96 85 78 64 58 45 39 32 30 25 24 24 22 21 26 35 41 39 35 35 29 24 14 14 20 24 36 56 74 79 96 94 100 100 100
74 65 79 89 98 97 93 76 95 97 94 97 74 68 46 36 31 28 24 24 22 20 21 25 28 34 35 36 34 35 30 13 13 18 20 26 32 55 71 77 89 98 99 99
62 51 73 88 96 100 98 99 99 99 99 88 53 55 51 34 29 26 25 26 20 23 25 28 30 33 35 33 32 37 37 15 12 18 20 22 26 43 67 82 95 99 100 90
57 75 78 77 82 92 99 99 98 85 92 79 48 45 37 27 29 28 27 24 24 25 26 28 31 36 37 33 32 36 40 25 12 15 20 23 25 28 47 66 86 100 100 100
62 77 85 93 98 93 91 99 77 98 92 99 67 50 36 31 28 27 28 27 27 27 27 29 34 38 34 35 31 35 38 37 13 14 17 22 27 28 30 49 66 76 95 100
53 55 63 78 85 97 95 99 92 100 92 96 64 55 46 36 28 28 28 29 29 30 31 32 33 34 38 37 31 34 32 39 22 14 17 20 25 28 29 27 30 51 65 76
78 61 59 64 66 91 98 99 99 93 86 99 98 86 72 54 47 37 38 38 37 36 42 41 39 40 46 45 29 30 33 32 35 16 15 19 21 25 27 30 30 27 32 39
75 72 62 60 62 81 93 99 97 99 86 84 100 92 94 69 56 47 41 41 41 40 42 47 51 52 47 43 28 28 29 32 36 24 18 17 19 21 23 25 30 34 33 32
74 91 85 60 62 70 86 92 99 94 100 96 96 88 97 87 65 55 49 43 42 46 54 54 53 54 59 60 45 42 43 42 37 35 21 22 22 24 25 30 30 29 30 35
64 76 82 91 96 98 97 96 93 99 99 87 98 87 98 99 74 56 54 53 48 44 46 45 46 64 63 54 54 44 40 38 38 37 23 20 24 29 32 35 40 40 36 32
63 73 80 76 66 88 83 98 99 99 93 98 84 98 84 90 97 73 68 63 64 53 53 44 47 46 60 79 82 77 58 43 41 43 37 28 27 33 41 45 49 52 54 53
72 74 89 64 57 61 98 85 96 88 99 97 100 94 97 71 88 78 84 54 48 46 44 43 42 48 50 53 60 61 82 81 61 47 47 47 38 39 42 47 53 57 60 63
84 80 72 70 59 54 60 57 55 71 72 58 54 65 61 83 84 83 61 54 51 49 45 45 46 48 48 45 53 51 52 50 55 49 46 48 47 44 43 37 35 34 35 52
77 78 77 65 50 77 52 55 55 49 61 54 53 52 62 80 82 76 68 63 54 59 60 56 49 46 51 53 50 60 74 62 58 52 61 60 60 54 51 43 34 34 32 31
44 54 76 72 63 43 38 44 43 56 61 73 59 65 74 90 96 93 87 77 76 74 74 80 85 58 54 43 41 49 57 66 71 60 55 46 50 51 56 60 46 38 36 36
46 73 82 78 77 75 33 46 38 38 68 88 76 79 82 81 86 92 77 73 63 58 59 66 87 42 56 58 61 56 46 46 47 60 71 57 47 49 54 58 75 55 41 39
93 93 93 86 93 72 51 55 53 50 81 96 82 75 83 89 92 98 72 57 44 46 60 49 58 58 56 56 42 39 53 56 52 50 52 68 68 55 56 55 64 64 62 63
89 95 97 97 87 81 62 66 65 88 100 91 96 87 77 74 68 50 46 44 44 48 58 54 36 36 37 38 51 51 43 39 48 61 60 55 56 57 56 59 67 74 73 73
94 74 80 75 66 82 78 72 92 100 97 97 86 79 64 60 55 54 51 49 46 44 42 40 37 29 29 32 39 47 49 44 46 40 38 49 62 60 56 66 68 69 72 86
97 95 81 74 90 84 90 89 100 97 99 91 86 75 59 54 47 41 34 34 35 33 31 28 29 40 52 50 46 48 52 59 60 54 46 38 35 54 71 65 68 84 84 88
99 94 97 95 92 91 99 96 98 98 97 85 78 62 46 42 39 36 32 31 32 31 30 30 29 32 39 50 52 50 60 66 70 68 59 40 36 37 79 96 84 94 98 99
97 98 98 97 96 98 98 95 94 86 79 50 40 37 40 40 44 42 44 43 40 38 38 38 38 38 44 50 51 59 57 64 74 66 51 40 38 40 60 67 97 93 97 100

GFSCGP_700_rhum_090.txt.gz
RH
46 48 42 46 48 53 50 51 52 47 43 39 46 46 38 32 32 29 25 24 22 21 22 24 32 40 40 41 28 32 35 15 16 15 50 65 63 68 69 55 43 48 99 100
52 50 47 38 35 41 55 58 55 50 46 57 52 42 43 33 31 29 23 23 24 26 25 28 33 37 36 40 34 31 29 16 15 16 44 62 62 63 74 74 60 54 60 77
51 51 53 50 46 42 30 50 55 54 52 52 58 52 42 34 36 30 25 24 25 26 26 28 29 32 34 36 40 32 28 21 12 14 30 50 58 68 75 70 73 77 87 84
79 80 68 66 55 52 52 47 41 42 65 84 70 76 54 38 38 34 32 24 23 24 27 28 28 27 29 34 40 34 32 27 13 13 21 35 55 63 73 77 77 75 82 99
69 65 55 64 62 66 77 69 61 68 93 98 74 96 56 45 40 36 28 24 23 23 23 24 23 25 30 37 40 35 34 32 16 12 18 23 33 51 66 74 75 79 77 91
74 70 64 48 52 66 94 91 84 91 97 98 79 86 68 52 38 32 30 27 26 26 26 23 21 23 32 40 41 36 35 35 21 11 17 20 26 41 61 68 73 96 99 100
58 55 58 66 79 73 95 98 98 98 98 80 57 71 69 46 42 38 31 27 26 27 25 25 23 23 27 31 33 37 35 37 27 12 17 20 24 32 49 70 80 95 97 96
47 47 68 72 70 70 65 99 99 86 95 77 61 58 52 38 37 42 37 30 26 26 26 24 22 24 26 30 34 36 36 38 33 12 16 21 25 28 37 59 80 87 100 100
50 65 77 64 89 90 86 98 92 98 96 98 66 59 44 41 54 47 35 31 26 23 21 22 23 27 29 33 37 43 35 38 38 12 15 21 26 29 31 44 71 82 92 98
54 54 58 65 85 89 84 98 99 99 95 96 70 60 77 55 51 42 34 31 27 24 22 24 26 28 34 35 42 46 36 37 39 23 14 18 25 27 29 29 39 60 65 80
59 72 67 71 70 67 91 99 98 99 89 96 93 95 90 57 52 47 46 45 32 30 30 30 31 33 35 40 48 50 39 39 37 38 17 16 20 24 25 28 30 31 45 55
78 76 74 59 56 58 80 98 98 99 92 86 99 80 99 68 63 58 47 56 54 47 44 46 40 39 41 48 55 58 58 44 37 40 36 16 16 19 21 24 27 31 30 32
65 92 91 64 63 77 97 98 98 96 99 95 95 85 92 95 92 84 75 75 51 54 48 44 46 49 55 59 60 66 63 59 47 35 43 27 19 19 21 23 25 28 29 31
65 60 77 97 95 84 94 86 99 98 99 87 94 82 87 93 100 99 82 80 64 46 46 56 64 67 65 63 66 71 66 62 59 49 39 40 21 21 24 25 26 28 31 30
71 68 69 80 92 74 84 95 94 98 98 99 95 92 84 98 96 99 91 83 72 57 54 48 47 47 54 66 67 68 63 58 60 63 52 47 48 37 27 28 35 37 40 42
80 75 68 71 78 95 66 83 89 80 98 100 99 97 94 94 99 99 98 98 88 60 56 56 55 54 56 53 56 53 57 59 58 56 54 65 61 54 52 47 39 42 46 50
79 82 82 70 66 77 57 55 59 66 96 70 96 88 88 96 99 99 100 99 82 80 65 58 68 56 56 56 56 56 53 51 49 53 58 56 57 59 63 60 58 53 55 61
77 79 81 78 67 58 45 59 54 92 94 88 89 96 97 96 99 98 98 93 76 62 56 53 57 52 49 49 50 53 55 54 57 54 54 57 60 59 60 60 56 58 54 53
49 68 75 70 63 54 33 59 72 64 83 89 93 100 99 79 96 86 78 77 75 72 71 64 61 46 40 41 49 56 49 46 53 60 64 67 64 62 62 57 57 63 64 62
66 63 80 69 80 81 39 46 44 71 76 75 95 99 97 98 95 85 91 87 74 65 59 54 51 44 46 37 32 36 39 52 61 60 56 54 55 62 62 61 63 64 64 66
73 96 94 94 87 65 50 68 65 72 87 95 97 88 88 85 81 81 92 94 73 57 61 69 74 66 39 36 35 38 40 40 39 45 59 64 62 58 56 58 57 67 67 66
68 88 95 97 91 88 43 56 70 97 94 88 93 83 85 83 89 83 83 85 47 45 44 43 44 40 34 36 30 29 32 35 36 38 40 38 42 50 60 62 57 58 71 71
95 92 93 77 80 91 80 69 86 99 97 94 100 87 84 67 54 50 48 48 48 47 45 43 41 38 32 24 23 28 35 43 46 40 33 33 40 39 35 34 41 62 61 69
97 95 99 97 95 92 92 98 100 95 98 98 98 97 82 61 57 56 52 43 35 31 30 29 28 26 23 21 20 22 29 34 40 46 48 52 51 52 44 34 31 30 39 77
98 99 97 98 99 96 97 100 98 98 96 93 94 90 70 61 48 42 40 36 34 29 25 24 22 21 21 20 20 22 24 28 33 43 48 52 54 55 52 39 34 35 39 51
96 93 94 95 98 99 98 97 97 97 94 83 50 38 34 34 32 33 32 31 28 26 28 29 28 28 29 31 32 32 32 38 50 58 64 68 69 67 59 53 51 51 47 55

GFSCGP_700_rhum_093.txt.gz
RH
29 39 40 39 43 45 52 55 54 50 48 44 45 41 36 32 26 24 20 21 24 23 22 23 23 23 22 30 42 39 30 36 22 16 14 15 45 60 59 60 43 84 77 92
28 32 36 46 44 44 48 53 56 56 52 53 53 46 38 34 29 28 23 25 26 23 22 22 23 23 23 28 39 48 34 31 25 17 13 18 31 55 61 67 60 41 71 98
21 30 38 43 50 44 37 30 29 43 54 54 54 51 42 35 35 31 27 26 29 23 22 24 25 26 27 25 32 45 37 33 28 22 12 18 25 50 60 71 71 60 43 47
42 44 44 52 48 52 49 46 47 49 50 57 55 58 45 41 38 34 29 29 30 24 25 25 26 27 28 26 30 44 43 34 31 27 12 18 22 33 46 63 72 75 67 47
58 59 59 70 73 70 72 72 71 71 64 77 75 68 41 54 41 32 31 31 32 29 28 26 26 26 29 28 28 43 44 33 34 32 12 16 19 24 33 57 62 69 72 79
55 69 62 52 47 52 58 75 87 77 85 88 75 79 60 52 41 32 33 31 34 32 33 31 26 25 26 30 29 42 45 36 35 34 12 16 19 21 27 39 66 77 76 80
71 65 63 56 68 73 82 84 96 99 97 86 62 84 71 49 44 38 34 33 33 34 30 26 27 25 25 25 29 43 44 37 35 36 12 16 21 22 24 36 56 77 74 77
58 44 43 61 70 73 80 97 89 88 93 85 61 63 62 48 38 46 38 33 37 33 30 28 28 26 25 23 31 42 41 37 35 38 13 17 23 25 24 35 56 75 74 84
49 48 61 67 65 84 91 100 98 98 95 99 73 64 57 55 51 44 41 37 36 35 29 26 26 23 24 23 26 35 39 38 33 39 15 16 24 26 26 26 52 58 70 69
54 56 56 63 73 87 92 98 99 99 97 96 74 66 68 64 59 56 52 44 39 32 28 24 24 22 24 24 33 39 49 47 37 39 22 15 22 26 26 27 32 57 65 72
61 59 69 72 80 70 80 94 100 98 99 98 91 86 96 94 75 63 55 48 40 31 28 23 22 23 24 32 38 48 53 50 37 37 38 16 18 24 24 26 28 32 56 65
71 84 79 70 71 67 69 79 98 99 98 96 99 79 87 99 98 78 61 50 49 30 27 24 23 23 30 38 46 51 56 62 52 44 40 36 16 20 22 24 27 29 31 38
66 87 77 78 85 87 82 93 96 95 99 98 98 82 86 78 97 90 76 69 55 55 37 31 32 33 37 46 55 61 66 74 75 61 46 42 30 17 19 22 24 27 30 31
61 65 66 83 77 88 89 93 98 90 99 99 88 72 82 79 84 99 99 79 72 65 58 45 43 45 46 58 68 75 73 78 75 62 53 48 44 28 23 22 24 25 28 30
67 67 66 63 59 84 85 78 95 91 93 98 91 95 90 87 80 94 98 100 97 91 70 67 62 58 64 71 74 68 69 72 68 62 57 52 51 50 40 30 29 30 29 29
80 69 75 73 68 74 67 61 61 60 85 95 99 97 97 96 93 87 99 99 100 98 78 84 73 58 55 60 66 74 65 69 64 62 65 61 57 53 51 49 52 49 40 36
68 72 71 74 65 56 39 75 70 73 88 96 97 100 96 88 99 100 100 99 99 100 97 98 92 74 60 60 58 57 53 49 46 49 52 57 56 59 62 64 62 62 61 60
55 51 66 81 72 69 32 44 65 75 89 95 99 100 96 99 99 100 98 99 98 99 98 97 92 72 60 52 50 50 51 53 52 51 54 56 54 54 60 67 88 90 85 80
44 52 80 76 68 54 27 46 63 75 77 84 98 99 98 80 93 99 99 99 99 99 99 94 71 54 40 34 37 35 44 46 46 47 49 50 54 60 61 64 66 71 84 83
68 62 84 78 78 76 53 55 68 87 81 90 93 99 99 100 99 97 100 99 100 99 98 72 64 59 48 40 38 38 35 36 38 46 58 61 57 52 54 58 62 65 70 72
66 71 82 87 92 76 34 27 53 83 83 79 88 80 98 99 99 99 100 100 97 96 99 80 68 67 66 43 33 33 30 34 38 38 38 42 50 61 62 56 51 50 53 58
83 74 84 98 97 89 48 34 58 80 94 99 100 97 78 95 99 99 98 99 91 72 62 48 46 45 44 42 41 34 22 22 28 30 33 33 34 36 38 38 42 50 55 55
86 94 96 81 80 76 56 79 68 81 89 96 99 100 99 99 97 94 76 61 53 51 47 46 39 38 39 37 33 24 20 22 31 37 32 32 30 22 23 29 36 35 32 30
93 100 98 98 97 94 88 100 97 98 100 100 100 100 96 88 68 57 53 51 48 48 46 35 28 27 26 25 24 23 21 22 27 31 37 41 42 38 37 35 34 37 41 37
91 93 96 97 100 98 99 100 100 99 98 100 98 98 95 97 92 83 60 45 42 38 35 33 28 29 29 27 24 24 25 24 23 24 27 34 38 45 52 56 63 58 52 52
97 92 96 96 96 98 98 98 98 97 96 98 90 87 72 65 50 47 44 40 37 35 36 37 38 38 36 34 32 30 30 30 30 29 30 30 30 31 37 41 44 51 60 65

GFSCGP_700_rhum_096.txt.gz
RH
11 40 42 39 39 39 40 45 49 53 55 53 47 43 43 40 35 35 33 30 27 21 21 23 24 24 22 24 24 25 37 36 34 32 21 17 14 20 36 57 60 57 58 86
35 41 39 39 40 44 44 44 46 48 49 52 54 47 47 45 40 37 35 32 31 28 22 23 24 24 22 23 23 23 34 44 37 29 26 17 13 20 37 50 59 61 88 75
36 37 27 42 46 50 51 43 38 37 37 37 36 41 42 40 38 36 36 34 33 29 24 26 26 23 22 23 25 25 33 44 39 34 29 18 14 18 27 51 59 66 58 91
38 31 36 52 52 54 52 50 50 50 56 58 61 62 40 32 27 31 30 33 32 30 28 30 25 22 22 25 26 27 33 45 47 39 31 20 14 18 20 30 56 67 64 59
42 43 46 45 48 65 72 69 74 77 74 75 82 71 45 43 37 24 21 29 29 31 30 31 24 24 26 26 28 28 32 43 42 40 34 21 15 18 21 23 34 63 69 60
47 69 72 66 59 59 57 52 53 59 86 94 68 74 57 45 44 41 42 38 29 29 28 36 25 26 27 28 28 31 31 40 44 41 36 22 16 20 22 23 30 40 62 72
58 62 68 66 63 51 63 70 83 87 94 77 58 76 68 45 54 61 51 47 46 39 31 37 28 27 28 27 26 29 32 36 44 42 37 23 16 22 24 22 30 49 64 74
67 66 58 51 50 67 73 75 81 90 91 86 70 77 59 78 76 62 51 48 46 45 34 36 33 27 29 29 29 26 28 36 44 41 38 23 16 24 26 22 36 56 70 75
61 50 58 68 62 70 86 90 75 93 75 99 72 62 59 69 73 66 63 57 47 42 36 34 29 29 26 27 28 25 28 41 44 42 38 26 16 25 28 26 30 52 56 74
55 65 78 69 69 78 81 87 98 96 97 98 77 72 66 72 71 67 57 50 46 37 35 32 30 27 25 27 25 25 31 46 51 50 39 29 15 24 27 29 25 44 57 65
58 57 74 70 67 66 81 84 82 94 96 99 94 80 99 99 92 79 83 71 55 39 33 32 30 27 26 25 24 28 40 50 61 52 42 36 16 20 26 27 30 28 41 56
66 65 77 79 75 72 80 84 89 98 96 99 98 81 91 80 86 88 97 69 73 51 36 31 28 25 28 24 25 40 50 57 67 59 46 37 25 17 21 26 29 32 32 37
76 72 75 99 92 94 91 88 96 98 99 98 98 70 76 80 84 78 86 99 83 82 50 32 26 27 24 26 38 49 57 64 67 69 63 47 40 21 20 23 27 30 34 35
58 59 58 76 70 78 76 75 90 99 99 97 94 84 80 85 74 67 74 99 100 100 72 48 27 28 29 37 47 55 67 72 77 84 68 54 50 40 23 22 24 27 31 35
57 61 53 53 56 64 74 53 64 75 91 99 82 89 86 100 93 80 80 98 100 100 91 71 62 53 46 46 55 66 74 79 80 75 68 63 57 50 41 26 25 26 26 30
75 70 71 56 51 72 67 40 67 69 66 67 89 86 100 92 99 85 89 100 100 98 86 84 89 77 81 67 80 83 82 85 82 73 71 68 64 64 60 55 51 45 39 34
56 56 54 54 59 65 38 55 47 70 74 83 93 75 88 100 100 96 100 100 100 99 100 100 90 93 94 96 100 100 90 86 75 74 64 59 57 56 62 64 64 69 76 80
54 55 68 76 69 73 28 46 40 76 68 84 92 88 97 99 98 100 100 99 100 100 99 98 99 97 93 91 89 78 77 66 60 59 61 63 63 61 60 59 62 66 70 70
55 66 72 74 76 60 40 72 74 76 52 60 81 97 99 99 99 99 99 99 99 99 99 97 100 92 87 58 50 40 44 50 47 45 46 48 51 52 58 66 67 67 61 57
56 57 86 78 86 80 33 65 55 40 74 66 95 98 99 98 99 99 99 99 96 96 97 97 94 91 89 42 37 36 39 41 38 37 39 45 53 52 53 54 58 65 70 72
63 70 81 89 92 79 60 53 34 47 75 79 94 100 100 98 98 99 97 98 100 100 86 79 81 69 57 48 42 36 36 32 28 30 35 40 42 46 56 60 60 57 56 54
82 88 82 98 96 92 66 63 52 52 49 60 92 99 100 96 88 99 99 99 98 94 87 69 53 48 46 45 44 42 40 31 20 18 21 29 32 35 37 38 39 41 42 44
92 99 96 97 85 85 75 78 92 98 98 86 97 100 99 100 99 97 97 96 85 80 80 48 42 36 33 33 34 35 31 26 21 20 19 20 21 27 30 32 29 31 36 39
99 83 98 98 98 99 100 98 98 99 95 98 96 100 100 99 95 81 77 74 80 67 48 46 45 39 34 28 26 26 26 26 25 24 24 24 24 22 24 23 22 27 31 33
84 88 98 98 98 98 100 100 97 98 99 100 95 97 97 96 96 94 93 83 64 52 45 43 43 42 40 38 35 34 34 32 32 33 34 32 29 28 32 32 31 30 34 38
94 96 94 97 96 96 97 97 98 96 97 97 97 97 97 97 95 95 62 53 49 46 43 42 41 40 39 38 36 33 31 30 29 29 31 35 37 34 36 40 37 34 34 36

GFSCGP_700_rhum_102.txt.gz
RH
15 28 36 42 48 45 38 34 34 35 44 52 43 42 41 41 45 49 46 34 30 27 27 25 21 19 26 25 22 22 23 24 24 33 39 38 32 29 24 13 16 22 54 62
26 29 29 36 49 48 37 35 34 35 40 44 39 36 36 37 38 38 24 34 36 36 31 27 28 24 23 25 24 23 24 24 24 25 42 42 36 31 26 13 18 27 48 72
28 23 25 32 43 44 36 35 36 39 38 38 38 32 28 30 32 28 31 36 37 41 43 41 30 29 26 25 25 23 24 25 24 24 37 43 40 34 28 14 18 24 48 74
44 37 38 49 41 41 34 40 44 40 37 31 56 23 27 29 32 36 41 44 44 44 46 40 35 34 32 30 25 23 24 24 25 25 31 45 41 38 30 14 18 22 30 54
56 51 53 51 48 46 40 46 44 42 45 48 43 47 27 31 30 52 72 80 68 37 30 45 41 28 32 31 27 24 23 27 24 25 29 48 45 40 33 15 20 23 29 46
72 46 72 63 50 49 69 72 75 72 60 54 40 40 25 35 51 63 87 61 48 48 47 47 29 22 26 31 28 26 24 27 24 25 30 47 52 44 33 16 22 24 28 38
82 76 71 72 53 72 74 67 62 72 79 42 45 45 32 58 71 53 76 89 65 54 43 40 43 24 22 28 27 25 28 24 24 26 31 47 52 44 34 17 24 25 31 47
59 75 76 79 76 73 74 58 43 40 42 34 63 45 45 88 94 91 93 96 69 60 56 48 42 34 27 29 26 29 26 24 24 27 31 48 54 47 32 18 26 26 42 54
58 65 90 80 71 72 80 82 75 77 74 61 35 42 58 83 86 95 90 86 69 61 54 50 44 40 31 29 29 25 23 25 27 29 34 49 55 53 29 19 25 25 43 48
56 76 85 74 81 71 80 84 82 78 69 60 37 43 45 77 84 86 92 95 58 55 66 54 45 40 35 36 31 26 26 27 28 27 36 50 58 59 30 19 26 26 36 51
66 63 95 90 81 76 93 87 89 82 88 65 50 52 94 83 83 91 95 97 56 55 66 71 48 43 38 38 34 30 29 28 28 29 37 50 62 60 34 19 26 27 27 47
62 73 82 78 80 83 84 79 80 67 82 78 79 50 90 78 77 90 96 100 59 67 65 70 65 44 39 38 35 32 31 31 31 33 39 53 67 61 38 18 26 26 28 33
69 75 80 93 90 92 83 88 96 83 90 83 64 46 61 68 75 98 100 90 77 76 93 100 83 57 40 40 37 35 34 33 32 36 45 62 73 64 40 18 24 26 29 31
66 81 62 51 65 80 92 87 90 91 82 67 68 60 60 60 73 95 96 93 84 84 79 99 98 91 49 38 38 33 35 31 36 43 56 68 78 70 45 22 19 24 26 30
76 71 67 68 72 73 70 68 67 59 64 66 51 60 64 77 95 100 97 99 99 96 87 100 100 100 77 50 38 34 34 38 49 58 65 74 79 70 50 34 21 21 24 26
83 76 54 54 64 64 60 55 44 48 63 71 71 71 95 92 89 97 100 99 97 98 86 95 100 100 100 90 58 64 57 67 74 70 75 83 81 78 76 67 40 25 24 25
78 68 48 54 54 50 41 48 56 61 64 80 89 96 88 77 98 98 99 99 99 99 98 95 99 100 100 100 100 100 98 100 98 85 83 88 88 75 75 83 77 45 34 30
75 60 59 54 56 36 55 74 72 63 86 81 86 99 95 84 99 100 99 99 99 100 99 99 95 98 99 100 100 100 96 100 100 100 99 100 98 91 89 89 87 82 68 67
66 73 68 54 45 58 87 95 87 88 89 82 98 100 99 100 100 94 97 98 98 98 98 98 98 95 98 98 100 99 99 100 100 100 100 100 100 100 100 96 97 98 88 82
54 75 67 68 51 52 98 65 60 58 85 80 67 94 98 98 98 94 98 97 98 98 98 98 98 98 97 96 98 98 98 99 99 100 98 100 100 100 100 100 100 100 98 89
86 91 78 80 71 79 63 75 66 74 93 64 69 98 92 98 100 97 97 97 98 98 99 98 98 96 96 95 97 94 90 92 88 60 75 69 76 78 80 72 73 71 69 68
85 86 86 84 82 86 76 86 87 98 100 100 100 100 89 91 100 97 96 97 97 97 96 85 67 65 66 65 70 77 81 94 88 66 47 45 49 40 44 45 50 45 42 43
96 99 99 92 99 100 98 90 96 94 96 97 95 94 96 96 98 97 96 97 97 97 96 85 54 48 47 45 41 38 36 37 38 51 63 66 40 27 24 31 33 39 36 35
96 86 96 98 96 100 96 96 100 100 97 95 98 93 89 92 97 97 96 91 91 93 95 95 84 50 49 48 45 42 39 38 36 33 30 27 25 25 24 25 30 27 32 31
91 90 97 99 99 94 98 98 99 96 97 97 97 99 98 97 97 98 96 97 94 95 68 53 50 48 44 42 40 38 37 36 36 36 36 35 33 33 34 34 32 33 29 31
93 93 94 95 97 98 98 98 98 97 98 98 100 98 96 90 85 87 90 90 85 78 70 56 47 44 40 38 37 34 31 30 29 28 29 28 28 30 32 31 31 28 28 27

GFSCGP_700_rhum_105.txt.gz
RH
31 32 27 26 40 45 40 35 32 31 32 34 36 37 34 32 31 33 36 37 36 38 37 35 35 31 31 40 48 24 22 21 23 24 25 30 37 40 34 28 24 13 15 21
26 25 20 25 30 43 42 41 35 29 27 36 38 36 31 29 29 31 33 37 39 37 37 36 36 38 39 45 30 24 23 22 23 23 24 27 37 43 38 31 27 15 16 22
20 22 20 23 28 38 46 42 36 25 26 27 31 29 24 23 24 26 27 30 32 34 36 36 39 42 44 46 40 24 25 24 24 23 24 25 29 41 42 33 30 15 17 22
31 21 29 26 30 37 43 44 34 27 30 29 23 20 19 22 23 25 27 30 34 36 37 37 39 42 45 47 49 36 25 25 24 24 25 25 25 36 44 36 33 15 17 22
40 27 29 29 35 33 40 33 31 32 35 30 23 26 22 23 22 32 46 73 78 78 78 78 74 64 47 46 49 51 31 25 25 24 24 25 25 38 46 38 34 16 19 22
44 44 40 34 36 41 39 40 42 38 33 36 30 24 19 22 30 40 65 72 78 82 87 88 84 80 54 53 50 53 43 26 23 24 24 25 25 40 46 42 37 16 20 23
54 71 48 43 46 47 44 48 52 55 47 39 23 24 20 39 60 68 72 71 79 92 99 99 85 91 78 54 44 51 54 30 24 22 22 25 25 39 49 45 40 16 21 23
54 93 74 73 55 49 53 55 40 49 40 28 33 28 25 43 72 73 69 85 85 99 95 61 57 88 91 80 62 58 57 30 29 22 24 26 26 43 52 44 41 17 21 24
55 94 78 81 67 81 85 62 44 69 56 47 38 32 59 62 74 85 81 78 90 99 46 54 65 58 70 92 70 65 51 33 30 22 29 25 26 45 51 44 40 18 23 23
63 74 85 78 65 77 77 59 62 61 50 41 18 22 63 88 69 73 74 75 85 67 46 50 65 60 52 87 79 70 38 32 29 28 27 26 28 46 51 54 40 18 24 24
77 67 79 75 68 61 75 73 76 62 64 55 32 52 72 65 62 67 72 77 83 58 54 52 54 74 58 85 100 45 33 36 29 27 26 26 32 47 55 60 42 19 24 25
53 69 78 84 57 54 52 55 61 53 58 54 59 58 67 57 57 67 86 87 93 73 61 66 69 99 66 55 98 39 38 33 27 25 26 29 37 48 56 63 42 20 24 26
55 68 76 92 72 81 74 68 72 78 78 66 55 65 55 53 57 89 90 96 88 76 63 62 69 99 77 63 50 45 41 35 32 31 39 42 40 53 62 59 45 20 24 26
73 75 73 60 50 62 72 81 73 72 68 63 52 45 62 80 78 77 78 100 98 86 69 69 70 97 96 63 54 48 44 40 38 40 40 38 44 62 65 62 47 20 24 25
86 92 86 88 74 68 70 75 73 73 63 56 57 59 99 79 74 82 95 94 98 90 98 86 81 94 100 88 66 62 47 42 41 43 48 41 60 65 68 62 49 21 21 26
73 58 56 57 60 62 61 53 42 40 46 55 52 94 100 80 84 99 100 99 98 99 98 99 92 99 100 99 100 87 70 52 45 54 47 50 75 77 71 67 54 27 21 24
73 64 58 57 46 42 40 48 48 48 93 98 96 99 99 90 94 92 98 100 99 100 99 100 100 92 98 100 100 99 100 88 98 64 95 74 79 76 72 74 59 40 30 26
66 67 48 47 42 40 63 63 60 79 86 66 100 98 98 99 96 100 100 99 100 98 100 100 99 98 94 99 100 100 100 100 100 99 99 100 99 92 85 84 83 80 65 75
78 58 54 43 36 53 83 80 80 81 100 85 91 99 98 97 99 100 100 99 100 99 99 98 98 98 98 94 98 98 100 100 100 100 98 100 100 100 97 88 86 92 97 95
72 69 52 53 38 65 98 94 90 87 97 90 61 79 84 100 98 98 100 98 98 99 99 98 97 96 96 98 95 97 97 98 100 99 98 100 100 100 100 100 100 100 99 100
64 68 64 59 51 88 65 61 72 93 98 98 82 84 92 96 100 100 99 98 98 97 98 97 91 90 74 83 95 97 96 98 95 97 96 97 100 99 100 100 99 99 99 100
86 95 78 70 63 90 73 70 78 96 95 97 98 96 95 97 98 100 99 98 98 98 97 95 77 60 58 52 47 58 77 83 94 95 93 98 97 94 96 95 96 96 94 96
98 100 100 90 98 94 85 97 100 100 97 100 99 97 93 91 94 99 99 95 96 95 94 97 83 72 56 55 53 46 43 40 44 56 86 98 96 95 73 51 58 48 50 48
98 94 99 93 96 95 92 95 100 97 94 93 95 93 92 95 94 95 96 93 94 97 95 94 76 83 50 48 48 48 45 43 46 52 50 53 53 75 88 84 79 68 47 42
99 92 93 98 95 94 91 93 97 96 96 94 92 91 95 93 90 91 91 90 88 85 82 68 55 48 43 43 42 40 38 36 36 36 36 37 38 40 42 47 44 35 30 28
87 91 92 95 97 97 98 96 96 97 98 98 97 94 89 84 80 76 73 68 66 67 65 63 59 49 43 39 37 37 38 38 36 33 31 29 29 32 33 31 31 30 29 27

GFSCGP_700_rhum_108.txt.gz
RH
70 48 32 27 31 44 39 36 34 34 33 31 31 30 29 31 34 30 31 30 31 30 30 31 32 32 26 24 29 35 41 47 38 24 22 22 22 24 36 37 33 25 25 13
63 52 32 26 26 30 34 39 38 42 41 34 38 36 33 34 32 31 30 31 34 34 36 36 36 36 35 25 28 36 43 52 33 27 22 24 24 24 38 42 39 30 28 15
51 41 37 25 24 23 26 34 50 50 42 34 30 32 33 33 33 31 29 30 31 34 35 37 37 36 36 37 31 35 43 54 42 28 23 24 24 24 30 37 40 36 29 18
48 40 36 24 22 21 24 32 42 44 45 30 27 26 26 24 23 22 23 24 26 28 30 32 35 37 38 39 40 42 42 44 48 29 24 25 24 23 24 30 45 42 32 22
45 58 38 22 22 20 23 31 48 47 43 36 30 27 23 22 21 22 27 34 41 46 50 51 48 40 38 41 44 44 50 50 49 31 27 26 25 24 24 25 41 44 35 27
34 46 56 21 29 22 27 39 53 48 43 41 36 29 21 20 21 28 52 67 72 77 83 88 87 85 66 44 42 45 47 50 51 48 25 27 26 25 24 24 32 43 38 30
40 66 53 24 27 30 36 44 66 73 79 60 33 28 24 36 40 51 62 66 78 84 76 74 81 79 82 90 80 50 46 58 59 51 35 26 27 26 24 25 29 45 40 32
42 82 76 45 39 31 38 47 74 54 57 44 36 36 28 45 55 65 69 77 82 84 77 62 51 60 53 63 63 76 54 49 66 58 49 31 29 25 25 27 27 46 41 34
92 95 63 68 39 48 48 54 59 78 63 62 43 60 75 61 66 75 82 91 100 100 75 47 50 52 62 56 64 78 72 55 68 68 55 38 33 25 27 28 29 48 40 34
77 98 85 75 60 63 59 58 80 94 95 95 55 70 73 90 76 75 83 97 95 74 63 50 56 52 61 57 64 76 70 58 62 69 68 57 33 28 32 30 33 53 40 33
76 90 86 84 96 92 77 90 83 70 64 83 54 99 99 95 83 96 96 80 71 66 62 60 59 64 59 72 79 81 79 67 75 85 65 47 33 32 36 30 42 53 41 35
87 94 85 80 66 69 95 95 84 69 47 59 95 99 99 95 96 73 64 65 71 68 69 66 59 62 97 90 95 82 87 95 70 66 73 56 49 45 58 34 46 53 53 33
73 92 93 97 81 78 68 56 63 90 87 62 60 97 99 87 69 65 60 63 77 99 86 76 69 54 70 100 98 98 99 99 88 89 72 71 67 80 60 38 48 58 54 34
72 72 78 93 84 68 74 70 78 61 67 57 74 99 96 71 63 60 68 93 95 95 99 88 85 67 66 97 98 100 100 97 93 66 56 48 94 90 70 44 46 57 55 37
76 63 95 96 78 62 89 72 64 66 56 56 92 98 99 91 82 76 97 99 97 100 100 100 93 86 77 97 100 99 99 84 62 64 88 72 99 97 71 49 48 59 58 37
83 97 91 94 91 76 87 51 39 62 91 94 99 98 99 100 100 90 94 98 100 99 99 96 97 100 80 98 100 100 100 98 77 68 74 94 92 95 62 53 48 63 63 34
86 74 75 54 49 55 58 60 96 99 85 79 95 100 100 99 95 96 96 98 98 99 100 99 94 99 98 90 98 100 100 100 99 100 90 96 96 63 70 69 58 68 72 34
89 81 64 55 48 84 91 96 89 86 99 99 88 86 95 97 99 99 96 98 99 100 98 98 99 99 98 99 94 97 100 100 100 100 100 100 100 92 81 94 82 71 91 49
76 74 55 45 51 81 87 85 93 98 92 78 62 89 94 99 98 97 97 98 99 100 98 100 100 99 98 97 98 95 97 99 100 100 100 100 99 100 98 100 100 93 98 90
64 68 54 54 46 80 91 68 58 81 98 86 73 87 90 98 98 99 97 97 98 98 97 97 93 84 84 93 95 97 97 90 96 99 100 100 99 100 100 100 100 100 98 97
81 63 73 58 76 91 75 54 77 94 98 99 96 95 94 97 100 99 98 97 97 97 98 94 80 63 65 75 86 91 95 97 94 96 97 97 96 98 99 98 98 99 100 99
89 97 94 96 93 95 68 67 71 97 95 99 98 99 93 91 94 100 98 98 98 98 98 98 92 67 54 54 62 58 64 89 94 91 91 96 97 96 91 93 98 97 99 100
91 99 96 87 94 90 95 98 100 100 100 98 96 93 91 91 90 92 96 96 91 92 94 94 89 96 85 47 46 47 50 54 57 63 60 73 91 95 98 94 96 95 97 96
99 100 100 100 98 93 89 98 98 97 95 94 92 88 88 91 90 89 89 92 90 85 85 82 69 54 48 44 41 38 38 39 41 46 46 45 52 58 65 77 89 94 95 96
89 91 91 98 91 88 91 94 96 97 96 94 93 93 91 87 82 75 73 71 71 70 68 66 65 61 52 44 40 39 37 38 38 35 34 35 38 41 45 49 77 85 91 92
80 77 83 92 92 91 95 95 98 99 96 95 96 95 89 82 78 74 73 71 69 70 68 63 59 55 54 52 48 43 39 37 36 36 36 36 37 37 36 35 35 39 41 44

GFSCGP_700_rhum_111.txt.gz
RH
48 86 69 53 26 26 51 61 56 44 42 42 40 38 39 38 36 33 33 30 29 28 30 30 32 33 33 29 22 24 29 35 39 45 52 46 29 22 22 22 32 32 33 27
40 54 79 68 53 31 32 47 52 46 40 38 39 43 42 36 34 32 31 30 31 29 30 32 32 32 32 32 28 23 24 27 34 38 48 51 40 23 23 23 33 36 38 34
50 34 65 63 59 36 31 29 30 35 41 45 73 73 49 41 37 31 33 34 30 30 30 31 31 33 35 35 35 26 25 27 38 48 47 52 42 28 23 23 27 32 41 41
76 35 41 57 53 40 29 26 26 29 30 61 77 57 35 49 44 36 34 33 32 30 34 34 33 35 36 38 38 36 31 26 31 42 42 42 44 38 24 23 24 30 43 43
82 45 38 49 51 38 25 23 23 28 74 88 69 54 34 28 26 26 32 29 29 31 32 37 36 38 38 39 40 40 47 48 35 36 38 38 37 36 26 25 25 26 32 42
58 59 43 46 63 53 28 24 49 50 72 89 54 42 35 28 26 28 36 37 37 37 31 30 33 33 33 36 39 45 47 60 66 57 45 42 42 39 29 25 25 25 28 36
46 47 42 46 48 44 40 39 76 74 95 78 46 44 38 50 50 47 50 60 52 38 42 47 46 43 39 34 35 38 45 48 51 65 63 50 47 45 34 30 28 26 27 29
75 38 38 47 62 43 41 42 72 77 90 63 41 42 35 39 53 63 66 70 64 72 76 72 68 59 51 51 40 34 36 44 46 47 57 60 59 54 46 35 29 26 29 33
56 35 44 57 50 48 38 41 46 71 68 77 40 42 48 55 55 70 79 73 75 86 72 74 64 44 44 47 48 44 37 32 36 44 48 62 60 59 53 42 30 27 32 38
60 70 81 55 65 50 34 40 54 68 92 95 55 79 92 94 100 95 83 98 93 91 82 69 65 47 50 44 52 56 71 53 52 52 54 59 67 69 61 55 32 27 32 39
46 73 96 82 76 58 56 51 59 85 89 97 92 99 99 98 98 99 93 77 66 60 53 51 49 55 50 52 57 62 64 72 79 80 66 69 72 70 63 63 40 30 30 39
62 92 98 99 81 84 71 75 69 95 99 94 99 98 98 99 97 90 70 59 60 57 63 62 63 58 52 55 74 75 98 90 70 76 73 83 74 65 64 71 47 34 36 42
91 98 90 92 98 98 89 76 72 99 98 98 97 98 98 88 62 64 66 66 76 92 100 84 76 64 62 67 93 99 98 92 85 82 89 90 81 73 81 76 50 43 47 49
72 80 92 97 97 90 81 95 98 85 96 98 98 98 97 83 71 69 75 97 98 98 99 98 95 76 67 68 96 98 99 94 87 90 89 86 86 79 98 77 96 95 73 54
58 91 74 99 94 99 96 97 99 99 76 97 98 98 100 95 93 97 100 100 98 94 93 90 98 100 85 75 90 97 100 100 99 100 100 100 99 99 99 98 69 100 71 66
91 94 90 99 98 69 96 94 82 98 98 98 100 99 99 100 100 98 97 94 95 99 94 95 93 98 96 89 99 99 100 98 99 99 100 99 79 81 82 87 99 98 73 69
81 92 90 95 93 78 95 96 91 98 100 100 98 99 99 100 90 94 98 97 100 96 98 98 95 97 99 98 94 93 99 100 99 100 100 100 99 100 100 99 94 100 83 70
93 83 76 82 88 93 97 100 99 75 97 100 100 99 100 100 94 98 99 98 100 100 99 100 90 97 99 100 100 100 100 96 99 100 100 100 100 99 99 99 100 87 92 93
79 85 84 82 96 97 73 81 92 92 98 89 99 88 100 99 96 94 94 96 96 99 100 92 87 81 91 100 99 100 99 99 96 99 100 100 99 100 100 100 98 99 91 95
60 68 83 76 77 96 81 76 90 100 96 90 94 99 100 93 95 97 97 98 99 97 94 93 74 60 63 72 85 91 100 98 98 94 97 100 100 100 100 100 100 100 100 100
56 64 81 88 96 77 69 57 82 89 99 99 98 99 98 96 95 95 95 98 97 96 95 92 91 71 56 52 53 57 58 87 96 96 96 96 94 96 98 98 100 99 98 100
71 92 82 86 89 93 79 66 71 98 99 99 99 94 87 85 89 91 95 96 95 91 94 93 91 94 91 55 45 45 45 44 47 62 89 94 94 91 92 95 98 94 96 98
86 94 85 92 98 100 97 92 100 99 98 98 98 91 86 87 89 89 86 87 87 86 84 83 75 63 51 46 44 42 39 37 37 38 39 37 34 54 86 95 95 95 96 97
100 94 77 97 96 96 92 95 96 98 97 98 96 93 87 86 80 76 72 71 67 66 67 66 68 71 66 51 44 40 39 38 37 37 36 36 37 41 49 73 83 83 90 94
92 90 84 88 87 88 93 94 94 95 97 96 92 98 90 82 74 74 72 69 67 63 63 63 63 60 56 54 52 48 43 42 38 36 38 39 38 41 42 41 50 65 78 99
83 80 88 88 84 88 93 96 96 95 95 97 94 81 76 69 63 63 62 62 62 60 60 59 58 61 62 59 57 55 53 52 49 44 40 40 40 37 38 39 40 41 44 52

GFSCGP_700_rhum_114.txt.gz
RH
49 44 46 62 78 74 50 47 40 47 42 53 48 48 43 40 40 40 40 37 33 31 31 29 28 28 26 23 23 24 20 22 24 26 44 43 42 48 45 25 23 24 33 32
56 61 41 32 53 90 75 66 52 31 37 56 50 45 50 48 42 39 41 39 35 34 34 31 29 30 30 33 33 29 24 23 23 26 35 43 49 59 52 41 24 24 32 35
77 57 67 67 37 58 79 69 53 34 22 39 34 52 49 45 44 40 40 40 38 32 31 31 30 32 33 34 34 34 34 31 25 24 34 46 50 64 60 45 28 24 25 33
64 62 72 80 58 42 94 62 54 33 33 34 79 86 65 52 47 40 41 35 35 32 32 34 34 34 33 34 34 33 33 33 33 29 26 32 40 47 49 50 40 26 25 28
26 29 43 84 49 41 77 76 65 32 28 38 49 85 54 43 40 47 44 42 35 34 32 32 32 33 34 34 34 33 33 36 37 39 38 26 36 57 51 46 40 37 28 26
41 44 61 41 38 46 49 60 54 47 46 72 62 69 48 51 38 32 45 47 41 39 33 33 35 35 34 34 35 37 38 38 44 44 57 77 66 55 44 44 40 33 28 26
64 48 49 54 48 43 53 65 76 67 81 75 55 83 52 56 84 43 43 52 53 50 42 38 34 36 36 35 35 37 40 45 42 41 45 68 66 61 59 54 46 41 30 29
81 53 38 43 43 44 46 51 54 71 87 73 46 54 48 81 97 100 80 94 86 71 61 50 45 43 41 39 38 37 38 39 45 51 48 48 49 52 62 62 56 48 34 33
77 54 39 47 56 71 49 56 42 42 55 73 46 64 78 100 98 93 93 84 78 76 70 70 64 55 40 39 36 34 34 32 34 40 45 48 48 45 56 58 65 56 41 35
73 62 57 61 62 69 68 44 55 55 84 94 71 91 99 99 99 99 99 96 97 90 84 73 61 52 54 49 35 34 37 38 35 35 42 49 49 46 52 59 70 52 55 37
84 58 53 72 65 63 57 54 49 51 66 99 95 97 99 98 98 92 98 99 98 84 77 61 67 68 57 46 33 32 32 44 43 42 56 74 71 58 58 61 63 53 62 50
84 92 93 98 83 76 67 50 45 52 84 80 96 97 98 97 98 95 98 97 90 95 59 52 50 59 62 46 42 40 44 53 57 51 55 60 76 65 65 73 66 60 60 56
96 95 89 95 86 79 82 72 62 64 80 98 97 98 96 98 96 98 99 98 97 97 97 72 78 73 63 53 44 42 58 79 90 86 85 76 80 80 80 96 77 65 67 74
87 91 100 97 92 95 99 92 91 97 95 98 96 96 97 98 100 100 99 100 100 97 94 86 77 69 63 55 53 51 73 96 98 100 98 97 88 82 86 85 83 81 89 81
80 95 98 100 99 93 99 99 99 99 93 94 97 96 97 100 100 100 100 100 93 85 82 79 79 76 79 77 72 69 97 100 88 92 86 95 87 90 98 92 85 80 100 77
68 90 95 97 98 96 97 97 98 98 98 97 98 96 98 99 99 98 98 100 94 83 80 91 94 87 80 79 83 90 100 99 100 97 100 84 100 100 95 79 87 96 100 96
88 83 89 97 97 91 90 98 96 97 95 98 99 100 98 100 99 99 99 100 100 97 92 83 82 82 81 78 80 81 86 86 94 99 100 99 99 100 98 99 98 98 97 99
84 76 77 96 83 86 97 98 97 98 100 100 100 100 98 99 100 97 99 100 100 100 96 89 72 79 90 98 93 95 96 96 93 98 99 99 100 100 97 98 78 92 83 98
86 88 88 96 95 97 95 97 99 100 100 99 99 99 99 100 100 97 93 90 90 89 86 88 67 56 57 66 72 87 97 100 100 98 98 98 100 100 100 100 100 100 100 100
87 89 83 97 90 95 94 100 99 82 99 100 99 100 98 97 93 89 88 87 87 90 95 90 85 74 61 50 47 49 48 75 99 96 97 97 96 97 99 99 100 99 100 100
66 62 88 87 86 89 88 100 99 91 97 99 98 96 92 87 84 86 88 90 90 83 87 89 87 82 86 77 48 41 41 45 42 62 93 100 99 96 96 98 97 98 96 99
76 85 79 81 82 91 79 86 82 95 97 99 93 85 79 80 81 82 84 85 82 81 82 82 78 72 60 49 44 41 39 36 34 34 38 46 74 97 96 95 95 96 97 94
78 91 87 97 95 100 97 86 91 95 100 96 91 84 85 86 80 74 68 65 65 64 64 63 65 68 72 64 51 43 38 35 35 34 34 32 34 38 63 74 61 78 92 97
100 93 86 95 100 96 94 93 97 98 98 94 89 86 82 80 77 75 72 69 68 65 64 62 60 59 56 52 49 45 44 41 37 36 34 34 34 34 35 39 40 53 82 57
82 93 89 95 98 99 97 97 94 90 85 89 90 86 76 71 70 68 67 64 62 60 57 56 55 56 57 57 56 54 53 50 48 46 44 41 36 34 34 38 36 38 42 58
72 76 84 86 86 91 92 93 90 89 87 83 87 82 78 71 68 66 64 63 61 60 58 57 55 53 54 55 55 54 53 52 52 52 51 50 51 48 44 42 45 46 44 42

GFSCGP_700_rhum_117.txt.gz
RH
42 45 51 31 40 49 59 76 84 71 28 21 35 55 33 18 42 46 35 36 42 42 40 37 36 33 31 29 25 23 23 22 23 25 26 28 32 57 60 47 51 47 26 27
37 41 39 51 48 46 45 56 72 66 30 60 45 20 40 49 45 46 46 40 39 43 38 38 37 36 35 30 28 29 28 30 25 23 22 22 28 33 49 58 51 54 38 27
36 21 43 64 54 61 68 48 43 76 63 70 47 35 15 32 50 41 43 45 41 39 41 47 46 42 40 35 28 31 32 33 31 28 25 23 26 29 58 68 58 53 48 31
42 27 38 44 41 40 77 54 50 66 86 61 46 55 44 38 39 43 45 45 46 46 41 49 59 47 40 32 30 30 31 34 32 31 33 34 25 25 33 46 43 60 48 46
38 49 55 53 28 47 56 45 49 86 84 67 53 46 47 37 54 46 40 45 43 46 41 43 44 41 33 31 30 30 32 33 34 34 35 38 40 43 47 43 53 56 59 48
47 56 62 35 45 56 63 45 59 60 64 67 45 46 54 80 87 66 49 58 46 46 42 39 38 38 36 35 32 33 33 32 34 35 35 38 38 39 46 66 84 83 68 50
62 43 39 65 81 69 71 61 82 74 80 81 47 61 61 98 97 98 86 82 67 57 62 43 41 38 39 38 37 36 36 35 35 36 40 42 45 48 48 65 64 99 57 56
88 70 53 48 54 56 46 43 76 70 74 67 60 88 98 100 98 100 100 100 95 89 86 73 64 48 42 39 37 37 37 36 34 37 38 42 43 44 48 61 81 66 60 55
97 74 64 59 64 62 52 55 50 63 55 79 80 99 97 99 98 99 100 100 92 94 93 81 68 64 58 49 43 40 38 37 37 42 42 40 41 44 46 50 60 65 61 50
83 95 61 63 62 60 53 67 65 65 71 83 92 96 98 97 97 98 99 99 97 98 95 84 70 60 52 47 42 40 38 38 37 36 36 36 41 44 43 49 59 61 59 60
99 99 65 97 79 67 68 66 70 55 59 96 96 97 96 96 96 98 99 99 99 98 90 84 79 74 64 52 44 37 36 36 32 33 35 41 45 47 49 46 50 56 59 64
97 99 97 75 90 95 88 70 64 50 60 74 84 98 97 96 97 98 100 99 98 97 98 79 71 65 62 59 48 38 37 31 36 43 39 47 58 69 93 73 67 67 64 68
95 99 97 70 72 89 96 77 63 52 67 96 97 99 97 96 97 98 98 99 98 95 99 82 77 63 54 47 37 32 34 37 46 73 86 82 76 65 65 62 70 74 66 72
98 97 98 97 98 98 98 83 86 66 84 97 97 96 95 98 98 98 98 99 98 98 86 84 79 64 66 62 53 55 51 45 60 96 99 88 92 85 78 76 85 81 74 76
94 96 97 96 97 100 100 97 98 82 92 94 96 96 96 96 96 95 97 96 96 88 86 80 81 79 77 70 73 73 68 74 82 75 94 98 98 100 82 91 91 90 100 95
96 95 98 94 96 97 96 96 97 96 95 95 95 93 97 96 97 97 95 96 96 91 84 89 85 79 77 78 78 80 86 91 96 98 97 86 84 94 89 90 81 100 94 90
95 94 93 97 87 69 85 96 96 97 97 95 85 97 100 98 98 96 97 98 100 97 88 65 67 71 79 82 85 85 87 91 89 82 80 90 92 98 99 98 91 95 89 79
88 91 88 97 91 88 96 96 96 95 96 96 94 95 95 96 95 96 98 99 96 93 88 69 58 54 52 53 57 70 84 96 97 97 95 98 100 100 98 93 95 99 100 100
99 89 97 89 94 96 96 96 94 93 98 98 96 95 96 96 95 97 94 95 94 88 84 81 80 79 76 55 45 44 44 60 89 88 90 93 94 98 100 93 100 86 100 100
88 97 96 94 86 94 96 95 82 83 100 98 99 98 96 97 98 91 90 90 92 93 91 86 78 70 72 68 51 40 37 35 36 38 73 84 92 99 97 97 94 98 100 100
63 72 94 87 94 92 94 97 93 96 94 92 95 89 90 93 88 86 86 89 87 83 80 79 77 75 70 58 51 45 40 35 32 31 30 31 49 82 94 96 98 98 94 97
87 92 84 86 83 93 89 98 89 94 96 96 93 90 92 88 81 78 74 72 70 69 66 61 58 56 56 57 53 50 45 40 35 32 30 29 30 33 39 62 90 96 98 98
76 93 92 95 98 99 97 88 90 96 100 100 98 95 91 87 82 78 76 74 71 68 62 59 57 54 52 51 48 46 44 42 41 38 35 32 31 32 33 33 35 46 75 91
81 81 80 92 98 100 96 96 97 98 99 94 93 93 82 77 71 68 66 62 58 55 54 53 53 52 50 47 45 45 46 47 48 47 47 45 42 38 33 33 33 35 44 58
70 74 76 78 82 90 90 92 94 93 91 90 86 80 76 69 63 60 58 55 54 52 51 49 47 45 44 42 42 42 42 42 44 45 46 47 47 46 45 43 41 41 41 40
65 71 68 75 73 77 88 90 90 90 91 92 90 84 78 71 64 57 53 51 49 45 38 29 22 18 15 13 13 12 12 12 14 18 24 30 39 45 47 48 48 48 50 50

GFSCGP_700_rhum_120.txt.gz
RH
28 32 23 33 42 46 49 48 47 44 31 37 56 74 66 35 13 15 16 34 44 18 14 36 38 34 31 29 29 34 49 41 33 37 34 29 27 34 47 40 56 54 50 60
38 31 22 29 36 52 47 59 51 44 41 50 54 66 68 47 17 18 17 18 42 40 34 41 42 39 37 37 34 32 30 28 27 26 24 24 24 26 30 40 54 61 60 61
52 33 40 36 41 55 44 55 54 60 61 48 61 66 54 20 35 15 12 31 39 49 52 40 43 41 39 39 38 36 33 31 30 27 26 26 26 23 24 26 40 41 68 74
45 45 47 44 42 57 51 40 53 65 66 72 79 86 53 28 31 54 60 47 34 51 46 48 44 45 49 43 40 39 35 32 32 31 31 32 31 27 24 26 28 47 68 56
51 57 71 65 36 64 55 63 62 54 59 64 74 87 56 43 55 81 78 50 46 52 46 48 44 43 55 52 43 44 43 39 34 31 32 34 34 33 31 28 34 43 58 50
54 49 43 42 39 57 61 82 62 64 63 84 67 71 62 95 100 98 100 77 60 54 48 46 49 45 46 49 47 50 42 39 34 30 32 34 34 35 37 34 30 34 60 60
44 48 48 50 42 50 66 84 78 80 95 80 45 54 98 97 99 100 99 100 98 79 61 50 50 47 50 50 54 48 36 35 32 32 35 35 37 38 39 39 37 37 50 70
97 61 52 59 64 53 54 64 66 74 74 89 76 78 98 97 97 98 97 100 99 100 90 74 73 69 61 54 48 46 48 43 37 34 34 35 37 39 40 41 44 47 48 70
94 69 58 68 71 82 59 54 43 56 70 75 88 97 98 97 96 97 98 98 99 100 99 98 92 86 83 72 66 63 51 44 41 40 39 37 34 33 35 39 46 47 48 56
97 98 68 66 84 66 80 72 83 77 92 83 95 96 96 93 96 96 97 97 99 99 98 94 91 87 83 79 73 67 62 56 52 50 47 44 42 40 39 39 40 40 49 69
98 98 72 84 86 86 78 91 80 82 86 96 95 97 98 96 96 97 97 97 98 99 99 99 99 81 78 71 66 59 56 48 46 43 40 36 34 34 36 38 41 44 48 63
100 94 97 70 92 85 100 89 77 76 59 73 88 97 96 97 96 96 96 96 97 98 97 99 99 99 89 73 64 56 52 44 41 39 36 30 30 35 37 40 43 48 55 58
94 96 98 70 83 93 89 85 84 79 68 99 93 99 95 96 95 97 97 97 98 98 97 97 98 96 70 61 57 50 40 32 28 28 35 34 48 75 68 63 64 79 77 66
98 98 96 97 98 97 87 86 93 81 73 95 96 96 96 96 96 96 96 97 96 97 100 100 98 95 75 59 53 54 51 47 44 43 44 67 98 100 86 88 83 85 90 84
97 97 97 97 96 98 98 98 98 88 97 89 96 94 96 96 96 96 96 97 97 97 97 97 92 88 86 78 77 77 78 75 79 76 80 94 98 100 98 88 88 87 88 91
96 97 97 95 90 96 97 96 97 97 95 95 96 95 96 96 96 97 97 97 96 76 64 63 72 70 71 69 73 75 73 78 83 86 85 93 98 96 99 97 95 86 100 99
95 99 97 91 74 74 79 96 96 98 96 96 95 97 96 97 97 96 96 96 97 87 69 63 56 51 47 46 45 48 77 86 88 87 90 88 89 84 90 95 98 82 88 90
91 97 96 96 88 88 95 96 97 95 96 97 96 97 96 96 98 97 96 97 96 90 89 84 83 81 70 49 43 40 39 42 54 78 85 88 95 99 100 100 92 96 100 93
86 97 97 88 97 94 96 96 94 95 96 99 96 94 97 98 97 97 95 92 87 81 79 78 71 63 55 49 46 41 37 35 34 32 42 66 80 85 89 97 100 95 97 100
83 97 97 94 86 93 95 89 83 88 98 96 98 98 96 91 92 91 89 85 82 78 77 74 74 74 72 64 57 50 43 37 34 32 30 29 29 37 74 83 83 93 93 87
60 88 95 93 99 95 99 95 92 96 94 93 92 91 94 95 86 76 70 70 68 64 64 61 59 55 51 49 47 46 43 42 40 38 35 32 30 29 28 30 53 74 85 94
88 94 95 95 92 93 97 96 83 89 94 94 92 89 85 78 74 72 70 70 67 64 60 58 56 52 50 51 51 49 49 44 45 46 45 43 39 34 30 28 27 27 34 70
74 84 88 88 95 99 97 92 85 88 89 92 87 81 78 72 68 62 59 58 56 54 52 50 47 44 45 45 44 43 41 42 42 42 41 40 41 42 41 39 34 29 28 29
75 72 78 82 87 92 92 92 90 90 89 89 89 82 72 67 63 58 54 52 48 46 44 41 37 32 26 21 17 15 14 14 15 14 16 18 23 30 36 39 42 41 40 37
80 80 76 75 81 86 88 91 91 91 92 90 83 79 74 69 63 57 53 50 46 38 26 17 14 13 12 12 11 12 12 11 11 11 11 10 10 10 10 11 18 32 41 44
71 78 72 75 74 80 88 91 93 94 94 94 90 83 77 71 64 59 52 39 26 18 13 12 13 14 14 13 12 11 10 9 8 7 7 7 7 8 9 10 10 10 12 25

GFSCGP_700_rhum_123.txt.gz
RH
22 20 24 31 25 25 42 53 54 26 20 55 48 59 49 14 13 16 20 23 15 6 6 4 5 10 31 38 52 60 66 72 75 57 62 61 50 46 50 46 57 58 61 56
26 25 29 31 30 28 33 56 42 29 19 54 54 54 19 13 22 47 52 34 34 14 11 30 12 12 24 38 44 61 64 73 76 58 61 70 66 54 48 46 43 35 46 56
29 36 43 51 48 37 38 53 41 51 28 25 64 50 58 37 42 46 39 37 29 12 13 37 52 24 36 38 36 46 53 66 69 64 61 57 39 34 32 34 35 37 36 42
41 52 54 58 51 56 70 57 56 48 73 66 66 52 58 70 69 90 75 49 51 20 22 33 47 51 42 40 35 31 32 32 34 37 32 30 29 28 25 24 24 27 33 40
51 59 48 36 40 38 41 54 55 53 80 78 44 70 58 81 77 78 97 99 80 72 42 41 51 54 54 44 42 38 37 36 36 35 34 32 31 30 30 30 30 26 33 43
45 52 35 37 53 43 57 60 56 53 83 78 70 85 80 97 98 94 96 97 99 99 70 44 57 50 56 50 48 41 39 39 38 38 38 40 34 31 33 34 32 28 29 37
44 39 38 53 65 46 54 71 58 63 88 59 59 66 97 98 96 96 96 97 99 99 100 76 67 55 54 51 51 46 41 40 42 40 39 43 43 39 35 34 35 33 32 31
72 62 48 61 67 67 65 59 52 54 47 45 53 92 97 96 96 96 96 96 97 99 100 100 89 65 54 53 48 44 44 45 42 41 45 42 42 46 39 40 40 40 43 42
99 82 67 76 73 77 79 62 55 64 61 66 83 96 97 95 96 96 96 96 97 98 99 99 100 93 73 64 53 46 53 60 61 57 55 55 58 59 46 43 43 39 38 43
91 95 72 76 73 86 84 74 87 85 82 89 91 96 97 92 96 96 96 96 97 97 99 100 100 100 100 92 75 66 62 60 70 62 72 68 71 66 62 50 45 41 38 40
91 95 76 81 81 90 92 96 95 89 84 86 82 96 97 96 96 95 96 96 96 97 97 99 100 95 89 85 83 82 81 81 74 71 83 83 67 64 47 43 42 41 42 43
90 97 100 83 83 90 86 92 96 91 73 90 98 96 96 96 96 95 96 97 96 96 96 97 98 99 98 92 85 89 92 93 97 91 83 73 58 49 42 36 32 32 35 42
98 89 92 65 83 72 91 91 98 98 98 99 96 96 95 96 96 96 96 97 96 96 96 97 97 95 94 98 97 87 92 77 62 53 45 41 38 40 39 37 45 40 37 40
98 93 90 94 97 98 99 96 93 98 94 96 96 95 96 96 96 96 96 96 97 96 97 98 98 97 98 98 98 93 83 64 50 42 39 40 46 59 65 85 82 75 71 72
92 95 98 93 95 96 99 100 100 98 97 95 96 94 95 95 96 96 96 96 95 95 96 95 93 96 96 98 99 87 78 75 73 72 69 72 98 99 98 93 86 92 93 95
90 95 96 97 96 96 95 98 96 98 94 96 96 94 95 95 96 96 96 96 97 96 91 82 60 55 54 49 64 73 76 75 77 77 78 80 85 96 97 90 100 89 97 99
85 97 94 97 96 95 88 96 97 96 94 94 94 95 96 96 96 96 96 96 96 96 96 78 66 53 46 42 39 36 35 34 42 69 76 83 89 98 100 100 100 99 96 97
74 85 98 96 96 90 96 95 96 94 95 97 96 96 96 95 95 96 96 95 90 82 78 75 65 56 51 46 42 39 36 34 32 30 30 35 62 76 80 86 96 91 91 94
76 81 98 97 97 96 98 97 96 95 96 96 98 97 96 97 95 93 84 80 76 71 67 65 64 64 58 53 50 46 43 40 36 34 31 29 27 27 36 64 77 81 90 97
71 75 96 87 85 86 94 96 94 90 91 94 95 96 95 90 85 76 70 66 65 62 60 59 56 57 54 48 46 46 44 42 39 38 37 36 34 30 28 26 26 32 66 80
59 79 94 97 97 91 95 88 88 94 88 93 94 94 84 77 73 70 66 64 60 56 53 50 50 47 42 40 40 38 36 34 32 33 34 35 36 36 36 35 32 27 26 27
70 77 90 95 96 94 95 97 91 91 92 92 89 86 83 77 69 63 61 59 55 52 49 45 41 35 30 27 23 22 19 19 17 17 17 17 17 19 24 29 34 38 39 35
73 74 72 84 93 93 97 96 92 93 98 97 92 83 73 65 61 58 55 51 48 44 38 28 23 18 16 14 13 12 12 11 11 10 10 10 10 9 9 9 10 11 19 30
69 69 73 77 85 91 94 94 93 90 92 93 88 76 68 65 60 54 51 48 42 30 22 20 16 14 13 13 12 12 11 10 9 8 7 6 6 6 5 6 7 8 9 9
69 72 67 72 80 85 86 87 90 89 89 87 82 78 73 66 60 56 51 38 24 18 14 14 14 14 13 11 10 8 6 5 5 5 4 4 4 4 4 4 4 4 4 5
66 70 69 63 72 74 79 83 84 85 85 85 83 78 73 68 61 53 35 21 15 14 15 15 14 11 8 7 6 5 5 5 4 4 4 5 5 5 4 4 4 4 3 3

GFSCGP_700_rhum_129.txt.gz
RH
37 28 21 21 28 27 24 22 20 18 20 25 27 25 22 23 26 58 67 45 50 71 56 30 23 19 52 48 28 13 5 20 51 66 65 54 34 24 23 24 25 26 28 30
29 32 30 17 18 28 31 29 26 24 24 28 26 25 23 20 55 58 49 51 49 45 42 40 45 25 15 25 26 26 8 12 42 100 72 65 45 30 24 26 28 32 30 34
33 31 29 20 38 35 31 30 31 31 31 30 26 21 17 23 56 77 84 56 49 49 50 50 50 51 30 16 14 15 18 11 35 64 99 78 76 39 28 27 35 49 49 54
40 40 34 43 38 40 38 41 42 39 35 24 25 23 28 52 63 68 54 56 53 54 57 60 64 58 53 36 26 18 12 20 34 49 88 92 98 43 32 29 56 58 65 64
47 48 47 44 42 49 43 54 49 45 40 35 21 20 48 69 54 49 62 63 63 72 72 74 79 84 67 63 26 20 12 29 39 41 49 80 93 66 44 34 68 63 61 69
50 53 34 44 51 52 56 60 51 48 41 33 22 29 50 67 69 69 67 73 77 82 84 88 89 88 100 86 60 63 25 33 47 54 48 82 83 86 92 58 86 59 56 58
49 51 52 41 53 60 65 56 45 36 36 32 19 25 87 71 68 78 83 86 86 89 95 92 90 95 99 98 93 98 83 63 52 51 71 52 79 95 92 80 93 95 86 60
40 50 51 53 52 53 55 56 45 38 27 27 30 41 100 87 70 79 90 90 92 91 95 98 93 99 99 100 98 99 98 93 56 51 85 100 63 91 99 100 82 66 68 37
56 44 52 54 57 63 73 60 55 48 46 46 51 88 95 98 71 75 78 82 80 86 95 98 98 99 97 100 99 100 98 97 84 60 50 76 71 74 62 60 77 56 62 43
78 76 64 58 72 68 67 75 69 59 59 55 35 88 92 69 70 75 76 80 84 91 94 97 98 96 99 100 100 100 99 98 88 91 76 75 76 71 66 68 58 62 58 52
91 81 66 69 65 65 80 80 83 61 54 60 58 88 100 78 78 81 85 86 90 92 94 96 96 96 97 97 100 100 99 94 91 84 87 98 98 80 97 79 74 65 54 48
98 86 86 64 64 73 76 78 94 67 55 68 75 95 87 75 80 88 89 90 92 94 95 96 96 97 96 99 100 100 100 100 97 80 84 95 92 93 90 73 64 60 57 57
97 89 70 67 79 65 67 80 87 92 98 85 90 95 85 81 83 87 87 91 95 95 96 96 97 96 96 97 98 98 99 100 100 100 100 96 90 86 77 81 80 83 78 75
85 85 87 65 78 69 87 91 93 87 93 97 98 98 87 83 87 88 90 93 95 95 96 96 96 96 97 97 97 98 98 98 99 100 98 98 93 81 82 89 83 89 93 78
93 98 89 92 82 99 86 96 83 98 97 96 95 86 81 84 85 86 90 93 96 96 95 94 91 86 95 97 97 97 98 98 99 99 99 98 98 88 74 90 96 88 81 98
94 98 94 99 99 100 82 83 94 99 96 95 88 82 85 85 86 94 95 93 95 95 94 95 94 91 60 51 46 63 64 83 92 92 98 97 94 98 97 100 100 99 100 99
97 98 99 92 93 100 94 82 89 97 100 99 97 88 86 89 92 94 90 86 83 80 65 78 84 88 62 79 59 44 37 34 32 30 29 30 34 36 40 48 63 80 88 94
88 87 92 96 100 86 93 78 86 89 91 90 94 92 92 91 88 78 71 65 62 59 56 53 50 48 44 42 40 41 40 38 36 36 36 35 34 34 33 31 29 27 28 29
93 85 82 79 80 99 97 81 80 92 92 90 92 93 92 85 74 71 68 62 57 52 49 44 39 32 26 22 20 19 19 18 17 18 17 17 18 17 17 17 17 18 19 21
96 96 94 76 67 75 98 96 77 82 100 85 88 87 86 75 90 72 62 55 50 45 37 27 20 17 15 14 13 12 11 11 10 10 10 9 9 8 8 8 9 9 8 8
88 75 80 77 72 98 100 73 86 96 95 77 80 81 76 72 71 64 59 51 44 34 22 18 16 15 13 12 11 10 9 8 8 7 7 6 6 6 6 5 5 5 5 5
64 67 84 80 74 88 80 90 94 96 80 81 84 76 73 69 60 58 52 45 34 22 18 16 15 13 12 11 9 8 7 7 7 6 6 5 5 6 6 6 6 6 6 6
78 77 96 83 95 88 82 92 89 82 82 80 78 76 68 59 56 51 46 37 24 20 18 15 13 12 10 8 7 7 7 7 6 6 7 8 8 9 9 9 9 9 9 8
66 49 91 67 74 81 83 96 94 87 85 81 77 68 60 56 53 50 43 30 22 17 15 14 12 10 8 7 7 8 8 8 9 10 10 11 12 12 12 12 12 12 12 12
90 76 73 66 66 85 94 95 96 94 89 86 78 67 64 60 56 51 38 24 16 15 14 12 10 7 7 8 9 10 11 13 14 15 15 15 15 15 14 13 13 13 12 12
76 89 67 91 58 76 83 91 92 94 93 90 80 74 69 64 58 42 26 16 16 15 12 9 8 8 10 12 15 17 17 17 17 17 17 17 16 16 16 16 16 15 15 16

GFSCGP_700_rhum_132.txt.gz
RH
37 33 26 22 26 26 23 16 16 16 17 20 21 22 21 22 26 42 53 37 25 25 26 35 36 36 29 13 24 40 23 5 10 33 47 45 68 68 71 42 29 21 21 23
34 32 26 25 22 14 21 23 23 22 22 23 23 23 23 31 43 45 27 28 38 40 41 40 38 34 35 37 12 13 18 18 18 36 49 46 54 69 74 65 38 23 22 23
32 28 33 30 29 28 27 28 26 28 29 28 26 22 16 41 48 45 44 44 39 43 44 43 43 44 40 46 39 31 25 15 13 34 51 57 39 60 73 77 46 33 25 23
33 31 31 35 31 28 28 32 39 37 35 30 24 24 20 47 51 43 36 36 41 48 50 51 56 54 53 56 50 46 37 20 13 10 47 67 77 97 79 72 58 40 29 25
36 33 42 37 30 37 36 41 46 47 42 38 33 25 48 46 49 41 40 44 51 59 61 61 64 67 67 66 66 53 40 13 28 8 13 54 90 71 98 79 76 50 34 27
38 45 43 38 37 44 45 43 50 50 44 41 26 22 54 47 50 49 45 52 59 63 72 70 68 73 73 80 96 95 65 36 20 7 5 28 80 96 94 98 97 72 51 34
42 38 42 43 43 46 56 57 48 45 47 39 18 22 83 83 59 50 50 59 62 74 80 83 78 76 78 78 98 98 90 36 46 22 10 10 51 99 98 97 69 99 75 60
42 39 40 45 43 39 54 47 45 48 33 34 34 50 100 79 59 56 59 64 75 77 88 90 85 82 77 73 77 91 100 95 98 99 45 32 31 83 93 99 95 72 98 90
53 38 43 45 46 46 51 50 52 51 50 47 49 96 100 98 69 58 61 70 74 79 92 94 90 87 88 84 90 92 100 100 99 100 96 73 36 42 99 99 100 100 87 92
72 71 49 46 50 51 54 59 62 55 58 53 34 95 100 92 63 62 63 70 79 87 92 96 93 88 92 89 96 98 99 97 100 100 100 99 56 46 96 88 98 97 97 98
80 82 57 52 60 54 66 61 60 63 62 66 62 86 88 75 64 65 70 78 88 89 93 96 96 96 98 95 96 97 97 98 98 99 100 100 75 91 98 98 90 100 99 90
82 88 88 60 54 58 74 73 81 94 62 55 85 92 87 68 68 70 75 85 93 94 94 95 96 98 97 95 95 97 98 100 98 99 100 99 98 100 99 98 82 95 86 100
88 79 68 62 65 63 60 81 73 83 94 90 90 93 88 75 68 71 76 85 90 96 98 96 96 96 96 96 96 96 97 99 100 99 99 98 100 92 95 99 100 98 93 86
99 87 82 98 94 85 72 76 84 82 84 82 97 93 94 72 73 75 78 82 86 90 94 96 96 94 95 96 96 97 97 97 100 100 100 99 99 100 97 94 96 97 92 89
87 85 97 87 91 66 56 61 79 100 98 98 96 86 75 72 75 74 79 83 89 93 94 94 94 93 92 94 95 94 94 97 97 98 99 98 98 99 100 91 88 93 85 83
85 99 86 79 71 89 92 78 77 100 100 100 94 83 72 76 75 76 82 85 84 78 83 91 84 89 94 93 92 87 66 45 47 56 81 96 95 98 99 97 96 94 89 87
94 97 98 90 82 98 99 88 78 97 97 99 100 81 77 76 78 82 77 71 65 56 55 53 50 47 42 39 37 34 33 36 35 36 35 33 34 30 29 29 30 30 36 33
82 91 93 82 95 91 84 77 86 96 84 78 83 81 75 76 77 69 63 60 57 53 47 41 32 23 18 15 15 14 14 15 15 16 15 14 15 16 15 15 17 17 18 17
93 97 87 75 85 98 88 76 75 91 88 76 75 78 76 76 68 62 58 57 52 46 37 24 18 17 15 13 12 11 10 10 10 10 10 9 8 8 7 7 8 7 6 6
85 84 88 76 75 77 99 81 95 100 98 75 78 77 77 71 62 59 55 51 47 36 24 19 17 15 13 11 10 9 8 8 7 7 7 6 6 5 5 5 5 5 5 5
81 84 83 73 65 98 98 100 89 97 96 74 70 73 76 64 66 58 53 48 39 26 22 20 16 13 11 10 9 8 8 8 7 6 6 6 6 6 6 7 7 7 7 7
73 79 77 70 67 93 90 86 99 95 92 78 75 72 69 63 61 56 51 43 29 23 22 17 14 12 10 8 8 8 8 8 8 8 8 9 9 10 10 10 10 10 10 10
70 74 95 78 79 80 81 77 88 92 79 78 77 77 68 64 57 53 47 38 27 24 19 15 12 10 8 8 8 9 10 11 12 13 13 13 13 13 13 13 13 13 12 12
68 69 77 64 55 61 71 79 88 95 85 77 76 74 66 59 55 51 44 33 27 21 16 13 11 9 8 9 11 13 15 16 17 17 17 17 16 16 15 15 14 14 14 14
99 84 54 45 48 55 66 77 89 95 93 89 84 70 62 58 54 51 41 32 23 18 14 11 9 8 10 14 17 17 18 18 19 19 19 19 19 18 18 17 17 16 16 16
84 83 69 64 53 45 49 77 88 95 95 95 94 82 77 69 58 50 35 24 18 15 12 9 10 13 17 17 15 14 11 9 8 8 9 14 20 21 21 21 21 19 18 17

GFSCGP_700_rhum_135.txt.gz
RH
17 26 26 19 26 28 28 24 20 12 7 17 20 21 22 22 24 26 26 26 27 26 26 34 33 32 32 30 27 20 13 9 10 16 26 44 44 38 60 73 95 85 75 28
29 37 29 23 28 27 25 20 16 11 22 23 23 23 24 27 28 28 30 28 26 34 28 26 32 36 36 31 27 28 29 21 24 9 7 25 40 43 43 81 76 68 72 59
35 32 32 32 30 27 24 17 23 28 27 25 24 26 29 35 43 39 30 32 38 28 25 31 36 36 37 37 39 38 37 33 31 29 16 9 22 43 44 66 86 76 79 72
33 30 31 32 32 29 28 25 32 29 33 36 31 36 37 44 46 41 40 39 31 27 32 38 39 43 42 42 51 46 45 40 37 37 30 27 9 23 54 50 97 77 83 72
39 34 32 33 33 31 29 32 39 37 33 45 36 41 50 63 54 48 44 36 34 34 38 41 47 49 53 52 48 55 51 44 40 41 45 37 26 9 31 72 97 90 86 80
46 38 44 35 34 33 35 34 32 26 50 64 27 43 57 61 52 48 44 41 40 39 44 52 57 55 57 59 60 55 40 26 46 56 50 32 13 7 8 59 97 100 96 85
36 46 38 44 42 40 40 39 61 67 72 69 31 42 77 70 58 56 51 48 44 47 52 58 58 59 59 66 70 70 74 61 50 47 44 28 13 8 6 24 88 99 100 90
52 49 36 32 43 32 38 45 59 69 64 62 48 83 97 80 72 67 58 54 51 56 61 66 69 70 70 79 76 77 78 81 79 89 62 28 19 26 19 20 56 86 100 92
60 56 50 38 36 40 44 49 53 52 55 60 53 97 96 84 74 69 57 54 59 65 68 75 80 84 87 89 93 90 86 81 77 86 100 98 100 100 97 71 37 83 86 97
58 67 55 45 45 42 46 58 58 60 70 77 82 96 96 91 82 59 56 59 67 73 80 84 90 93 94 99 100 100 99 92 96 95 98 99 98 99 98 47 28 95 86 91
71 65 52 56 48 46 50 52 56 60 66 91 89 94 80 78 67 60 59 66 70 77 80 93 97 98 99 100 98 100 96 94 94 94 98 98 99 99 99 46 40 65 89 82
69 72 75 55 54 52 58 63 64 64 74 76 87 90 81 84 67 56 65 70 76 82 89 98 98 96 97 100 100 98 92 93 97 98 99 97 99 99 100 97 72 68 100 100
60 79 78 49 60 68 69 81 88 82 84 82 90 85 75 77 72 60 67 72 81 85 94 97 97 96 95 94 98 97 97 94 95 98 98 99 99 100 92 99 98 100 100 92
72 81 65 94 88 88 69 77 72 65 79 81 82 95 85 81 64 62 68 77 86 89 93 91 94 95 94 92 88 94 96 96 97 97 98 99 99 99 100 100 100 89 100 98
88 93 85 96 93 92 94 76 51 53 66 93 81 84 86 73 63 66 74 80 79 84 86 74 80 86 92 93 88 75 57 73 91 96 97 96 97 98 99 100 99 97 90 79
94 80 81 81 90 79 66 70 73 68 98 95 94 93 90 74 68 74 77 82 70 56 50 54 47 45 36 36 44 49 58 27 27 35 46 60 76 44 48 62 73 74 74 70
84 72 84 77 66 81 99 58 68 81 90 99 96 90 80 74 72 79 77 67 55 53 48 40 27 17 15 14 12 12 11 11 13 11 10 10 11 13 13 15 18 19 20 19
65 77 84 90 94 97 69 71 71 86 74 82 76 89 75 74 78 71 62 57 53 48 38 24 17 15 12 10 9 8 7 6 7 6 6 6 6 6 5 5 6 6 5 5
89 89 93 85 98 82 76 69 69 72 78 66 69 74 75 77 74 65 58 55 48 42 28 19 16 13 11 9 7 7 6 6 6 6 6 6 6 6 6 6 5 5 6 5
85 91 93 85 86 95 89 73 76 97 88 60 67 75 77 77 68 58 56 51 45 33 22 20 17 12 10 8 7 7 7 6 6 7 7 8 8 8 7 7 7 6 6 6
85 76 75 72 82 99 90 80 100 100 75 77 70 76 80 82 71 57 52 47 39 24 22 19 14 11 9 8 8 8 8 8 8 9 10 10 10 9 9 9 10 9 9 9
83 79 83 78 84 88 90 87 91 79 90 90 75 69 72 81 68 61 52 44 34 23 22 18 14 11 9 8 9 9 11 12 12 12 13 13 13 13 13 13 13 13 13 12
88 82 81 81 71 73 73 78 76 74 94 86 74 74 79 76 68 58 51 42 28 25 21 16 12 10 9 9 11 13 15 17 17 18 18 17 18 17 17 17 16 16 15 14
77 74 66 64 68 68 57 55 61 66 87 82 80 88 88 86 68 56 48 37 27 23 17 13 11 8 9 12 16 17 17 14 10 8 8 9 10 14 16 17 17 17 17 16
79 75 58 55 41 38 41 45 56 69 84 95 95 95 95 95 73 55 47 32 25 19 15 12 9 10 15 17 16 11 8 8 8 10 12 11 10 11 14 18 19 19 18 18
88 81 71 58 44 38 38 39 66 85 94 99 95 95 94 95 94 78 44 29 20 16 13 10 10 17 16 12 9 9 10 12 17 25 27 27 25 18 18 23 24 24 22 21

GFSCGP_700_rhum_138.txt.gz
RH
18 25 25 24 24 23 26 27 28 23 21 13 20 21 21 21 21 20 22 23 24 26 26 27 27 29 22 22 25 25 24 24 22 20 18 14 5 14 37 44 66 77 95 87
42 36 34 29 30 29 29 29 28 25 19 14 25 25 25 24 23 24 26 26 26 29 28 29 31 24 22 23 26 25 23 22 21 24 25 22 16 8 9 37 46 80 100 100
46 40 33 32 30 31 31 28 26 23 22 24 28 28 26 26 26 27 28 29 33 32 32 32 30 23 23 27 29 30 28 28 29 34 31 29 25 18 12 9 39 47 89 100
44 39 37 32 37 34 32 32 30 28 31 33 31 41 28 28 38 36 37 38 41 44 38 32 28 26 32 34 35 37 36 38 35 37 37 32 29 26 21 20 11 37 48 99
41 39 36 37 32 35 33 32 30 33 38 39 38 35 45 40 41 38 47 51 48 39 34 32 32 35 40 39 40 44 45 43 30 17 11 11 15 24 27 27 23 11 37 75
38 44 39 41 40 35 35 34 33 36 35 59 45 44 55 57 45 58 62 52 42 42 37 36 41 43 43 46 49 50 53 50 41 35 28 26 12 9 16 28 32 23 12 40
40 42 43 42 42 43 38 38 45 67 76 68 50 52 55 60 63 63 54 49 48 41 38 41 43 45 50 54 58 61 61 61 60 60 60 54 26 30 40 34 30 33 18 23
51 48 38 36 42 44 43 40 47 74 75 64 50 61 72 61 56 59 59 54 47 44 46 46 48 56 62 68 72 76 75 69 55 55 72 83 76 44 27 26 18 12 9 25
55 56 45 52 46 40 44 44 42 55 56 62 58 65 63 48 54 69 63 56 50 51 52 49 63 70 76 76 85 91 91 83 92 83 81 95 100 100 96 76 20 12 12 98
54 52 42 44 41 44 41 50 59 61 73 78 87 84 61 52 71 75 64 52 53 56 58 61 75 80 87 88 91 94 100 100 100 100 98 100 99 98 100 85 80 72 78 72
54 66 60 57 50 45 50 61 55 59 63 90 94 77 57 62 69 68 61 57 59 62 66 74 88 90 90 92 92 96 100 100 100 93 94 100 100 100 91 93 98 98 98 88
51 70 70 66 67 56 59 50 46 54 66 71 76 77 58 71 77 71 62 58 64 70 78 87 93 92 89 95 95 94 100 99 100 96 97 98 97 100 97 99 99 99 99 64
58 79 92 70 58 51 95 69 67 66 76 82 90 74 62 66 70 72 58 62 68 73 82 90 92 93 81 82 75 89 97 97 97 96 96 94 98 98 98 99 99 100 87 66
74 79 88 72 65 73 67 80 80 88 87 80 66 58 66 78 81 66 58 67 73 76 81 82 80 85 81 75 64 32 35 58 89 95 95 97 97 98 99 98 100 100 97 90
78 84 88 86 96 76 90 86 90 93 76 57 45 60 72 78 84 66 63 75 74 67 68 54 48 40 34 35 29 54 28 17 35 51 80 75 65 95 96 98 99 99 99 100
89 93 89 83 98 80 82 82 82 89 73 53 63 77 78 82 97 80 74 82 72 55 51 46 32 20 14 12 11 9 8 7 7 8 11 27 33 18 56 46 35 31 39 38
74 73 93 90 77 93 99 60 58 53 56 67 64 68 88 92 95 78 82 84 63 56 49 32 17 14 11 10 8 7 6 5 5 5 5 5 5 5 6 6 6 6 7 8
74 78 87 81 100 96 67 65 66 68 78 67 59 74 89 79 81 80 82 64 58 54 39 19 15 13 10 8 7 6 6 6 6 6 6 7 7 7 7 7 6 6 6 5
84 83 92 86 97 76 70 73 67 66 67 59 61 67 80 76 76 76 70 61 56 48 26 17 14 11 9 7 6 6 6 7 8 8 9 9 9 9 9 8 8 8 7 7
97 98 97 98 91 92 79 72 81 78 65 56 60 68 74 73 76 85 78 58 51 40 20 17 13 10 8 7 7 8 8 10 11 12 11 12 12 12 11 11 10 10 10 9
97 97 96 92 96 78 62 74 72 82 61 61 70 72 77 79 82 84 67 56 48 30 19 18 13 10 8 8 8 10 12 14 14 16 16 16 15 14 14 14 14 14 13 12
83 94 92 88 84 81 61 80 79 71 62 60 74 79 84 91 95 88 64 56 45 24 19 16 12 9 8 9 11 14 16 17 17 16 16 16 17 18 18 17 17 16 16 15
82 77 71 70 62 62 67 67 58 60 54 67 80 82 81 88 95 91 73 56 41 21 18 13 10 8 8 11 16 18 18 12 8 8 8 9 10 12 15 19 21 21 20 20
93 79 79 79 72 74 74 66 44 45 61 70 87 84 90 95 95 95 88 63 34 20 16 12 9 8 10 16 18 14 8 8 12 20 26 27 28 24 20 20 21 22 22 21
73 73 71 66 58 55 42 36 34 36 67 81 94 96 95 96 95 96 95 88 43 23 15 11 8 9 16 17 12 9 10 15 26 29 29 30 30 29 26 24 22 20 20 23
82 77 74 63 41 39 36 34 31 43 75 84 95 97 96 96 96 95 95 78 60 36 13 9 8 15 18 12 9 12 14 18 18 18 18 18 20 28 33 34 32 29 28 28